[[{"header":{"parameterUnit":"m.s-1","parameterCategory":1,"la1":30.6,"la2":29.2853,"lo1":-89.7004,"lo2":-87.6739,"dy":0.0162,"dx":0.0183,"nx":112,"ny":82,"refTime":"2026-02-22T12:00:00:Z","depth":0,"parameterNumber":2,"parameterNumberName":"U-component_of_WINDS"},"data":[0.0,0.0,0.0,0.0,0.0,0.0,0.0,0.0,0.0,0.0,0.0,0.0,0.0,0.0,0.0,0.0,0.0,0.0,0.0,0.0,0.0,0.0,0.0,0.0,0.0,0.0,0.0,0.0,0.0,0.0,0.0,0.0,0.0,0.0,0.0,0.0,0.0,0.0,0.0,0.0,0.0,0.0,0.0,0.0,0.0,0.0,0.0,0.0,0.0,0.0,0.0,0.0,0.0,0.0,0.0,0.0,0.0,0.0,0.0,0.0,0.0,0.0,0.0,0.0,0.0,0.0,0.0,0.0,0.0,0.0,0.0,0.0,0.0,0.0,0.0,0.0,0.0,0.0,0.0,0.0,0.0,0.0,0.0,0.0,0.0,0.0,0.0,0.0,0.0,0.0,-3.7041,-3.9448,-4.4887,-4.8496,-4.8817,-4.7629,-4.4604,-3.9192,0.0,0.0,0.0,0.0,0.0,0.0,0.0,0.0,0.0,0.0,0.0,0.0,0.0,0.0,0.0,0.0,0.0,0.0,0.0,0.0,0.0,0.0,0.0,0.0,0.0,0.0,0.0,0.0,0.0,0.0,0.0,0.0,0.0,0.0,0.0,0.0,0.0,0.0,0.0,0.0,0.0,0.0,0.0,0.0,0.0,0.0,0.0,0.0,0.0,0.0,0.0,0.0,0.0,0.0,0.0,0.0,0.0,0.0,0.0,0.0,0.0,0.0,0.0,0.0,0.0,0.0,0.0,0.0,0.0,0.0,0.0,0.0,0.0,0.0,0.0,0.0,0.0,0.0,0.0,0.0,0.0,0.0,0.0,0.0,0.0,0.0,0.0,0.0,0.0,0.0,0.0,0.0,0.0,0.0,0.0,0.0,0.0,0.0,0.0,0.0,0.0,0.0,0.0,0.0,-3.7377,-4.5616,-4.8531,-4.9889,-4.9958,-4.8067,-4.489,-4.0229,0.0,0.0,0.0,0.0,0.0,0.0,0.0,0.0,0.0,0.0,0.0,0.0,0.0,0.0,0.0,0.0,0.0,0.0,0.0,0.0,0.0,0.0,0.0,0.0,0.0,0.0,0.0,0.0,0.0,0.0,0.0,0.0,0.0,0.0,0.0,0.0,0.0,0.0,0.0,0.0,0.0,0.0,0.0,0.0,0.0,0.0,0.0,0.0,0.0,0.0,0.0,0.0,0.0,0.0,0.0,0.0,0.0,0.0,0.0,0.0,0.0,0.0,0.0,0.0,0.0,0.0,0.0,0.0,0.0,0.0,0.0,0.0,0.0,0.0,0.0,0.0,0.0,0.0,0.0,0.0,0.0,0.0,0.0,0.0,0.0,0.0,0.0,0.0,0.0,0.0,0.0,0.0,0.0,0.0,0.0,0.0,0.0,0.0,0.0,0.0,0.0,0.0,0.0,-3.6671,-4.0812,-4.8398,-5.0154,-5.0783,-5.0783,-4.8763,-4.5499,-4.0819,-3.7099,0.0,0.0,0.0,0.0,0.0,0.0,0.0,0.0,0.0,0.0,0.0,0.0,0.0,0.0,0.0,0.0,0.0,0.0,0.0,0.0,0.0,0.0,0.0,0.0,0.0,0.0,0.0,0.0,0.0,0.0,0.0,0.0,0.0,0.0,0.0,0.0,0.0,0.0,0.0,0.0,0.0,0.0,0.0,0.0,0.0,0.0,0.0,0.0,0.0,0.0,0.0,0.0,0.0,0.0,0.0,0.0,0.0,0.0,0.0,0.0,0.0,0.0,0.0,0.0,0.0,0.0,0.0,0.0,0.0,0.0,0.0,0.0,0.0,0.0,0.0,0.0,0.0,0.0,0.0,0.0,0.0,0.0,0.0,0.0,0.0,0.0,0.0,0.0,0.0,0.0,0.0,0.0,0.0,0.0,0.0,0.0,0.0,0.0,0.0,0.0,0.0,0.0,-4.164,-4.4688,-4.9889,-5.1115,-5.1514,-5.1315,-4.8928,-4.5571,-4.1077,-3.6745,0.0,0.0,0.0,0.0,0.0,0.0,0.0,0.0,0.0,0.0,0.0,0.0,0.0,0.0,0.0,0.0,0.0,0.0,0.0,0.0,0.0,0.0,0.0,0.0,0.0,0.0,0.0,0.0,0.0,0.0,0.0,0.0,0.0,0.0,0.0,0.0,0.0,0.0,0.0,0.0,0.0,0.0,0.0,0.0,0.0,0.0,0.0,0.0,0.0,0.0,0.0,0.0,0.0,0.0,0.0,0.0,0.0,0.0,0.0,0.0,0.0,0.0,0.0,0.0,0.0,0.0,0.0,0.0,0.0,0.0,0.0,0.0,0.0,0.0,0.0,0.0,0.0,0.0,0.0,0.0,0.0,0.0,0.0,0.0,0.0,0.0,0.0,0.0,0.0,0.0,0.0,0.0,0.0,0.0,0.0,0.0,0.0,0.0,0.0,0.0,0.0,0.0,-4.3529,-4.7703,-5.0917,-5.1879,-5.2045,-5.1382,-4.8001,-4.4474,-4.101,-3.5804,0.0,0.0,0.0,0.0,0.0,0.0,0.0,0.0,0.0,0.0,0.0,0.0,0.0,0.0,0.0,0.0,0.0,0.0,0.0,0.0,0.0,0.0,0.0,0.0,0.0,0.0,0.0,0.0,0.0,0.0,0.0,0.0,0.0,0.0,0.0,0.0,0.0,0.0,0.0,0.0,0.0,0.0,0.0,0.0,0.0,0.0,0.0,0.0,0.0,0.0,0.0,0.0,0.0,0.0,0.0,0.0,0.0,0.0,0.0,0.0,0.0,0.0,0.0,0.0,0.0,0.0,0.0,0.0,0.0,0.0,0.0,0.0,0.0,0.0,0.0,0.0,0.0,0.0,0.0,0.0,0.0,0.0,0.0,0.0,0.0,0.0,0.0,0.0,0.0,0.0,0.0,0.0,0.0,0.0,0.0,0.0,0.0,0.0,0.0,0.0,0.0,0.0,-4.3065,-4.7504,0.0,-5.1978,-5.231,-5.2011,-4.9425,-4.5976,-4.1444,0.0,0.0,0.0,0.0,0.0,0.0,0.0,0.0,0.0,0.0,0.0,0.0,0.0,0.0,0.0,0.0,0.0,0.0,0.0,0.0,0.0,0.0,0.0,0.0,0.0,0.0,0.0,0.0,0.0,0.0,0.0,0.0,0.0,0.0,0.0,0.0,0.0,0.0,0.0,0.0,0.0,0.0,0.0,0.0,0.0,0.0,0.0,0.0,0.0,0.0,0.0,0.0,0.0,0.0,0.0,0.0,0.0,0.0,0.0,0.0,0.0,0.0,0.0,0.0,0.0,0.0,0.0,0.0,0.0,0.0,0.0,0.0,0.0,0.0,0.0,0.0,0.0,0.0,0.0,0.0,0.0,0.0,0.0,0.0,0.0,0.0,0.0,0.0,0.0,0.0,0.0,0.0,0.0,0.0,0.0,0.0,0.0,0.0,0.0,0.0,0.0,0.0,-3.8732,-4.3694,-4.8166,0.0,-5.2407,-5.2705,-5.2705,-4.9856,-4.6146,-4.1678,0.0,0.0,0.0,0.0,0.0,0.0,0.0,0.0,0.0,0.0,0.0,0.0,0.0,0.0,0.0,0.0,0.0,0.0,0.0,0.0,0.0,0.0,0.0,0.0,0.0,0.0,0.0,0.0,0.0,0.0,0.0,0.0,0.0,0.0,0.0,0.0,0.0,0.0,0.0,0.0,0.0,0.0,0.0,0.0,0.0,0.0,0.0,0.0,0.0,0.0,0.0,0.0,0.0,0.0,0.0,0.0,0.0,0.0,0.0,0.0,0.0,0.0,0.0,0.0,0.0,0.0,0.0,0.0,0.0,0.0,0.0,0.0,0.0,0.0,0.0,0.0,0.0,0.0,0.0,0.0,0.0,0.0,0.0,0.0,0.0,0.0,0.0,0.0,0.0,0.0,0.0,0.0,0.0,0.0,0.0,0.0,0.0,0.0,0.0,0.0,0.0,0.0,-4.0945,-4.5947,-5.0253,-5.3135,-5.3434,-5.3434,-5.34,-4.8763,-4.4589,0.0,0.0,0.0,0.0,0.0,0.0,0.0,0.0,0.0,0.0,0.0,0.0,0.0,0.0,0.0,0.0,0.0,0.0,0.0,0.0,0.0,0.0,0.0,0.0,0.0,0.0,0.0,0.0,0.0,0.0,0.0,0.0,0.0,0.0,0.0,0.0,0.0,0.0,0.0,0.0,0.0,0.0,0.0,0.0,0.0,0.0,0.0,0.0,0.0,0.0,0.0,0.0,0.0,0.0,0.0,0.0,0.0,0.0,0.0,0.0,0.0,0.0,0.0,0.0,0.0,0.0,0.0,0.0,0.0,0.0,0.0,0.0,0.0,0.0,0.0,0.0,0.0,0.0,0.0,0.0,0.0,0.0,0.0,0.0,0.0,0.0,0.0,0.0,0.0,0.0,0.0,0.0,0.0,0.0,0.0,0.0,0.0,0.0,0.0,0.0,0.0,0.0,0.0,-4.1011,-4.6808,-5.1545,-5.393,-5.4195,-5.3997,-5.3467,-5.0651,-4.6775,-4.174,0.0,0.0,0.0,0.0,0.0,0.0,0.0,0.0,0.0,0.0,0.0,0.0,0.0,0.0,0.0,0.0,0.0,0.0,0.0,0.0,0.0,0.0,0.0,0.0,0.0,0.0,0.0,0.0,0.0,0.0,0.0,0.0,0.0,0.0,0.0,0.0,0.0,0.0,0.0,0.0,0.0,0.0,0.0,0.0,0.0,0.0,0.0,0.0,0.0,0.0,0.0,0.0,0.0,0.0,0.0,0.0,0.0,0.0,0.0,0.0,0.0,0.0,0.0,0.0,0.0,0.0,0.0,0.0,0.0,0.0,0.0,0.0,0.0,0.0,0.0,0.0,0.0,0.0,0.0,0.0,0.0,0.0,0.0,0.0,0.0,0.0,0.0,0.0,0.0,0.0,0.0,0.0,0.0,0.0,0.0,0.0,0.0,0.0,0.0,0.0,0.0,0.0,-4.1413,-4.7371,-5.2208,-5.4655,-5.492,-5.4622,-5.393,-5.1877,-4.8133,-4.2208,0.0,0.0,0.0,0.0,0.0,0.0,0.0,0.0,0.0,0.0,0.0,0.0,0.0,0.0,0.0,0.0,0.0,0.0,0.0,0.0,0.0,0.0,0.0,0.0,0.0,0.0,0.0,0.0,0.0,0.0,0.0,0.0,0.0,0.0,0.0,0.0,0.0,0.0,0.0,0.0,0.0,0.0,0.0,0.0,0.0,0.0,0.0,0.0,0.0,0.0,0.0,0.0,0.0,0.0,0.0,0.0,0.0,0.0,0.0,0.0,0.0,0.0,0.0,0.0,0.0,0.0,0.0,0.0,0.0,0.0,0.0,0.0,0.0,0.0,0.0,0.0,0.0,0.0,0.0,0.0,0.0,0.0,0.0,0.0,0.0,0.0,0.0,0.0,0.0,0.0,0.0,0.0,0.0,0.0,0.0,0.0,0.0,0.0,0.0,0.0,0.0,0.0,-4.2109,-4.7736,-5.2506,-5.5383,-5.5681,-5.5383,-5.4655,-5.2638,-4.8928,-4.3168,0.0,0.0,0.0,0.0,0.0,0.0,0.0,0.0,0.0,0.0,0.0,0.0,0.0,0.0,0.0,0.0,0.0,0.0,0.0,0.0,0.0,0.0,0.0,0.0,0.0,0.0,0.0,0.0,0.0,0.0,0.0,0.0,0.0,0.0,0.0,0.0,0.0,0.0,0.0,0.0,0.0,0.0,0.0,0.0,0.0,0.0,0.0,0.0,0.0,0.0,0.0,0.0,0.0,0.0,0.0,0.0,0.0,0.0,0.0,0.0,-3.7235,0.0,0.0,0.0,0.0,0.0,0.0,0.0,0.0,0.0,0.0,0.0,0.0,0.0,0.0,0.0,0.0,0.0,0.0,0.0,0.0,0.0,0.0,0.0,0.0,0.0,0.0,0.0,0.0,0.0,0.0,0.0,0.0,0.0,0.0,0.0,0.0,0.0,0.0,0.0,0.0,0.0,-4.2804,-4.8531,-5.3268,-5.615,-5.6448,-5.6183,-5.5416,-5.34,-5.0121,-4.5384,-4.0481,0.0,0.0,0.0,0.0,0.0,0.0,0.0,0.0,0.0,0.0,0.0,0.0,0.0,0.0,0.0,0.0,0.0,0.0,0.0,0.0,0.0,0.0,0.0,0.0,0.0,0.0,0.0,0.0,0.0,0.0,0.0,0.0,0.0,0.0,0.0,0.0,0.0,0.0,0.0,0.0,0.0,0.0,0.0,0.0,0.0,0.0,0.0,0.0,0.0,0.0,0.0,0.0,0.0,0.0,0.0,0.0,0.0,0.0,0.0,0.0,-4.0249,0.0,0.0,0.0,0.0,0.0,0.0,0.0,0.0,0.0,0.0,0.0,0.0,0.0,0.0,0.0,0.0,0.0,0.0,0.0,0.0,0.0,0.0,0.0,0.0,0.0,0.0,0.0,0.0,0.0,0.0,0.0,0.0,0.0,0.0,0.0,0.0,0.0,0.0,0.0,0.0,-4.3529,-4.8961,-5.3467,-5.6382,-5.668,-5.6415,-5.5648,-5.393,-5.1148,-4.7106,-4.2402,0.0,0.0,0.0,0.0,0.0,0.0,0.0,0.0,0.0,0.0,0.0,0.0,0.0,0.0,0.0,0.0,0.0,0.0,0.0,0.0,0.0,0.0,0.0,0.0,0.0,0.0,0.0,0.0,0.0,0.0,0.0,0.0,0.0,0.0,0.0,0.0,0.0,0.0,0.0,0.0,0.0,0.0,0.0,0.0,0.0,0.0,0.0,0.0,0.0,0.0,0.0,0.0,0.0,-5.1249,-5.2407,-5.234,-5.3665,-5.3967,-5.3238,-5.0286,-4.8166,-4.6543,0.0,0.0,0.0,0.0,0.0,0.0,0.0,0.0,0.0,0.0,0.0,0.0,0.0,0.0,0.0,0.0,0.0,0.0,0.0,0.0,0.0,0.0,0.0,0.0,0.0,-4.3462,-4.34,0.0,0.0,0.0,0.0,0.0,0.0,0.0,0.0,0.0,0.0,0.0,0.0,-4.4423,-4.9458,-5.3599,-5.6382,-5.668,-5.6448,-5.5852,-5.446,-5.2208,-4.8961,-4.4754,-4.0812,0.0,0.0,0.0,0.0,0.0,0.0,0.0,0.0,0.0,0.0,0.0,0.0,0.0,0.0,0.0,0.0,0.0,0.0,0.0,0.0,0.0,0.0,0.0,0.0,0.0,0.0,0.0,0.0,0.0,0.0,0.0,0.0,-3.3402,-3.3751,0.0,0.0,0.0,0.0,0.0,0.0,0.0,0.0,0.0,0.0,0.0,0.0,0.0,0.0,-4.916,-5.3235,-5.5289,-5.5454,-5.9603,-6.126,-6.0663,-6.1492,-6.1824,-6.1757,-6.1815,0.0,-5.052,-4.9458,0.0,0.0,0.0,0.0,0.0,0.0,0.0,0.0,0.0,0.0,0.0,0.0,0.0,0.0,0.0,0.0,0.0,0.0,0.0,0.0,0.0,0.0,-4.7868,-4.873,-4.9127,-4.8961,0.0,-4.2336,-3.7168,-3.4651,-3.3226,0.0,0.0,0.0,0.0,0.0,0.0,0.0,-4.5947,-5.0518,-5.4162,-5.6448,-5.668,-5.6647,-5.6547,-5.5222,-5.3632,-5.1945,-4.8266,-4.4821,-4.1744,-3.7566,0.0,0.0,0.0,0.0,0.0,0.0,0.0,0.0,0.0,0.0,0.0,0.0,0.0,0.0,0.0,0.0,0.0,0.0,0.0,0.0,0.0,0.0,0.0,0.0,0.0,0.0,0.0,0.0,0.0,-3.3097,-3.5725,-3.5103,-3.623,-3.6141,0.0,0.0,0.0,0.0,0.0,0.0,0.0,0.0,0.0,-5.0121,-5.2042,-5.4494,-5.7508,-6.0225,-6.2013,-6.2875,-6.5194,-6.6353,-6.6452,-6.6784,-6.6949,-6.6949,-6.6817,-6.4365,-6.0158,-5.6117,-5.2307,-4.873,0.0,0.0,0.0,0.0,0.0,-4.4622,-4.7703,-4.8299,0.0,0.0,0.0,0.0,0.0,0.0,0.0,0.0,0.0,0.0,0.0,0.0,0.0,-5.2274,-5.2901,-5.3,-5.2307,-4.8995,-4.4787,0.0,-3.899,-3.7268,-3.2287,0.0,0.0,0.0,0.0,0.0,-4.7537,-5.1247,-5.4262,-5.6448,-5.668,-5.668,-5.668,-5.5355,-5.4063,-5.3036,-4.9922,-4.7206,-4.5052,-4.1143,-3.7533,0.0,0.0,0.0,0.0,0.0,0.0,0.0,0.0,0.0,0.0,0.0,0.0,0.0,0.0,0.0,0.0,0.0,0.0,0.0,0.0,0.0,0.0,0.0,0.0,0.0,0.0,0.0,0.0,-3.5736,-3.8214,-3.6801,-3.9337,-3.9796,0.0,0.0,0.0,0.0,0.0,0.0,-4.7106,-4.9823,-5.3003,-5.6647,-5.8535,-6.1053,-6.4365,-6.5823,-6.7181,-6.8473,-6.9202,-6.9831,-7.0361,-7.0361,-7.0361,-7.0328,-6.9765,-6.9136,-6.8009,-6.1947,-5.7541,-5.4328,-5.1578,-4.9955,-4.926,-5.0386,-5.0551,-5.075,-5.4394,-5.5156,-5.4328,-5.3102,0.0,-4.9094,-4.4586,0.0,0.0,0.0,0.0,-4.5549,-4.9061,0.0,-5.3205,-5.5156,-5.6051,-5.6249,-5.5521,-5.4361,-5.1711,0.0,-4.4591,-4.2999,-3.7533,0.0,0.0,0.0,0.0,-4.5384,-4.9425,-5.2307,-5.4692,-5.6481,-5.668,-5.668,-5.668,-5.5355,-5.4295,-5.3732,-5.1148,-4.9094,-4.7802,-4.4589,-4.1442,-3.856,0.0,0.0,0.0,0.0,0.0,0.0,0.0,0.0,0.0,0.0,0.0,0.0,0.0,0.0,0.0,0.0,0.0,0.0,0.0,0.0,0.0,0.0,0.0,0.0,0.0,0.0,0.0,0.0,0.0,-3.9918,-4.444,0.0,0.0,0.0,0.0,-4.4321,-4.7736,-5.1048,-5.3864,-5.615,-5.9032,-6.2709,-6.3637,-6.5127,-6.7334,-6.8837,-6.9964,-7.0759,-7.1488,-7.1852,-7.1885,-7.1885,-7.1885,-7.1885,-7.1852,-7.1421,-7.0394,-6.5856,-6.2676,-6.0456,-5.8171,-5.6448,-5.5152,-5.5251,-5.5686,-5.6481,-5.8104,-5.8204,-5.7773,-5.9098,-5.6216,-5.2078,-5.105,-4.873,0.0,0.0,-4.9756,-5.1512,-5.4494,-5.5819,-5.6812,-5.8303,-5.8701,-5.8535,-5.7773,-5.7011,-5.5156,0.0,-4.873,-4.7007,-4.4556,0.0,-4.3433,-4.4092,-4.6212,-4.8829,-5.181,-5.4162,-5.5819,-5.6614,-5.668,-5.668,-5.668,-5.5355,-5.4456,-5.4423,-5.2373,-5.0817,-5.0088,-4.7835,-4.5251,-4.2274,-3.7996,0.0,0.0,0.0,0.0,0.0,0.0,0.0,0.0,0.0,0.0,0.0,0.0,0.0,0.0,0.0,0.0,0.0,0.0,0.0,0.0,0.0,0.0,0.0,0.0,0.0,0.0,0.0,0.0,-4.3943,-4.8221,0.0,-4.5742,-4.7967,-5.0021,-5.0949,-5.3997,-5.7077,-5.9993,-6.1318,-6.3239,-6.5989,-6.7247,-6.8705,-7.0428,-7.1421,-7.2283,-7.3011,-7.374,-7.4105,-7.4138,-7.4568,-7.4535,-7.4072,-7.3608,-7.2978,-7.215,-7.0096,-6.7711,-6.5094,-6.2875,-6.1715,-6.1251,-6.1251,-6.1417,-6.1715,-6.2245,-6.2245,-6.1848,-6.0986,-5.8502,-5.5719,-5.499,-5.3367,-5.2108,-5.3566,-5.4361,-5.5222,-5.721,-5.827,-5.8966,-5.9496,-5.9595,-5.9529,-5.9264,-5.8634,-5.7508,-5.5487,-5.3135,-5.0485,-4.7371,-4.7769,-4.8166,-4.7007,-4.9094,-5.1545,-5.35,-5.4858,-5.5885,-5.6614,-5.668,-5.668,-5.668,-5.5355,-5.449,-5.449,-5.2937,-5.1446,-5.0253,-4.8995,-4.6941,-4.3959,-4.1011,-3.7102,0.0,0.0,0.0,0.0,0.0,0.0,0.0,0.0,0.0,0.0,0.0,0.0,0.0,0.0,0.0,0.0,0.0,0.0,0.0,0.0,0.0,0.0,0.0,0.0,0.0,0.0,-4.8068,-4.7957,-5.2128,-5.3789,-5.085,-5.3235,-5.5454,-5.6647,-5.9231,-6.1815,-6.4233,-6.526,-6.6684,-6.8672,-6.9666,-7.0891,-7.2382,-7.3111,-7.384,-7.4586,-7.5297,-7.5628,-7.5628,-7.6092,-7.6059,-7.5595,-7.4867,-7.427,-7.3773,-7.278,-7.1223,-6.9268,-6.7082,-6.5922,-6.5492,-6.5492,-6.5492,-6.5492,-6.5492,-6.5127,-6.4465,-6.3007,-6.1086,-5.9164,-5.8668,-5.7707,-5.6978,-5.8204,-5.8535,-5.8833,-6.0059,-6.0755,-6.1053,-6.0788,-6.0721,-6.0655,-6.0423,-5.9794,-5.9131,-5.8634,-5.6349,-5.3665,-5.1015,-5.1578,-5.1777,-5.0088,-5.191,-5.3732,-5.4427,-5.5388,-5.615,-5.6647,-5.668,-5.6581,-5.6349,-5.499,-5.4063,-5.3831,-5.2208,-5.075,-4.9525,-4.8498,-4.6841,-4.439,-4.1442,-3.7798,-3.3415,0.0,0.0,0.0,0.0,0.0,0.0,0.0,0.0,0.0,0.0,0.0,0.0,0.0,0.0,0.0,0.0,0.0,0.0,0.0,0.0,0.0,0.0,0.0,-4.3443,-4.7704,-5.1095,-5.1932,-5.6179,-5.8204,-5.6045,-5.8469,-6.049,-6.1218,-6.3272,-6.5094,-6.6552,-6.7943,-6.9401,-7.0858,-7.0924,-7.1686,-7.3144,-7.384,-7.4568,-7.533,-7.6026,-7.6324,-7.6324,-7.6357,-7.6357,-7.6258,-7.5595,-7.5297,-7.5165,-7.374,-7.3144,-7.2879,-7.0693,-6.9003,-6.7665,-6.7665,-6.7632,-6.7599,-6.7599,-6.6672,-6.5492,-6.5459,-6.4001,-6.2321,-6.2288,-6.1748,-6.1318,-6.2056,-6.2255,-6.242,-6.3116,-6.3315,-6.315,-6.242,-6.2221,-6.2022,-6.1285,-6.0556,-6.0026,-5.9993,-5.827,-5.6547,-5.5819,-5.5052,-5.4361,-5.3632,-5.4688,0.0,-5.4655,-5.5819,-5.668,-5.668,-5.668,-5.6415,-5.5681,-5.4258,-5.3135,-5.2407,-5.0353,-4.8796,-4.8034,-4.6643,-4.5185,-4.3698,-3.9394,-3.5777,-3.2884,0.0,0.0,0.0,0.0,0.0,0.0,0.0,0.0,0.0,0.0,0.0,0.0,0.0,0.0,0.0,0.0,0.0,0.0,0.0,0.0,0.0,0.0,-4.6963,-4.6507,-5.1295,-5.5453,-5.7001,-6.0211,-6.2016,-6.126,-6.2842,-6.4233,-6.4962,-6.6088,-6.738,-6.8804,-6.9268,-6.9931,-7.0858,-7.1951,-7.2945,-7.3873,-7.4602,-7.533,-7.6026,-7.6755,-7.6821,-7.6357,-7.7417,-7.7318,-7.6291,-7.6125,-7.5728,-7.5198,-7.427,-7.3575,-7.3011,-7.1852,-7.0825,-6.9997,-6.9997,-6.9334,-6.8407,-6.8407,-6.7777,-6.6916,-6.6386,-6.5459,-6.4432,-6.3935,-6.3272,-6.2709,-6.2951,-6.3017,-6.305,-6.3282,-6.3315,-6.3282,-6.3083,-6.2619,-6.2155,-6.1914,-6.1318,-6.0655,-6.0092,-5.9496,-5.8701,-5.7409,-5.7044,-5.6647,-5.5885,-5.615,0.0,-5.6117,-5.6448,-5.668,-5.668,-5.668,-5.6614,-5.6415,-5.5057,-5.3699,-5.2509,-5.0817,-4.9326,-4.8067,-4.7603,-4.6709,-4.5218,-4.1442,-3.856,0.0,0.0,0.0,0.0,0.0,0.0,0.0,0.0,0.0,0.0,0.0,0.0,0.0,0.0,0.0,0.0,0.0,0.0,0.0,0.0,0.0,0.0,-4.8281,-5.1594,-5.2674,-5.5772,-5.8542,-6.0358,-6.2915,-6.4561,-6.4641,-6.5657,-6.6519,-6.6949,-6.7645,-6.8572,-6.9732,-7.0394,-7.1057,-7.1786,-7.3243,-7.4204,-7.4686,-7.533,-7.5894,-7.6324,-7.6755,-7.6722,-7.6324,-7.7185,-7.7285,0.0,-7.6125,-7.5827,-7.5628,-7.4652,-7.3939,0.0,0.0,0.0,0.0,0.0,-7.0163,-6.9136,-6.9136,-6.8672,-6.8009,-6.7579,-6.6717,-6.579,-6.5392,-6.4763,-6.4167,-6.4167,-6.4167,-6.4167,-6.4167,-6.4167,-6.41,-6.3802,-6.3448,-6.2984,-6.2354,-6.1848,-6.1351,-6.0622,0.0,0.0,-5.8933,-5.8469,-5.7906,-5.6846,-5.6945,-5.6945,0.0,-5.6514,-5.668,-5.668,-5.668,-5.6547,-5.6282,-5.4891,0.0,0.0,0.0,-4.8365,-4.6245,-4.6179,0.0,0.0,0.0,0.0,0.0,0.0,0.0,0.0,-3.6075,-3.6572,0.0,0.0,0.0,0.0,0.0,0.0,0.0,0.0,0.0,0.0,0.0,0.0,0.0,0.0,0.0,0.0,-5.2505,-5.6212,-5.9802,-6.0396,-6.1065,-6.2699,-6.4681,-6.608,-6.6585,-6.7268,-6.7698,-6.7698,-6.8407,-6.9103,-6.9765,0.0,0.0,0.0,0.0,-7.5198,-7.5264,-7.5894,-7.6225,-7.6324,-7.6324,-7.6258,-7.6192,-7.6291,-7.6622,-7.7119,-7.5827,-7.5628,-7.6092,-7.4734,-7.4221,-7.4155,-7.3376,-7.2713,-7.2018,-7.1189,-7.0494,0.0,0.0,0.0,0.0,-6.8705,-6.7811,-6.6751,-6.6684,-6.6121,-6.5525,-6.5525,-6.5492,-6.5425,-6.5425,-6.5425,-6.526,-6.463,-6.4432,-6.4034,-6.2752,-6.2321,-6.2022,-6.1351,-6.1152,-6.0887,-6.0258,-5.9496,-5.8535,-5.7144,-5.7475,0.0,-5.6112,-5.6547,-5.6912,-5.6812,0.0,0.0,-5.5819,-5.446,-5.3003,-5.1547,-4.9425,-4.704,-4.4327,-4.4293,-4.3995,-4.3234,-4.4456,-4.4754,-4.4095,-4.4754,-4.4787,-4.4128,-4.0017,-4.0122,0.0,0.0,0.0,0.0,0.0,0.0,0.0,0.0,0.0,0.0,0.0,0.0,0.0,0.0,0.0,-5.1183,-5.5783,-5.9595,-6.147,-6.3377,-6.4739,-6.5316,-6.5958,-6.663,-6.7347,-6.8042,-6.8473,-6.8473,-6.9169,-6.9633,-6.9798,-7.1189,0.0,-7.2216,-7.3608,-7.4719,-7.5264,-7.5397,-7.5761,-7.6324,0.0,0.0,-7.5496,-7.6059,-7.6092,-7.5662,-7.5397,-7.5363,-7.5397,-7.4586,-7.4221,-7.4155,-7.3376,-7.3011,-7.2746,-7.1388,-7.0792,-7.0593,-6.9997,-6.9699,-6.9467,-6.8871,-6.8506,-6.8175,-6.7579,-6.6837,0.0,-6.632,-6.5889,-6.5425,-6.5425,-6.5425,-6.5392,-6.526,-6.4796,-6.4299,-6.4034,-6.305,-6.2188,-6.2022,-6.1516,-6.1053,-6.092,-6.0291,-5.9496,-5.8601,-5.8601,-5.8568,-5.8303,-5.8403,-5.8237,-5.7641,-5.7574,-5.7276,-5.6547,-5.5686,-5.4328,-5.2307,-5.0684,-4.926,-4.81,-4.863,-4.8597,-4.7868,-4.7537,-4.7305,-4.7173,-4.7305,-4.7603,-4.7968,-4.5351,-4.4556,0.0,0.0,0.0,0.0,0.0,0.0,0.0,0.0,0.0,0.0,0.0,-4.0595,-4.3944,0.0,-5.1319,-5.5074,-5.8346,-6.1177,-6.3067,-6.4454,-6.5377,-6.5888,-6.679,-6.7575,-6.8076,-6.8804,-6.9401,-6.9765,-6.9798,-7.0262,-7.1388,-7.1786,-7.2349,-7.3078,-7.4138,-7.4951,-7.5264,-7.5264,-7.5463,-7.5794,-7.543,-7.5065,-7.4734,-7.5098,-7.5264,-7.5264,-7.4951,-7.4984,-7.5231,-7.452,-7.4221,-7.4188,-7.3773,-7.3409,-7.3011,-7.2283,-7.1786,-7.1355,-7.0593,-7.0361,-7.0229,-6.9467,-6.9003,-6.8606,-6.8274,-6.7645,-6.7036,-6.7036,-6.6817,-6.6452,-6.6055,-6.5955,-6.5889,-6.5492,-6.516,-6.4796,-6.4465,-6.3846,-6.3083,-6.2354,-6.1881,-6.1516,-6.1152,-6.0788,-6.0291,-5.9562,-5.9463,-5.933,-5.8933,-5.8899,-5.8767,-5.8403,-5.8336,-5.8038,-5.7309,-5.5918,-5.446,-5.3003,-5.1877,-5.0949,-5.022,-5.0916,-5.0949,-5.022,-5.0518,-5.0551,-5.0187,-5.0551,-5.0717,-5.0717,-4.9955,-4.9226,0.0,0.0,0.0,0.0,0.0,0.0,0.0,0.0,-3.7313,-4.0324,-4.2219,-4.4756,-4.9255,-5.142,-5.3991,-5.849,-6.0435,-6.215,-6.4268,-6.49,-6.5354,-6.6001,-6.7313,-6.8323,-6.8732,-6.9415,-7.0096,-7.0825,-7.0229,-7.0626,-7.2581,-7.225,-7.2548,-7.3707,-7.4602,-7.5116,-7.5116,-7.5116,-7.5116,-7.5065,-7.452,-7.4221,-7.4221,-7.4221,-7.4502,-7.5032,-7.4487,-7.4553,-7.505,-7.4487,-7.4221,-7.4221,-7.4221,-7.3807,-7.331,-7.3144,-7.2713,-7.2117,-7.1355,-7.1024,-7.0792,-7.0196,-6.95,-6.8904,-6.8904,-6.8407,-6.7844,-6.7844,-6.7744,-6.7433,-6.6883,-6.6705,-6.6552,-6.5823,-6.5624,-6.5425,-6.473,-6.4465,-6.4034,-6.2884,-6.252,-6.2188,-6.145,-6.1318,-6.1053,-6.0324,-6.0225,-5.9993,-5.9396,-5.933,-5.9264,-5.9131,-5.9098,-5.8767,-5.7873,-5.6051,-5.4626,-5.3897,-5.3334,-5.2672,-5.1943,-5.2605,-5.2672,-5.191,-5.3036,-5.3367,-5.2804,-5.3367,-5.3334,-5.2804,-5.3367,-5.2937,-3.4407,-3.2408,-3.1799,-3.4247,-3.5588,-3.7675,0.0,0.0,-4.431,-4.7259,-4.9593,-5.1657,-5.3619,-5.5716,-5.778,-5.9674,-6.1801,-6.3525,-6.4478,-6.5714,-6.6693,-6.7,-6.7433,-6.8048,-6.8951,-6.9509,-7.0096,-7.0825,-7.0229,-7.0196,-7.109,-7.1686,-7.2084,-7.225,-7.3575,-7.4354,-7.4354,-7.4354,-7.4354,-7.4354,-7.4255,-7.4221,-7.4221,-7.4221,-7.4255,-7.4354,-7.4255,-7.4255,-7.4354,-7.4255,-7.4221,-7.4221,-7.4221,-7.4155,-7.3972,-7.3343,-7.3045,-7.2879,-7.2117,-7.1455,-7.0891,-7.0792,-7.0262,-6.9666,-6.9666,-6.9169,-6.8572,-6.8572,-6.8109,-6.7566,-6.7466,-6.7466,-6.7268,-6.6585,-6.6386,-6.6187,-6.5459,-6.4829,-6.4332,-6.421,-6.3603,-6.2951,-6.2221,-6.2089,-6.1815,-6.1086,-6.0986,-6.0953,-6.0854,-6.0854,-6.0622,-5.996,-5.9893,-5.9297,-5.7906,-5.6945,-5.615,-5.5383,-5.5251,-5.4924,-5.4195,-5.4821,-5.4924,-5.4162,-5.4328,-5.4324,-5.4295,-5.4324,-5.4361,-5.4295,-5.4324,-5.3964,-3.8012,0.0,0.0,0.0,-4.0426,-4.276,-4.5669,-4.709,-4.8376,-5.0473,-5.2367,-5.4228,-5.6156,-5.7611,-5.9032,0.0,-6.2685,-6.4241,-6.4546,-6.5403,-6.6061,-6.628,-6.6422,-6.7164,-6.8712,-6.9017,-6.9633,-7.0792,-7.0229,-7.0295,-7.1488,-7.1819,-7.2216,-7.2647,-7.3641,-7.4221,-7.4221,-7.4221,-7.4221,-7.4221,-7.4221,-7.4221,-7.4221,-7.4221,-7.4221,-7.4221,-7.4221,-7.4221,-7.4221,-7.4221,-7.4221,-7.4221,-7.4221,-7.4221,-7.4188,-7.384,-7.374,-7.3608,-7.2912,-7.2448,-7.2051,-7.1189,-7.0693,-7.0361,-6.9931,-6.9566,-6.9334,-6.9334,-6.9136,-6.8771,-6.8341,-6.8241,-6.8042,-6.7347,-6.6804,-6.6452,-6.6121,-6.5492,-6.4862,-6.4465,-6.41,-6.3637,-6.2984,-6.2851,-6.2619,-6.1848,-6.1384,-6.1119,-6.1119,-6.1119,-6.0986,-6.0688,-6.0258,-5.9761,-5.9131,-5.8403,-5.7674,-5.6945,-5.6879,-5.6547,-5.5819,-5.6084,-5.6117,-5.5786,-5.5786,-5.5786,-5.5786,-5.5786,-5.5786,-5.5786,-5.6216,-5.6249,-3.9774,0.0,0.0,-4.188,-4.4553,-4.7158,-4.8105,-4.9864,-5.1758,-5.3247,-5.4431,-5.5818,-5.7814,-5.8829,-5.9742,-6.1095,-6.3159,-6.4613,-6.4613,-6.5133,-6.5421,-6.5343,-6.5353,-6.6001,-6.7542,-6.8181,-6.9197,-7.0888,-7.0125,-7.0258,-7.1718,-7.1934,-7.2299,-7.2879,-7.3757,-7.4221,-7.4221,-7.4221,-7.4221,-7.4221,-7.4221,-7.4221,-7.4221,-7.4221,-7.4221,-7.4221,-7.4221,-7.4221,-7.4221,-7.4221,-7.4221,-7.4221,-7.4221,-7.4221,-7.4221,-7.4221,-7.4221,-7.4105,-7.3575,-7.3276,-7.2912,-7.162,-7.1057,-7.0759,-7.003,-6.9798,-6.9798,-6.9798,-6.9798,-6.9666,-6.9136,-6.9003,-6.8804,-6.8109,-6.7512,-6.7016,-6.6618,-6.6088,-6.5525,-6.4796,-6.463,-6.4399,-6.3703,-6.3614,-6.3382,-6.2619,-6.2047,-6.155,-6.1152,-6.1119,-6.1119,-6.1119,-6.0622,-6.0225,-6.0026,-5.9496,-5.8899,-5.8138,-5.8104,-5.7839,-5.7309,-5.7309,-5.7309,-5.7309,-5.7309,-5.7309,-5.7309,-5.7309,-5.7309,-5.7309,-5.7839,-5.8104,0.0,0.0,-4.2591,-4.4141,-4.7225,-5.0338,-5.1792,-5.3348,-5.4871,-5.6359,-5.6697,-5.7205,-5.8693,-5.9573,-6.0351,-6.1163,-6.3159,-6.4613,-6.4613,-6.5222,-6.5343,-6.4461,-6.4353,-6.4531,0.0,-6.6868,-6.8944,-7.1142,-6.9929,-6.9763,-7.1242,-7.1766,-7.2116,-7.2392,-7.3592,-7.4221,-7.4221,-7.4221,-7.4221,-7.4221,-7.4221,-7.4221,-7.4221,-7.4221,-7.4221,-7.4221,-7.4221,-7.4221,-7.4221,-7.4221,-7.4221,-7.4221,-7.4221,-7.4221,-7.4221,-7.4221,-7.4221,-7.4221,-7.4188,-7.3674,-7.2978,-7.2216,-7.1488,-7.0759,-7.003,-6.9798,-6.9798,-6.9798,-6.9798,-6.9798,-6.9765,-6.9765,-6.9566,-6.8837,-6.8639,-6.8241,-6.6817,-6.6485,-6.6254,-6.5525,-6.5392,-6.516,-6.4465,-6.4365,-6.41,-6.3415,-6.3282,-6.2709,-6.1285,-6.1119,-6.1119,-6.1119,-6.1086,-6.0788,-6.0059,-5.9993,-5.9661,-5.8899,-5.8866,-5.8866,-5.8833,-5.8833,-5.8833,-5.8833,-5.8833,-5.8833,-5.8833,-5.8833,-5.8833,-5.8833,-5.8866,-5.8866,0.0,0.0,-4.5263,-4.824,-5.027,-5.2097,-5.4126,-5.5344,-5.6055,-5.6089,-5.6089,-5.6224,-5.6696,-5.7408,-5.8321,-5.9573,-6.2076,-6.4038,-6.4546,-6.5222,-6.5256,-6.3917,-6.4098,0.0,0.0,0.0,0.0,-6.9875,-6.9574,-6.9695,-7.0509,-7.1804,-7.2374,-7.2165,-7.3658,-7.4372,-7.4221,-7.4221,-7.4221,-7.4221,-7.4221,-7.4221,-7.4221,-7.4221,-7.4221,-7.4221,-7.4221,-7.4221,-7.4221,-7.4221,-7.4221,-7.4221,-7.4221,-7.4221,-7.4221,-7.4221,-7.4221,-7.4221,-7.4221,-7.4005,-7.3707,-7.2978,-7.225,-7.1488,-7.0759,-7.0196,-6.9798,-6.9798,-6.9798,-6.9798,-6.9798,-6.9798,-6.9732,-6.9467,-6.9036,-6.8539,-6.8076,-6.7214,-6.6452,-6.6187,-6.5757,-6.5326,-6.5094,-6.5061,-6.4829,-6.41,-6.3216,-6.242,-6.1881,-6.1417,-6.1119,-6.1119,-6.1119,-6.102,-6.0755,-6.0721,-6.0423,-5.9694,-5.9628,-5.9396,-5.8933,-5.8899,-5.8899,-5.8899,-5.8899,-5.8899,-5.8899,-5.8899,-5.8899,-5.8899,-5.9396,-5.9628,-4.4439,-4.613,-4.8376,-5.1319,-5.2976,-5.4228,-5.5446,-5.6292,-5.6528,-5.5513,-5.4871,-5.4499,-5.4499,-5.4668,-5.5547,-5.7848,-6.052,-6.2821,-6.4377,-6.5019,-6.485,-6.3666,-6.3816,0.0,0.0,0.0,0.0,-6.901,-6.9177,-6.9422,-7.0021,-7.174,-7.263,-7.2423,-7.3905,-7.4622,-7.4322,-7.4322,-7.4272,-7.4221,-7.4221,-7.4221,-7.4221,-7.4221,-7.4221,-7.4221,-7.4221,-7.4221,-7.4221,-7.4221,-7.4221,-7.4221,-7.4221,-7.4221,-7.4221,-7.4221,-7.4221,-7.4221,-7.4221,-7.4221,-7.4089,-7.3343,-7.278,-7.2216,-7.1189,-7.056,-7.0129,-6.9864,-6.9798,-6.9798,-6.9798,-6.9798,-6.9798,-6.9798,-6.9434,-6.9003,-6.8738,-6.7943,-6.7148,-6.6618,-6.6154,-6.5724,-6.5459,-6.5425,-6.526,-6.4829,-6.3736,-6.2818,-6.2288,-6.1781,-6.1384,-6.1152,-6.1119,-6.1119,-6.1119,-6.1119,-6.092,-6.0423,-6.039,-6.0191,-5.9694,-5.9694,-5.9694,-5.9694,-5.9694,-5.9694,-5.9694,-5.9694,-5.9694,-5.9694,-6.0191,-6.039,-4.5834,-4.864,-5.1723,-5.3281,-5.5209,-5.6562,-5.5919,-5.6258,-5.6258,-5.4769,-5.3213,-5.2063,0.0,0.0,-5.23,-5.5987,-5.8592,-6.1197,-6.4174,-6.4647,-6.441,0.0,0.0,0.0,0.0,0.0,0.0,-6.8493,0.0,-6.9031,-6.9805,-7.166,-7.2868,-7.3057,-7.4344,-7.487,-7.4656,-7.4656,-7.4473,-7.4221,-7.4221,-7.4221,-7.4221,-7.4221,-7.4221,-7.4221,-7.4221,-7.4221,-7.4221,-7.4221,-7.4221,-7.4221,-7.4221,-7.4221,-7.4221,-7.4221,-7.4221,-7.4221,-7.4221,-7.4221,-7.4072,-7.3376,-7.3144,-7.2846,-7.1455,-7.0991,-7.0792,-7.0063,-6.9864,-6.9831,-6.9798,-6.9798,-6.9798,-6.9798,-6.9798,-6.9599,-6.8904,-6.8705,-6.8274,-6.6883,-6.6585,-6.6287,-6.5558,-6.5425,-6.5425,-6.5425,-6.4862,-6.3902,-6.252,-6.2288,-6.1947,-6.1251,-6.1152,-6.1152,-6.1119,-6.1119,-6.1119,-6.1119,-6.1119,-6.1119,-6.1119,-6.1119,-6.1119,-6.1119,-6.1119,-6.1119,-6.1119,-6.1119,-6.1119,-6.1119,-6.1119,-6.1119,-4.9535,-5.1864,-5.3973,-5.5551,-5.5987,-5.6089,-5.6461,-5.5818,-5.4735,-5.3213,-5.0845,-4.8714,0.0,0.0,0.0,-5.301,-5.7679,0.0,-6.4275,-6.5561,0.0,-6.4478,0.0,-6.4918,-6.4377,-6.5155,0.0,0.0,-6.8654,-6.9478,-7.0579,-7.2334,-7.3151,-7.282,-7.4359,-7.5082,-7.4919,-7.487,-7.4771,-7.4473,-7.4672,-7.4672,-7.4473,-7.4722,-7.4672,-7.4473,-7.4473,-7.4372,-7.4221,-7.4221,-7.4221,-7.4221,-7.4221,-7.4221,-7.4221,-7.4221,-7.4221,-7.4221,-7.4221,-7.4221,-7.4188,-7.3972,-7.3541,-7.3045,-7.2647,-7.215,-7.1554,-7.0825,-7.0626,-7.0494,-6.9931,-6.9798,-6.9798,-6.9798,-6.9798,-6.9732,-6.9566,-6.9069,-6.8572,-6.8208,-6.7247,-6.6287,-6.5558,-6.5425,-6.5425,-6.5425,-6.526,-6.4829,-6.3935,-6.3382,-6.2752,-6.198,-6.1914,-6.1682,-6.1152,-6.1119,-6.1119,-6.1119,-6.1119,-6.1119,-6.1119,-6.1119,-6.1119,-6.1119,-6.1119,-6.1119,-6.1119,-6.1119,-6.1119,-6.1119,-6.1119,-6.1119,-5.1749,-5.3667,-5.5279,-5.6499,-5.6494,-5.5953,-5.504,-5.3923,-5.23,-4.9492,-4.7056,0.0,0.0,0.0,0.0,0.0,0.0,0.0,-6.3666,-6.5121,-6.5662,0.0,-6.5425,0.0,-6.5121,-6.6034,-6.7151,0.0,-6.8842,-6.9542,-7.0558,-7.245,-7.3384,-7.3057,-7.4647,-7.5373,-7.5131,-7.5067,-7.4919,-7.4771,-7.4919,-7.4919,-7.4771,-7.4919,-7.4919,-7.4771,0.0,-7.4473,-7.4372,-7.4221,-7.4272,-7.4372,-7.4221,-7.4272,-7.4372,-7.4221,-7.4221,-7.4221,-7.4221,-7.4221,-7.4221,-7.4221,-7.3906,-7.3508,-7.321,-7.2813,-7.2349,-7.1587,-7.1156,-7.0792,-7.0394,-7.003,-6.9798,-6.9798,-6.9798,-6.9798,-6.9798,-6.9467,-6.9069,-6.8738,-6.7512,-6.6386,-6.5955,-6.5624,-6.5425,-6.5425,-6.5425,-6.526,-6.4895,-6.42,-6.3514,-6.2785,-6.2685,-6.251,-6.208,-6.2047,-6.2047,-6.2047,-6.1748,-6.1583,-6.1583,-6.1285,-6.1119,-6.1119,-6.1119,-6.1119,-6.1119,-6.1119,-6.1119,-6.1119,-6.1119,-6.1119,-5.3336,-5.4926,-5.6232,-5.6807,-5.6701,-5.575,-5.2807,-5.1352,-4.9424,-4.519,0.0,0.0,-4.0899,0.0,-4.4722,-4.9221,0.0,-5.8254,-6.2854,-6.414,-6.4918,-6.573,-6.5831,-6.5865,-6.5967,-6.7151,-6.8267,-6.918,-6.9248,-6.9553,-7.0297,-7.2326,-7.3578,-7.3781,-7.5033,-7.5614,-7.5373,-7.5179,-7.5067,-7.5067,-7.5067,-7.5067,-7.5067,-7.5067,-7.5067,-7.5018,0.0,0.0,-7.4656,-7.4423,-7.4423,-7.4606,-7.4322,-7.4372,-7.4523,-7.4272,-7.4221,-7.4221,-7.4221,-7.4221,-7.4221,-7.4221,-7.4221,-7.4089,-7.3442,-7.3243,-7.3078,-7.2349,-7.1686,-7.1156,-7.0958,-7.0428,-6.9931,-6.9798,-6.9798,-6.9798,-6.9798,-6.9798,-6.9566,-6.8837,-6.7678,-6.6751,-6.6552,-6.5989,-6.5525,-6.5425,-6.5425,-6.5425,-6.5425,-6.4895,-6.4233,-6.3547,-6.3448,-6.3372,-6.3315,-6.3315,-6.3315,-6.3315,-6.2719,-6.2354,-6.2354,-6.1715,-6.1384,-6.1384,-6.1384,-6.1384,-6.1384,-6.1384,-6.1384,-6.1384,-6.1384,-6.1384,-5.6113,-5.7455,-5.8159,-5.7737,-5.6304,-5.4329,-5.1961,-4.9424,0.0,0.0,0.0,-3.9343,-3.8599,-4.0663,0.0,-4.8477,0.0,0.0,0.0,0.0,-6.5087,0.0,0.0,0.0,0.0,0.0,0.0,0.0,0.0,-7.0331,-7.1075,-7.2631,-7.4052,-7.527,-7.5574,-7.5709,-7.5662,-7.5614,-7.547,-7.5228,-7.547,-7.547,-7.5277,-7.547,-7.547,-7.5228,0.0,0.0,-7.4919,-7.487,-7.4771,-7.4606,-7.4556,-7.4423,-7.4272,-7.4221,-7.4221,-7.4221,-7.4221,-7.4221,-7.4221,-7.4221,-7.4221,-7.4188,-7.4038,-7.4005,-7.384,-7.3111,-7.2813,-7.2448,-7.1223,-7.0792,-7.056,-6.9931,-6.9798,-6.9798,-6.9798,-6.9798,-6.9566,-6.8837,-6.8473,-6.7943,-6.6717,-6.6419,-6.6121,-6.5492,-6.5425,-6.5425,-6.5425,-6.5326,-6.4962,-6.4266,-6.4167,-6.3902,-6.3382,-6.3315,-6.3315,-6.3315,-6.3183,-6.3116,-6.3116,-6.3017,-6.2908,-6.2908,-6.2908,-6.2908,-6.2908,-6.2908,-6.2908,-6.2908,-6.2908,-6.2908,-5.739,-5.8384,-5.865,-5.7971,-5.6161,-5.3572,-4.9788,0.0,0.0,0.0,0.0,-3.6535,-3.6197,0.0,0.0,0.0,0.0,0.0,0.0,0.0,0.0,0.0,0.0,0.0,0.0,0.0,0.0,0.0,0.0,-7.0939,-7.1312,-7.2699,-7.4153,-7.5642,-7.5709,-7.5709,-7.5709,-7.5709,-7.5662,-7.5518,-7.5662,-7.5662,-7.5518,-7.5662,-7.5662,-7.5518,-7.5373,0.0,-7.5131,-7.5067,-7.4968,-7.4968,-7.487,-7.4722,-7.4622,-7.4473,-7.4322,-7.4221,-7.4221,-7.4221,-7.4221,-7.4221,-7.4221,-7.4221,-7.4221,-7.4221,-7.4155,-7.3773,-7.3409,-7.2945,-7.225,-7.1488,-7.0792,-7.0461,-7.0063,-6.9798,-6.9798,-6.9798,-6.9699,-6.9334,-6.8937,-6.8473,-6.7777,-6.7347,-6.685,-6.6088,-6.5989,-6.5856,-6.5459,-6.5425,-6.5293,-6.4962,-6.4895,-6.4763,-6.4432,-6.4399,-6.4399,-6.4399,-6.4034,-6.3835,-6.3879,-6.3514,-6.3315,-6.3315,-6.3315,-6.3315,-6.3315,-6.3315,-6.3315,-6.3315,-6.3315,-6.3358,-5.7942,-5.8798,-5.8831,-5.8154,-5.6128,-5.2946,-4.7914,-4.419,0.0,0.0,0.0,-3.4303,-3.4472,0.0,0.0,0.0,0.0,0.0,0.0,0.0,0.0,0.0,0.0,0.0,0.0,0.0,0.0,0.0,0.0,0.0,-7.1548,-7.2631,-7.3916,-7.5405,-7.5473,-7.554,-7.5709,-7.5709,-7.5709,-7.5709,-7.5709,-7.5709,-7.5709,-7.5709,-7.5709,-7.5709,-7.547,0.0,0.0,-7.5213,-7.5179,-7.5277,-7.5164,-7.5067,-7.4968,-7.4705,-7.4473,-7.4272,-7.4221,-7.4221,-7.4221,-7.4221,-7.4221,-7.4221,-7.4221,-7.4221,-7.4221,-7.4221,-7.3773,-7.331,-7.3144,-7.2117,-7.1057,-7.0726,-7.0229,-6.9798,-6.9798,-6.9798,-6.9798,-6.9798,-6.9334,-6.8871,-6.8705,-6.8241,-6.7612,-6.6883,-6.6618,-6.632,-6.5724,-6.5525,-6.5425,-6.5425,-6.5425,-6.5425,-6.5425,-6.5425,-6.5425,-6.5425,-6.4862,-6.4564,-6.4597,-6.4034,-6.3736,-6.3736,-6.3736,-6.3736,-6.3736,-6.3736,-6.3779,-6.3823,-6.3823,-6.3952,-5.78,-5.9067,-5.9514,-5.8801,-5.6034,-5.2274,-4.7679,0.0,0.0,0.0,-3.3998,-3.3728,-3.437,0.0,0.0,0.0,0.0,0.0,0.0,0.0,0.0,0.0,0.0,0.0,0.0,0.0,0.0,0.0,0.0,0.0,0.0,-7.2428,-7.3172,-7.4661,-7.4728,-7.5033,-7.5676,-7.5709,-7.5709,-7.5709,-7.5709,-7.5709,-7.5709,-7.5709,-7.5709,-7.5709,0.0,0.0,0.0,-7.5662,-7.5518,-7.5325,-7.5277,-7.5131,-7.4968,-7.4705,-7.4573,-7.4556,-7.4272,-7.4221,-7.4221,-7.4221,-7.4221,-7.4221,-7.4221,-7.4221,-7.4221,-7.4221,-7.4155,-7.3906,-7.3276,-7.2515,-7.1554,-7.0229,-6.9831,-6.9798,-6.9798,-6.9798,-6.9798,-6.9798,-6.9732,-6.9467,-6.8804,-6.8639,-6.8341,-6.7599,-6.6949,-6.6485,-6.6419,-6.5823,-6.5425,-6.5425,-6.5425,-6.5425,-6.5425,-6.5425,-6.5425,-6.5425,-6.5359,-6.5326,-6.5326,-6.526,-6.5227,-6.5227,-6.5227,-6.5227,-6.5227,-6.5227,-6.5315,-6.558,-6.558,-6.5667,-5.7043,-5.8635,-5.9401,-5.8244,-5.5537,-5.188,-4.7359,0.0,-3.83,-3.4919,-3.3087,-3.2442,-3.3626,-3.4709,0.0,0.0,0.0,0.0,0.0,0.0,0.0,0.0,0.0,0.0,0.0,0.0,0.0,0.0,0.0,0.0,0.0,-7.2563,-7.3544,-7.4593,-7.5033,-7.5405,-7.5709,-7.5709,-7.5709,-7.5709,-7.5709,-7.5709,-7.5709,-7.5709,-7.5709,-7.5709,0.0,0.0,0.0,-7.5709,-7.5662,-7.5566,-7.5566,-7.5373,-7.5131,-7.4919,-7.4722,-7.4556,-7.4272,-7.4221,-7.4221,-7.4221,-7.4221,-7.4221,-7.4221,-7.4221,-7.4221,-7.4221,-7.4221,-7.4155,-7.3807,-7.2879,-7.162,-7.0129,-6.9798,-6.9798,-6.9798,-6.9798,-6.9798,-6.9798,-6.9798,-6.9699,-6.9401,-6.9334,-6.9103,-6.8374,-6.8009,-6.7512,-6.6618,-6.6254,-6.5922,-6.5459,-6.5425,-6.5425,-6.5425,-6.5425,-6.5425,-6.5425,-6.5425,-6.5425,-6.5425,-6.5425,-6.5425,-6.5425,-6.5425,-6.5425,-6.5425,-6.5559,-6.5692,-6.578,-6.5955,-6.6129,-5.545,-5.7514,-5.8642,-5.7658,-5.4962,-5.1494,0.0,0.0,-3.7508,-3.4599,-3.2491,-3.1664,-3.3119,-3.3829,-3.5148,0.0,0.0,0.0,0.0,0.0,0.0,0.0,0.0,0.0,0.0,0.0,0.0,0.0,0.0,0.0,0.0,-7.2496,-7.351,-7.4255,-7.4762,-7.527,-7.5709,-7.5709,-7.5709,-7.5709,-7.5709,-7.5709,-7.5709,-7.5709,-7.5709,-7.5709,0.0,0.0,0.0,-7.5709,-7.5709,-7.5709,-7.5709,-7.5614,-7.5422,-7.5131,-7.4919,-7.4672,-7.4423,-7.4272,-7.4221,-7.4221,-7.4221,-7.4221,-7.4221,-7.4221,-7.4221,-7.4221,-7.4005,-7.3807,-7.3575,-7.2614,-7.1355,-7.0096,-6.9798,-6.9798,-6.9798,-6.9798,-6.9798,-6.9798,-6.9798,-6.9798,-6.9798,-6.9798,-6.9599,-6.9103,-6.8837,-6.8307,-6.7281,-6.6982,-6.6506,-6.5823,-6.5757,-6.5657,-6.5425,-6.5425,-6.5425,-6.5425,-6.5425,-6.5425,-6.5425,-6.5425,-6.5425,-6.5425,-6.5425,-6.547,-6.5514,-6.5692,-6.5867,-6.6032,-6.6172,-6.6345,-5.2878,-5.545,-5.7224,-5.7224,-5.4453,-5.0914,0.0,-4.2124,-3.6843,-3.4495,-3.2491,-3.1664,-3.3119,-3.3423,-3.4404,0.0,0.0,0.0,0.0,0.0,0.0,0.0,0.0,0.0,0.0,0.0,0.0,0.0,0.0,0.0,0.0,-7.2022,-7.2732,-7.3477,-7.351,-7.4221,-7.5676,-7.5709,-7.5709,-7.5709,-7.5709,-7.5709,-7.5709,-7.5709,-7.5709,0.0,0.0,0.0,0.0,-7.5709,-7.5709,-7.5709,-7.5709,-7.5709,-7.5662,-7.5422,-7.5179,-7.4968,-7.4672,-7.4423,-7.4221,-7.4221,-7.4221,-7.4221,-7.4221,-7.4221,-7.4221,-7.4221,-7.3674,-7.2945,-7.2216,-7.1455,-7.0726,-6.9964,-6.9798,-6.9798,-6.9798,-6.9798,-6.9798,-6.9798,-6.9798,-6.9798,-6.9798,-6.9798,-6.9798,-6.9765,-6.9169,-6.8672,-6.8672,-6.8042,-6.7347,-6.6585,-6.6519,-6.622,-6.5492,-6.5425,-6.5425,-6.5425,-6.5425,-6.5425,-6.5425,-6.5425,-6.5425,-6.5425,-6.5425,-6.5514,-6.578,-6.578,-6.6042,-6.6507,-6.6507,-6.6592,-4.8206,-5.0126,-5.1393,-5.085,-4.9436,-4.745,-4.4838,-4.1009,-3.7311,-3.4961,-3.2724,-3.1495,-3.2462,-3.3051,-3.4742,-3.8744,0.0,0.0,0.0,0.0,0.0,0.0,0.0,0.0,0.0,0.0,0.0,0.0,0.0,0.0,0.0,-7.1548,-7.1988,-7.2732,-7.3747,-7.4492,-7.4965,-7.5439,-7.5709,-7.5676,-7.5202,-7.4965,-7.4931,-7.4424,0.0,0.0,0.0,0.0,0.0,-7.5709,-7.5709,-7.5709,-7.5709,-7.5709,-7.5662,-7.5422,-7.5179,-7.4968,-7.4672,-7.4123,-7.3541,-7.4005,-7.384,-7.3541,-7.4038,-7.4221,-7.4221,-7.4221,-7.3674,-7.2945,-7.2183,-7.1455,-7.0693,-6.9964,-6.9798,-6.9798,-6.9798,-6.9798,-6.9798,-6.9798,-6.9798,-6.9798,-6.9798,-6.9798,-6.9798,-6.9798,-6.9599,-6.9268,-6.8738,-6.8506,-6.8076,-6.7347,-6.6817,-6.622,-6.5492,-6.5425,-6.5425,-6.5425,-6.5425,-6.5425,-6.5425,-6.5425,-6.5425,-6.5425,-6.5603,-6.5692,-6.578,-6.6119,-6.6421,-6.6686,-6.6686,-6.6728,0.0,-4.654,-4.788,-4.7373,-4.6395,-4.5055,-4.2918,-3.9889,-3.6908,-3.4854,-3.2817,-3.1628,-3.2397,-3.2768,-3.4167,-3.7797,0.0,0.0,0.0,0.0,0.0,0.0,0.0,0.0,0.0,0.0,0.0,0.0,0.0,0.0,0.0,0.0,-7.1515,-7.1988,-7.3172,-7.4052,-7.4593,-7.5067,-7.5439,-7.5676,-7.5236,-7.4864,-7.4593,-7.439,0.0,0.0,0.0,0.0,0.0,-7.5709,-7.5709,-7.5709,-7.5709,-7.5709,-7.5709,-7.5518,-7.5325,-7.5115,-7.4919,-7.4205,-7.3459,-7.414,-7.3774,-7.3144,-7.331,-7.3541,-7.3707,-7.3442,-7.2846,-7.215,-7.1686,-7.1024,-7.0361,-6.9898,-6.9798,-6.9798,-6.9798,-6.9798,-6.9798,-6.9798,-6.9798,-6.9798,-6.9798,-6.9798,-6.9798,-6.9798,-6.9798,-6.9633,-6.9169,-6.9103,-6.8837,-6.8109,-6.7704,-6.7185,-6.6422,-6.5858,-6.5603,-6.5658,-6.5658,-6.5658,-6.5658,-6.5658,-6.5658,-6.5658,-6.5824,-6.5955,-6.6042,-6.6464,-6.6643,-6.6812,-6.6812,-6.6812,0.0,-4.4041,-4.5816,-4.5743,-4.4657,-4.3172,-4.1632,-3.8708,0.0,-3.4277,-3.2739,-3.1954,-3.2796,-3.2622,-3.3152,-3.56,0.0,0.0,0.0,0.0,0.0,0.0,0.0,0.0,0.0,0.0,0.0,0.0,0.0,0.0,0.0,0.0,-7.1312,-7.1312,-7.1954,-7.3003,-7.4458,-7.4559,-7.4965,-7.5608,-7.5608,-7.527,-7.4627,-7.527,0.0,0.0,0.0,0.0,0.0,-7.5709,-7.5709,-7.5676,-7.5642,-7.5642,-7.5676,-7.5642,-7.545,-7.5325,-7.5325,-7.4594,-7.3815,-7.4238,-7.3791,-7.2912,-7.215,-7.2448,-7.2879,-7.2183,-7.1455,-7.0891,-7.0891,-7.0361,-6.9798,-6.9798,-6.9798,-6.9798,-6.9798,-6.9798,-6.9798,-6.9798,-6.9798,-6.9798,-6.9798,-6.9798,-6.9798,-6.9798,-6.9798,-6.9798,-6.9798,-6.9798,-6.9533,-6.8884,-6.8971,-6.8857,-6.8202,-6.6757,-6.5978,-6.6162,-6.6129,-6.6095,-6.6095,-6.6095,-6.6095,-6.6095,-6.6095,-6.6259,-6.6507,-6.6686,-6.6812,-6.6812,-6.6812,-6.6812,-3.6073,0.0,-3.9079,-3.8464,-3.85,-3.8408,0.0,-3.6281,0.0,0.0,0.0,0.0,0.0,0.0,0.0,0.0,0.0,0.0,0.0,0.0,0.0,0.0,0.0,0.0,0.0,0.0,0.0,0.0,0.0,0.0,0.0,0.0,-7.1312,-7.1312,-7.1481,-7.2022,-7.2902,-7.4052,-7.4695,-7.4864,-7.4864,-7.4796,-7.4593,-7.4187,0.0,0.0,0.0,0.0,-7.5709,-7.5709,-7.5709,-7.5642,-7.51,-7.5202,-7.5642,-7.5067,-7.5046,-7.5325,-7.5325,-7.4258,-7.2878,-7.2271,-7.2293,-7.2395,-7.1437,-7.1686,-7.2216,-7.2051,-7.1455,-7.0891,-7.0891,-7.0361,-6.9798,-6.9798,-6.9798,-6.9798,-6.9798,-6.9798,-6.9798,-6.9798,-6.9798,-6.9798,-6.9798,-6.9798,-6.9798,-6.9798,-6.9798,-6.9798,-6.9798,-6.9798,-6.9827,-6.9849,-6.941,-6.9194,-6.9357,-6.7848,-6.6922,-6.6933,-6.6397,-6.6095,-6.6095,-6.6095,-6.6095,-6.6095,-6.6302,-6.6473,-6.6728,-6.677,-6.6812,-6.6812,-6.6812,-6.6812,-3.3284,-3.5457,-3.7466,-3.7015,-3.7232,-3.7357,0.0,0.0,0.0,0.0,0.0,0.0,0.0,0.0,0.0,0.0,0.0,0.0,0.0,0.0,0.0,0.0,0.0,0.0,0.0,0.0,0.0,0.0,0.0,0.0,0.0,0.0,-7.1312,-7.1312,-7.1312,-7.165,-7.2394,-7.3206,-7.3781,-7.4086,-7.4086,-7.3916,-7.3612,-7.351,0.0,0.0,0.0,0.0,-7.4695,-7.4695,-7.4695,-7.4627,-7.4255,-7.4322,-7.4627,-7.4255,-7.4262,-7.4506,-7.4506,-7.3777,-7.27,-7.1486,-7.1512,-7.1885,-7.0975,-7.0995,-7.128,-7.1039,-7.0693,-7.0394,-7.0394,-7.0192,-6.9941,-6.9846,-6.9893,-6.9941,-6.9846,-6.9798,-6.9798,-6.9798,-6.9798,-6.9846,-6.9941,-6.9988,-7.0035,-7.0129,-7.0096,-7.0096,-7.0096,-7.0096,-7.0176,-7.0316,-7.0088,-7.0038,-7.0265,-6.9267,-6.8247,-6.754,-6.6834,-6.6397,-6.6397,-6.6397,-6.6397,-6.6397,-6.6558,-6.6686,-6.6812,-6.6812,-6.6812,-6.6812,-6.6812,-6.6812,-3.2234,-3.524,-3.7937,-3.7575,-3.7756,-3.7792,0.0,0.0,0.0,0.0,0.0,0.0,0.0,0.0,0.0,0.0,0.0,0.0,0.0,0.0,0.0,0.0,0.0,0.0,0.0,0.0,0.0,0.0,0.0,0.0,0.0,0.0,0.0,-7.1312,-7.1312,-7.1616,-7.2225,-7.2326,-7.2699,-7.3308,-7.3443,-7.3172,-7.2597,-7.3206,-7.3138,0.0,0.0,0.0,-7.3477,-7.3477,-7.3477,-7.3477,-7.3375,-7.3375,-7.3477,-7.3341,-7.3375,-7.3477,-7.3341,-7.3169,-7.278,-7.1354,-7.1136,-7.1352,-7.0716,-7.0515,-7.0423,-7.0002,-6.9893,-6.9893,-6.9893,-7.0082,-7.0176,-6.9988,-7.0082,-7.0176,-6.9988,-6.9893,-6.9893,-6.9893,-6.9893,-6.9988,-7.0223,-7.0223,-7.0316,-7.0469,-7.0515,-7.0515,-7.0515,-7.0515,-7.0515,-7.0561,-7.0779,-7.0916,-7.0961,-7.0467,-6.962,-6.8335,-6.7455,-6.6914,-6.6812,-6.6812,-6.6812,-6.6812,-6.6812,-6.6812,-6.6812,-6.6812,-6.6812,-6.6812,-6.6812,-6.6812,-3.3465,-3.5675,-3.6705,-3.4661,-3.5675,-3.6814,0.0,0.0,0.0,0.0,0.0,0.0,0.0,0.0,0.0,0.0,0.0,0.0,0.0,0.0,0.0,0.0,0.0,0.0,0.0,0.0,0.0,0.0,0.0,0.0,0.0,0.0,0.0,-7.1312,-7.1312,-7.1379,-7.1481,-7.209,-7.2462,-7.2563,-7.3206,-7.3443,-7.3308,-7.3443,-7.3443,0.0,0.0,-7.3477,-7.3477,-7.3477,-7.3477,-7.3443,-7.28,-7.2935,-7.3409,-7.28,-7.2969,-7.3409,-7.28,-7.2518,-7.2337,-7.1231,-7.0938,-7.0913,-7.0595,-7.0515,-7.0469,-7.0423,-7.0376,-7.0376,-7.0376,-7.0423,-7.0423,-7.0376,-7.0423,-7.0423,-7.0376,-7.0376,-7.0376,-7.0376,-7.0376,-7.0423,-7.0423,-7.0423,-7.0469,-7.0515,-7.0515,-7.0515,-7.0515,-7.0515,-7.0561,-7.0825,-7.087,-7.0961,-7.1222,-7.0635,-7.0094,-6.9857,-6.8504,-6.7455,-6.6846,-6.6812,-6.6812,-6.6812,-6.6812,-6.6812,-6.6812,-6.6812,-6.6812,-6.6812,-6.6812,-6.6812,-3.2125,-3.4154,-3.5639,-3.5401,-3.6938,0.0,0.0,0.0,0.0,0.0,0.0,0.0,0.0,0.0,0.0,0.0,0.0,0.0,0.0,0.0,0.0,0.0,0.0,0.0,0.0,0.0,0.0,0.0,0.0,0.0,0.0,0.0,0.0,0.0,-7.0703,-7.0906,-7.1312,-7.165,-7.1819,-7.1819,-7.2157,-7.2326,-7.2326,-7.2326,-7.2326,-7.2326,0.0,-7.2326,-7.2326,-7.2326,-7.2326,-7.2293,-7.1954,-7.2022,-7.2259,-7.1921,-7.1751,-7.1718,-7.1785,-7.1819,-7.1706,-7.1278,-7.1131,-7.1098,-7.0961,-7.0916,-7.0916,-7.0916,-7.0699,-7.0515,-7.0515,-7.0608,-7.0654,-7.0515,-7.0608,-7.0687,-7.0515,-7.0515,-7.0515,-7.0515,-7.0515,-7.0561,-7.0654,-7.0733,-7.0779,-7.0916,-7.0916,-7.0916,-7.0916,-7.0916,-7.0961,-7.1131,-7.1131,-7.1176,-7.1267,-7.1007,-7.0263,-6.9045,-6.8301,-6.7557,-6.6846,-6.6812,-6.6812,-6.6812,-6.6812,-6.6812,-6.6812,-6.6812,-6.6812,-6.6812,-6.6812,-6.6812,-3.151,-3.3067,-3.4806,0.0,0.0,0.0,0.0,0.0,0.0,0.0,0.0,0.0,0.0,0.0,0.0,0.0,0.0,0.0,0.0,0.0,0.0,0.0,0.0,0.0,0.0,0.0,0.0,0.0,0.0,0.0,0.0,0.0,0.0,0.0,-6.9925,-7.0297,-7.1041,-7.1041,-7.1142,-7.1312,-7.1312,-7.1312,-7.1312,-7.1312,-7.1312,-7.1312,-7.1312,-7.1312,-7.1312,-7.1312,-7.1312,-7.1312,-7.1312,-7.121,-7.1075,-7.1244,-7.0838,-7.0297,-7.1041,-7.1312,-7.1312,-7.1312,-7.1312,-7.1312,-7.1312,-7.1312,-7.1312,-7.1312,-7.1007,-7.0687,-7.0687,-7.0825,-7.0916,-7.0733,-7.087,-7.0916,-7.0733,-7.0687,-7.0687,-7.0687,-7.0687,-7.0779,-7.0961,-7.0961,-7.1052,-7.1267,-7.1312,-7.1312,-7.1312,-7.1312,-7.1312,-7.1312,-7.1312,-7.1312,-7.1312,-7.1312,-7.05,-6.8571,-6.8098,-6.7557,-6.6846,-6.6812,-6.6812,-6.6812,-6.6812,-6.6812,-6.6812,-6.6812,-6.6812,-6.6812,-6.6812,-6.6812,-3.3719,-3.3936,-3.4226,0.0,0.0,0.0,0.0,0.0,0.0,0.0,0.0,0.0,0.0,0.0,0.0,0.0,0.0,0.0,0.0,0.0,0.0,0.0,0.0,0.0,0.0,0.0,0.0,0.0,0.0,0.0,0.0,0.0,0.0,0.0,0.0,-6.9519,-7.0263,-7.0263,-7.0635,-7.1312,-7.1312,-7.1312,-7.1312,-7.1312,-7.1312,-7.1312,-7.1312,-7.1312,-7.1312,-7.1312,-7.1312,-7.1312,-7.1312,-7.0872,-7.0364,-7.1075,-7.0838,-7.0297,-7.1041,-7.1312,-7.1312,-7.1312,-7.1312,-7.1312,-7.1312,-7.1312,-7.1312,-7.1312,-7.1267,-7.1222,-7.1222,-7.1267,-7.1267,-7.1267,-7.1267,-7.1267,-7.1267,-7.1222,-7.1222,-7.1222,-7.1222,-7.1267,-7.1267,-7.1267,-7.1267,-7.1312,-7.1312,-7.1312,-7.1312,-7.1312,-7.1312,-7.1312,-7.1312,-7.1312,-7.1312,-7.1312,-7.0939,-7.0094,-6.8673,-6.7557,-6.6846,-6.6812,-6.6812,-6.6812,-6.6812,-6.6812,-6.6812,-6.6812,-6.6812,-6.6812,-6.6812,-6.6812,-3.285,-3.3973,0.0,0.0,0.0,0.0,0.0,0.0,0.0,0.0,0.0,0.0,0.0,0.0,0.0,0.0,0.0,0.0,0.0,0.0,0.0,0.0,0.0,0.0,0.0,0.0,0.0,0.0,0.0,0.0,0.0,0.0,0.0,0.0,0.0,-6.8741,-6.9519,-6.9519,-6.9891,-7.0635,-7.1075,-7.1312,-7.1312,-7.1312,-7.1312,-7.1312,-7.1312,-7.1312,-7.1312,-7.1312,-7.1312,-7.1312,-7.1312,-7.0838,-7.0297,-7.1041,-7.0838,-7.0297,-7.1041,-7.1007,-7.0601,-7.0601,-7.0297,-6.9925,-6.9925,-7.0263,-7.0601,-7.0601,-7.0939,-7.1312,-7.1312,-7.1312,-7.1312,-7.1312,-7.1312,-7.1312,-7.1312,-7.1312,-7.1312,-7.1312,-7.1312,-7.1312,-7.1312,-7.1312,-7.1312,-7.1312,-7.1312,-7.1312,-7.1312,-7.1312,-7.1312,-7.1312,-7.1312,-7.1312,-7.1312,-7.1312,-7.1007,-7.0229,-6.9214,-6.8301,-6.7523,-6.7049,-6.6812,-6.6812,-6.6812,-6.6812,-6.6812,-6.6812,-6.6812,-6.6812,-6.6812,-6.6812,-3.2529,-3.3676,0.0,0.0,0.0,0.0,0.0,0.0,0.0,0.0,0.0,0.0,0.0,0.0,0.0,0.0,0.0,0.0,0.0,0.0,0.0,0.0,0.0,0.0,0.0,0.0,0.0,0.0,0.0,0.0,0.0,0.0,0.0,0.0,0.0,0.0,-6.8707,-6.8707,-6.9113,-6.9857,-7.0364,-7.0872,-7.1312,-7.1312,-7.1312,-7.1312,-7.1312,-7.1312,-7.1312,-7.1312,-7.1312,-7.1312,-7.1312,-7.0838,-7.0297,-7.1041,-7.0838,-7.0297,-7.1041,-7.0973,-7.05,-7.0263,-6.9857,-6.9417,-6.918,-6.962,-7.0195,-7.0195,-7.0737,-7.1312,-7.1312,-7.1312,-7.1312,-7.1312,-7.1312,-7.1312,-7.1312,-7.1312,-7.1312,-7.1312,-7.1312,-7.1312,-7.1312,-7.1312,-7.1312,-7.1312,-7.1312,-7.1312,-7.1312,-7.1312,-7.1312,-7.1312,-7.1312,-7.1312,-7.1312,-7.1312,-7.1007,-7.0229,-6.9519,-6.8741,-6.7929,-6.7184,-6.6812,-6.6812,-6.6812,-6.6812,-6.6812,-6.6812,-6.6812,-6.6812,-6.6812,-6.6812,-3.3194,-3.307,0.0,0.0,0.0,0.0,0.0,0.0,0.0,0.0,0.0,0.0,0.0,0.0,0.0,0.0,0.0,0.0,0.0,0.0,0.0,0.0,0.0,0.0,0.0,0.0,0.0,0.0,0.0,0.0,0.0,0.0,0.0,0.0,0.0,0.0,-6.7895,-6.7895,-6.8301,-6.9079,-6.9079,-6.9857,-7.1312,-7.1312,-7.1312,-7.1312,-7.1312,-7.1312,-7.1312,-7.1312,-7.1312,-7.1312,-7.1312,-7.0838,-7.0297,-7.1041,-7.0838,-7.0297,-7.1075,-7.1312,-7.1176,-7.0432,-7.0161,-7.0026,-6.9316,-6.9586,-7.0161,-7.0161,-7.0703,-7.1312,-7.1312,-7.1312,-7.1312,-7.1312,-7.1312,-7.1312,-7.1312,-7.1312,-7.1312,-7.1312,-7.1312,-7.1312,-7.1312,-7.1312,-7.1312,-7.1312,-7.1312,-7.1312,-7.1312,-7.1312,-7.1312,-7.1312,-7.1312,-7.1312,-7.1312,-7.1312,-7.0973,-7.0229,-6.9485,-6.8741,-6.7929,-6.7184,-6.6812,-6.6812,-6.6812,-6.6812,-6.6812,-6.6812,-6.6812,-6.6812,-6.6812,-6.6812,-3.2796,0.0,0.0,0.0,0.0,0.0,0.0,0.0,0.0,0.0,0.0,0.0,0.0,0.0,0.0,0.0,0.0,0.0,0.0,0.0,0.0,0.0,0.0,0.0,0.0,0.0,0.0,0.0,0.0,0.0,0.0,0.0,0.0,0.0,0.0,0.0,-6.7117,-6.7151,-6.7523,-6.8267,-6.8267,-6.8774,-6.9755,-6.9755,-6.9755,-6.9755,-6.9755,-6.9755,-6.9755,-6.9755,-7.006,-7.0534,-7.0534,-7.0703,-7.1007,-7.1244,-7.1176,-7.1007,-7.1244,-7.0973,-7.0466,-7.0263,-6.9451,-6.8538,-6.8335,-6.8402,-6.8571,-6.8571,-6.9519,-7.0534,-7.0534,-7.0906,-7.1312,-7.1312,-7.1312,-7.1312,-7.1312,-7.1312,-7.1312,-7.1312,-7.1312,-7.1312,-7.1312,-7.1312,-7.1312,-7.1312,-7.1312,-7.1312,-7.1312,-7.1312,-7.1312,-7.1312,-7.1312,-7.1312,-7.1312,-7.0838,-7.0432,-7.0195,-6.8977,-6.8166,-6.7895,-6.7184,-6.6812,-6.6812,-6.6812,-6.6812,-6.6812,-6.6812,-6.6812,-6.6812,-6.6812,-6.6812,-3.3929,0.0,0.0,0.0,0.0,0.0,0.0,0.0,0.0,0.0,0.0,0.0,0.0,0.0,0.0,0.0,0.0,0.0,0.0,0.0,0.0,0.0,0.0,0.0,0.0,0.0,0.0,0.0,0.0,0.0,0.0,0.0,0.0,0.0,0.0,0.0,-6.6812,-6.6812,-6.7015,-6.7455,-6.7455,-6.7726,-6.8233,-6.8808,-6.9113,-6.9113,-6.9113,-6.9113,-6.9113,-6.9113,-6.935,-6.9755,-6.9755,-7.0026,-7.0432,-7.0432,-7.0432,-7.0466,-7.077,-7.0567,-7.0195,-7.0195,-6.935,-6.8335,-6.7996,-6.7895,-6.7895,-6.7895,-6.9011,-7.0195,-7.0195,-7.0737,-7.1312,-7.1312,-7.1312,-7.1312,-7.1312,-7.1312,-7.1312,-7.1312,-7.1312,-7.1312,-7.1312,-7.1312,-7.1312,-7.1312,-7.1312,-7.1312,-7.1312,-7.1312,-7.1312,-7.1312,-7.1041,-7.0872,-7.0872,-7.0195,-6.962,-6.9316,-6.8402,-6.776,-6.7489,-6.7049,-6.6812,-6.6812,-6.6812,-6.6812,-6.6812,-6.6812,-6.6812,-6.6812,-6.6812,-6.6812,0.0,0.0,0.0,0.0,0.0,0.0,0.0,0.0,0.0,0.0,0.0,0.0,0.0,0.0,0.0,0.0,0.0,0.0,0.0,0.0,0.0,0.0,0.0,0.0,0.0,0.0,0.0,0.0,0.0,0.0,0.0,0.0,0.0,0.0,0.0,0.0,-6.6711,-6.6711,-6.6745,0.0,-6.6812,-6.6812,-6.688,-6.8267,-6.8876,-6.8876,-6.8876,-6.8876,-6.8876,-6.8876,-6.8944,-6.8977,-6.8977,-6.9045,-6.9113,-6.9113,-6.9113,-6.9214,-6.9857,-7.0094,-7.0094,-7.0094,-6.9586,-6.8842,-6.8132,-6.7861,-6.7793,-6.7793,-6.8842,-6.9992,-6.9992,-7.0534,-7.1109,-7.1109,-7.121,-7.1312,-7.1312,-7.1312,-7.1312,-7.1312,-7.1312,-7.1312,-7.1312,-7.1312,-7.1312,-7.1312,-7.1312,-7.1312,-7.1312,-7.1312,-7.1278,-7.121,-7.0601,-7.0161,-7.0094,-6.9417,-6.8673,-6.7963,-6.7827,-6.7489,-6.6846,-6.6812,-6.6812,-6.6812,-6.6812,-6.6812,-6.6812,-6.6812,-6.6812,-6.6812,-6.6812,-6.6812,0.0,0.0,0.0,0.0,0.0,0.0,0.0,0.0,0.0,0.0,0.0,0.0,0.0,0.0,0.0,0.0,0.0,0.0,0.0,0.0,0.0,0.0,0.0,0.0,0.0,0.0,0.0,0.0,0.0,0.0,0.0,0.0,0.0,0.0,0.0,-6.5358,-6.5933,-6.5933,-6.6237,0.0,-6.6812,-6.6812,-6.6812,-6.7151,-6.732,-6.732,-6.732,-6.732,-6.732,-6.732,-6.7658,-6.8166,-6.8166,-6.8538,-6.9113,-6.9113,-6.9113,-6.9113,-6.9282,-6.935,-6.935,-6.935,-6.8808,-6.8132,-6.7963,-6.7489,-6.7049,-6.7049,-6.7692,-6.8402,-6.8402,-6.8977,-6.9586,-6.9586,-7.0466,-7.1312,-7.1312,-7.1312,-7.1312,-7.1312,-7.1312,-7.1312,-7.1312,-7.1312,-7.1312,-7.1312,-7.1312,-7.1312,-7.1312,-7.1312,-7.1075,-7.05,-7.0297,-6.9958,-6.9383,-6.8605,-6.8098,-6.7895,-6.7354,-6.6981,-6.6812,-6.6812,-6.6812,-6.6812,-6.6812,-6.6812,-6.6812,-6.6812,-6.6812,-6.6812,-6.6812,-6.6812,0.0,0.0,0.0,0.0,0.0,0.0,0.0,0.0,0.0,0.0,0.0,0.0,0.0,0.0,0.0,0.0,0.0,0.0,0.0,0.0,0.0,0.0,0.0,0.0,0.0,0.0,0.0,0.0,0.0,0.0,0.0,0.0,0.0,0.0,-6.4613,-6.4783,-6.5155,-6.5155,-6.5358,-6.5764,-6.5764,-6.5933,-6.6305,-6.6643,-6.6812,-6.6812,-6.6812,-6.6812,-6.6812,-6.6812,-6.7049,-6.7387,-6.7387,-6.7624,-6.7996,-6.7996,-6.7996,-6.8064,-6.8402,-6.8538,-6.8605,-6.8977,-6.8571,-6.7895,-6.7895,-6.7387,-6.6812,-6.6812,-6.7354,-6.7895,-6.7895,-6.8504,-6.9113,-6.9113,-6.9958,-7.077,-7.077,-7.1075,-7.1312,-7.1312,-7.1312,-7.1312,-7.1312,-7.1312,-7.1312,-7.1312,-7.1312,-7.1176,-7.0804,-7.077,-7.05,-6.9755,-6.9316,-6.8944,-6.8571,-6.7827,-6.7387,-6.7387,-6.7015,-6.6812,-6.6812,-6.6812,-6.6812,-6.6812,-6.6812,-6.6812,-6.6812,-6.6812,-6.6812,-6.6812,-6.6812,-6.6812,0.0,0.0,0.0,0.0,0.0,0.0,0.0,0.0,0.0,0.0,0.0,0.0,0.0,0.0,0.0,0.0,0.0,0.0,0.0,0.0,0.0,0.0,0.0,0.0,0.0,0.0,0.0,0.0,0.0,0.0,0.0,0.0,-6.3599,-6.4208,-6.4208,-6.4275,-6.441,-6.441,-6.4478,-6.4613,-6.4613,-6.4918,-6.5527,-6.6136,-6.6576,-6.6812,-6.6812,-6.6812,-6.6812,-6.6812,-6.6812,-6.6812,-6.6812,-6.6812,-6.6812,-6.6812,-6.6812,-6.6914,-6.7489,-6.7726,-6.7827,-6.8504,-6.8267,-6.7726,-6.7726,-6.7286,-6.6812,-6.6812,-6.7252,-6.7726,-6.7726,-6.8199,-6.8707,-6.8707,-6.9248,-6.9823,-6.9958,-7.05,-7.0939,-7.0939,-7.0939,-7.0939,-7.0939,-7.0939,-7.0939,-7.0939,-7.0939,-7.0703,-7.0094,-6.9992,-6.9722,-6.8977,-6.8301,-6.7861,-6.7726,-6.7151,-6.6812,-6.6812,-6.6812,-6.6812,-6.6812,-6.6812,-6.6812,-6.6812,-6.6812,-6.6812,-6.6812,-6.6812,-6.6812,-6.6812,-6.6812,-6.6812,0.0,0.0,0.0,0.0,0.0,0.0,0.0,0.0,0.0,0.0,0.0,0.0,0.0,0.0,0.0,0.0,0.0,0.0,0.0,0.0,0.0,0.0,0.0,0.0,0.0,0.0,0.0,0.0,0.0,0.0,0.0,-6.255,-6.2584,-6.2685,-6.2685,-6.299,-6.3666,-6.3666,-6.3971,-6.4613,-6.4613,-6.4647,-6.4749,-6.485,-6.5595,-6.6812,-6.6812,-6.6812,-6.6812,-6.6812,-6.6812,-6.6812,-6.6812,-6.6812,-6.6812,-6.6812,-6.6812,-6.6812,-6.6914,-6.6948,-6.6981,-6.7083,-6.7049,-6.6948,-6.6948,-6.688,-6.6812,-6.6812,-6.688,-6.6948,-6.6948,-6.7049,-6.7117,-6.7117,-6.7658,-6.8402,-6.9113,-6.9316,-6.9383,-6.9383,-6.9383,-6.9383,-6.9383,-6.9383,-6.9383,-6.9383,-6.9383,-6.935,-6.9248,-6.9248,-6.8944,-6.8132,-6.7963,-6.7658,-6.7015,-6.688,-6.6812,-6.6812,-6.6812,-6.6812,-6.6812,-6.6812,-6.6812,-6.6812,-6.6812,-6.6812,-6.6812,-6.6812,-6.6812,-6.6812,-6.6812,-6.6812,0.0,0.0,0.0,0.0,0.0,0.0,0.0,0.0,0.0,0.0,0.0,0.0,0.0,0.0,0.0,0.0,0.0,0.0,0.0,0.0,0.0,0.0,0.0,0.0,0.0,0.0,0.0,0.0,0.0,0.0,-6.2381,-6.2381,-6.2381,-6.2381,-6.2381,0.0,-6.2888,-6.2888,-6.3057,-6.3362,-6.3362,-6.3565,-6.4005,-6.4005,-6.458,-6.5561,-6.5561,-6.5561,-6.5595,-6.6,-6.617,-6.6203,-6.6643,-6.6812,-6.6812,-6.6812,-6.6812,-6.6812,-6.6812,-6.6812,-6.6812,-6.6812,-6.6812,-6.6812,-6.6812,-6.6812,-6.6812,-6.6812,-6.6812,-6.6812,-6.6812,-6.6812,-6.6812,-6.6812,-6.7049,-6.7387,-6.7726,-6.8504,-6.9113,-6.9113,-6.9113,-6.9113,-6.9113,-6.9113,-6.9113,-6.9113,-6.9113,-6.8944,-6.8504,-6.8436,-6.8132,-6.7387,-6.7286,-6.7151,-6.6846,-6.6812,-6.6812,-6.6812,-6.6812,-6.6812,-6.6812,-6.6812,-6.6812,-6.6812,-6.6812,-6.6812,-6.6812,-6.6812,-6.6812,-6.6812,-6.6812,-6.6812,0.0,0.0,0.0,0.0,0.0,0.0,0.0,0.0,0.0,0.0,0.0,0.0,0.0,0.0,0.0,0.0,0.0,0.0,0.0,0.0,0.0,0.0,0.0,0.0,0.0,0.0,0.0,0.0,0.0,0.0,-6.1772,-6.1806,-6.1806,-6.1806,-6.2009,-6.211,-6.211,-6.2313,-6.2381,-6.2381,-6.2381,-6.2685,-6.3226,-6.3226,-6.3531,-6.4072,-6.4444,-6.4613,-6.4647,-6.5189,-6.5425,-6.5493,-6.6237,-6.6406,-6.6271,-6.644,-6.6406,-6.6271,-6.6474,-6.6542,-6.6542,-6.6745,-6.6812,-6.6812,-6.6812,-6.6812,-6.6812,-6.6812,-6.6812,-6.6812,-6.6812,-6.6812,-6.6812,-6.6812,-6.6812,-6.6812,-6.6812,-6.7726,-6.8538,-6.8538,-6.8538,-6.8538,-6.8538,-6.8538,-6.8538,-6.8538,-6.8538,-6.8301,-6.7692,-6.7624,-6.7421,-6.688,-6.6812,-6.6812,-6.6812,-6.6812,-6.6812,-6.6812,-6.6812,-6.6812,-6.6812,-6.6812,-6.6812,-6.6812,-6.6812,-6.6812,-6.6812,-6.6812,-6.6812,-6.6812,-6.6812,-6.6812,0.0,0.0,0.0,0.0,0.0,0.0,0.0,0.0,0.0,0.0,0.0,0.0,0.0,0.0,0.0,0.0,0.0,0.0,0.0,0.0,0.0,0.0,0.0,0.0,0.0,0.0,0.0,0.0,0.0,0.0,-6.0216,-6.0216,-6.0216,-6.0216,-6.096,-6.1366,-6.1366,-6.2042,-6.2381,-6.2381,-6.2381,-6.2415,-6.2448,-6.2448,-6.2482,-6.2584,-6.4005,-6.4613,-6.4613,-6.4647,-6.4647,-6.4715,-6.5459,-6.5324,-6.4783,-6.5493,-6.529,-6.4816,-6.5493,-6.5764,-6.5865,-6.6576,-6.6812,-6.6812,-6.6812,-6.6812,-6.6812,-6.6812,-6.6812,-6.6812,-6.6812,-6.6812,-6.6812,-6.6812,-6.6812,-6.6812,-6.6812,-6.688,-6.6948,-6.6948,-6.6948,-6.6948,-6.6948,-6.6948,-6.6948,-6.6948,-6.6948,-6.6914,-6.688,-6.688,-6.6846,-6.6812,-6.6812,-6.6812,-6.6812,-6.6812,-6.6812,-6.6812,-6.6812,-6.6812,-6.6812,-6.6812,-6.6812,-6.6812,-6.6812,-6.6812,-6.6812,-6.6812,-6.6812,-6.6812,-6.6812,-6.6812,0.0,0.0,0.0,0.0,0.0,0.0,0.0,0.0,0.0,0.0,0.0,0.0,0.0,0.0,0.0,0.0,0.0,0.0,0.0,0.0,0.0,0.0,0.0,0.0,0.0,0.0,0.0,0.0,0.0,0.0,-6.008,-6.0114,-6.0114,-6.0114,-6.0385,-6.0791,-6.1298,-6.1569,-6.1907,-6.2381,-6.2381,-6.2381,-6.2381,-6.2381,-6.2381,-6.2415,-6.2956,-6.3193,-6.3226,-6.37,-6.3903,-6.3971,-6.4715,-6.4816,-6.4647,-6.4884,-6.4816,-6.4647,-6.4884,-6.529,-6.573,-6.6,-6.6406,-6.6812,-6.6812,-6.6812,-6.6812,-6.6812,-6.6812,-6.6812,-6.6812,-6.6812,-6.6812,-6.6812,-6.6812,-6.6812,-6.6812,-6.6812,-6.6812,-6.6812,-6.6812,-6.6812,-6.6812,-6.6812,-6.6643,-6.617,-6.6508,-6.6643,-6.6136,-6.6508,-6.6812,-6.6812,-6.6812,-6.6812,-6.6812,-6.6812,-6.6812,-6.6812,-6.6812,-6.6812,-6.6812,-6.6812,-6.6812,-6.6812,-6.6812,-6.6812,-6.6812,-6.6812,-6.6812,-6.6812,-6.6812,-6.6812,0.0,0.0,0.0,0.0,0.0,0.0,0.0,0.0,0.0,0.0,0.0,0.0,0.0,0.0,0.0,0.0,0.0,0.0,0.0,0.0,0.0,0.0,0.0,0.0,0.0,0.0,0.0,0.0,0.0,0.0,-5.9336,-5.937,-5.9471,-5.9708,-5.9742,-6.0114,-6.0892,-6.0892,-6.1129,-6.1637,-6.1907,-6.2009,-6.2042,-6.2279,-6.2381,-6.2381,-6.2381,-6.2381,-6.2415,-6.2922,-6.3125,-6.3193,-6.3937,-6.4072,-6.3903,-6.414,-6.4072,-6.3903,-6.414,-6.4715,-6.5358,-6.5595,-6.6203,-6.6812,-6.6812,-6.6812,-6.6812,-6.6812,-6.6812,-6.6812,-6.6812,-6.6812,-6.6812,-6.6812,-6.6812,-6.6812,-6.6812,-6.6812,-6.6812,-6.6812,-6.6812,-6.6812,-6.6812,-6.6812,-6.6643,-6.6136,-6.6508,-6.6643,-6.6136,-6.6508,-6.6812,-6.6812,-6.6812,-6.6812,-6.6812,-6.6812,-6.6812,-6.6812,-6.6812,-6.6812,-6.6812,-6.6812,-6.6812,-6.6812,-6.6812,-6.6812,-6.6812,-6.6812,-6.6812,-6.6812,-6.6812,-6.6812,0.0,0.0,0.0,0.0,0.0,0.0,0.0,0.0,0.0,0.0,0.0,0.0,0.0,0.0,0.0,0.0,0.0,0.0,0.0,0.0,0.0,0.0,0.0,0.0,0.0,0.0,0.0,0.0,0.0,-5.7881,-5.7881,-5.7881,-5.822,-5.8964,-5.8998,-5.9336,-6.0047,-6.008,-6.008,-6.0114,-6.0892,-6.1298,-6.1332,-6.2042,-6.2381,-6.2381,-6.2381,-6.2381,-6.2381,-6.2381,-6.2381,-6.2448,-6.3193,-6.3024,-6.2482,-6.3226,-6.3024,-6.2516,-6.326,-6.3971,-6.4681,-6.5425,-6.617,-6.6779,-6.6812,-6.6812,-6.6812,-6.6812,-6.6812,-6.6812,-6.6812,-6.6812,-6.6812,-6.6812,-6.6812,-6.6812,-6.6812,-6.6812,-6.6812,-6.6812,-6.6812,-6.6812,-6.6812,-6.6812,-6.6812,-6.6779,-6.6779,-6.6779,-6.6779,-6.6779,-6.6779,-6.6812,-6.6812,-6.6812,-6.6812,-6.6812,-6.6812,-6.6812,-6.6812,-6.6812,-6.6812,-6.6812,-6.6812,-6.6812,-6.6812,-6.6812,-6.6812,-6.6812,-6.6812,-6.6812,-6.6812,-6.6812,-3.0808,0.0,0.0,0.0,0.0,0.0,0.0,0.0,0.0,0.0,0.0,0.0,0.0,0.0,0.0,0.0,0.0,0.0,0.0,0.0,0.0,0.0,0.0,0.0,0.0,0.0,0.0,0.0,-5.7881,-5.7881,-5.7881,-5.7881,-5.7983,-5.8186,-5.8186,-5.8558,-5.9302,-5.9302,-5.9573,-6.0114,-6.0317,-6.0757,-6.1298,-6.1501,-6.1907,-6.2381,-6.2381,-6.2381,-6.2381,-6.2381,-6.2381,-6.2415,-6.2618,-6.2584,-6.2482,-6.3226,-6.3024,-6.2516,-6.326,-6.3632,-6.3937,-6.4647,-6.5392,-6.6102,-6.6643,-6.6812,-6.6812,-6.6812,-6.6812,-6.6812,-6.6812,-6.6812,-6.6812,-6.6812,-6.6812,-6.6812,-6.6812,-6.6812,-6.6812,-6.6812,-6.6812,-6.6812,-6.6812,-6.6812,-6.6643,-6.6068,-6.6,-6.6,-6.6,-6.6,-6.6203,-6.6745,-6.6812,-6.6812,-6.6812,-6.6812,-6.6812,-6.6812,-6.6812,-6.6812,-6.6812,-6.6812,-6.6812,-6.6812,-6.6812,-6.6812,-6.6812,-6.6812,-6.6812,-6.6812,-6.6812,-6.6812,0.0,0.0,0.0,0.0,0.0,0.0,0.0,0.0,0.0,0.0,0.0,0.0,0.0,0.0,0.0,0.0,0.0,0.0,0.0,0.0,0.0,0.0,0.0,0.0,0.0,0.0,0.0,0.0,-5.7442,-5.7577,-5.7881,-5.7881,-5.7881,-5.7881,-5.7881,-5.8084,-5.8558,-5.8558,-5.8761,-5.9201,-5.9505,-5.9911,-6.0351,-6.0655,-6.1231,-6.1941,-6.1941,-6.211,-6.2381,-6.2381,-6.2381,-6.2381,-6.2381,-6.2381,-6.2448,-6.2888,-6.2956,-6.2922,-6.3362,-6.3903,-6.4478,-6.4918,-6.5561,-6.6237,-6.6677,-6.6812,-6.6812,-6.6812,-6.6812,-6.6812,-6.6812,-6.6812,-6.6812,-6.6812,-6.6812,-6.6812,-6.6812,-6.6812,-6.6812,-6.6812,-6.6812,-6.6812,-6.6812,-6.6812,-6.6677,-6.6203,-6.617,-6.617,-6.617,-6.617,-6.6339,-6.6779,-6.6812,-6.6812,-6.6812,-6.6812,-6.6812,-6.6812,-6.6812,-6.6812,-6.6812,-6.6812,-6.6812,-6.6812,-6.6812,-6.6812,-6.6812,-6.6812,-6.6812,-6.6812,-6.6474,-6.6339,0.0,0.0,0.0,0.0,0.0,0.0,-4.0243,-3.9791,0.0,0.0,0.0,0.0,0.0,0.0,0.0,0.0,0.0,0.0,0.0,0.0,0.0,0.0,0.0,0.0,0.0,0.0,-5.5987,-5.663,-5.6697,-5.7002,-5.7712,-5.778,-5.7814,-5.7881,-5.7881,-5.7881,-5.7881,-5.7881,-5.7881,-5.7915,-5.8558,-5.893,-5.9032,-5.9674,-6.0419,-6.1163,-6.1264,-6.167,-6.2279,-6.2347,-6.2381,-6.2381,-6.2381,-6.2381,-6.2415,-6.2482,-6.2888,-6.3396,-6.3497,-6.4377,-6.5459,-6.5527,-6.6068,-6.6711,-6.6779,-6.6812,-6.6812,-6.6812,-6.6812,-6.6812,-6.6812,-6.6812,-6.6812,-6.6812,-6.6812,-6.6812,-6.6812,-6.6812,-6.6812,-6.6812,-6.6812,-6.6812,-6.6812,-6.6812,-6.6812,-6.6812,-6.6745,-6.6711,-6.6812,-6.6745,-6.6711,-6.6812,-6.6812,-6.6812,-6.6812,-6.6812,-6.6812,-6.6812,-6.6812,-6.6812,-6.6812,-6.6812,-6.6812,-6.6812,-6.6812,-6.6779,-6.6677,-6.6677,-6.6677,-6.6677,-6.5933,-6.5561,-3.6524,-3.7249,-3.7957,-3.582,0.0,0.0,0.0,-3.5812,0.0,0.0,0.0,0.0,0.0,0.0,0.0,0.0,0.0,0.0,0.0,0.0,0.0,0.0,0.0,0.0,0.0,0.0,-5.5784,-5.5919,-5.5919,-5.6258,-5.6968,-5.7002,-5.7273,-5.7881,-5.7881,-5.7881,-5.7881,-5.7881,-5.7881,-5.7881,-5.8051,-5.8423,-5.9032,-5.9167,-5.9641,-6.0385,-6.1028,-6.1366,-6.1569,-6.2144,-6.2381,-6.2381,-6.2381,-6.2381,-6.2448,-6.3057,-6.299,-6.2685,-6.3294,-6.37,-6.4038,-6.4613,-6.529,-6.6034,-6.6643,-6.6812,-6.6812,-6.6812,-6.6812,-6.6812,-6.6812,-6.6812,-6.6812,-6.6812,-6.6812,-6.6812,-6.6812,-6.6812,-6.6812,-6.6812,-6.6812,-6.6812,-6.6812,-6.6812,-6.6812,-6.6812,-6.6305,-6.6136,-6.6745,-6.6271,-6.6136,-6.6745,-6.6812,-6.6812,-6.6812,-6.6812,-6.6812,-6.6812,-6.6812,-6.6812,-6.6812,-6.6812,-6.6812,-6.6812,-6.6812,-6.6508,-6.5899,-6.5899,-6.5899,-6.5899,-6.5155,-6.4816,-3.8227,-3.848,-3.9079,-3.7848,0.0,0.0,0.0,0.0,0.0,0.0,0.0,0.0,0.0,0.0,0.0,0.0,0.0,0.0,0.0,0.0,0.0,0.0,0.0,0.0,0.0,0.0,-5.4329,-5.5108,-5.5513,-5.5886,-5.6258,-5.6258,-5.6596,-5.734,-5.734,-5.7509,-5.7881,-5.7881,-5.7881,-5.7881,-5.7881,-5.8084,-5.8457,-5.8457,-5.8863,-5.9573,-5.9979,-6.0588,-6.1332,-6.1704,-6.2076,-6.2381,-6.2381,-6.2381,-6.2415,-6.2821,-6.2956,-6.299,-6.3396,-6.3768,-6.4106,-6.4478,-6.485,-6.529,-6.6034,-6.6508,-6.6812,-6.6812,-6.6812,-6.6812,-6.6812,-6.6812,-6.6812,-6.6812,-6.6812,-6.6812,-6.6812,-6.6812,-6.6812,-6.6812,-6.6812,-6.6812,-6.6812,-6.6812,-6.6812,-6.6812,-6.6508,-6.6373,-6.6779,-6.6474,-6.6406,-6.6779,-6.6812,-6.6812,-6.6812,-6.6812,-6.6812,-6.6812,-6.6812,-6.6812,-6.6812,-6.6812,-6.6812,-6.6812,-6.644,-6.6068,-6.5696,-6.4952,-6.4783,-6.5121,-6.441,-6.4072,0.0,0.0,0.0,0.0,0.0,-3.8595,0.0,0.0,0.0,0.0,0.0,0.0,0.0,0.0,0.0,0.0,0.0,0.0,0.0,0.0,0.0,0.0,0.0,0.0,0.0,0.0,-5.2164,-5.3822,-5.4228,-5.4633,-5.5277,-5.5412,-5.5852,-5.6562,-5.6731,-5.7103,-5.7679,-5.7814,-5.7881,-5.7881,-5.7881,-5.7881,-5.7881,-5.7881,-5.822,-5.8795,-5.8964,-5.9708,-6.0892,-6.1197,-6.1637,-6.2178,-6.2347,-6.2381,-6.2381,-6.2381,-6.2787,-6.3294,-6.3294,-6.3768,-6.4377,-6.4377,-6.4478,-6.4715,-6.529,-6.6,-6.6609,-6.6609,-6.6711,-6.6812,-6.6812,-6.6812,-6.6812,-6.6812,-6.6812,-6.6812,-6.6812,-6.6812,-6.6812,-6.6812,-6.6812,-6.6812,-6.6812,-6.6812,-6.6812,-6.6812,-6.6812,-6.6812,-6.6812,-6.6812,-6.6812,-6.6812,-6.6812,-6.6812,-6.6812,-6.6812,-6.6812,-6.6812,-6.6812,-6.6812,-6.6812,-6.6812,-6.6745,-6.6609,-6.6,-6.5561,-6.5256,-6.4106,-6.3835,-6.4377,-6.3632,-6.3294,0.0,0.0,0.0,0.0,-4.2991,0.0,0.0,0.0,0.0,0.0,0.0,0.0,0.0,0.0,0.0,0.0,0.0,0.0,0.0,0.0,0.0,0.0,0.0,0.0,0.0,0.0,0.0,-5.1454,-5.0473,-5.0947,-5.3619,-5.4363,-5.5074,-5.5818,-5.6461,-5.6833,-5.6934,-5.7577,-5.7881,-5.7881,-5.7881,-5.7881,-5.7881,-5.7881,-5.7949,-5.8051,-5.8727,-5.9133,-5.937,-6.0757,-6.1366,-6.1501,-6.2144,-6.2381,-6.2381,-6.2381,-6.2448,-6.2516,-6.2516,-6.3024,-6.3632,-6.3632,-6.4072,-6.4613,-6.4681,-6.5222,-6.5797,-6.5797,-6.6305,-6.6812,-6.6812,-6.6812,-6.6812,-6.6812,-6.6812,-6.6812,-6.6812,-6.6812,-6.6812,-6.6812,-6.6812,-6.6812,-6.6812,-6.6812,-6.6812,-6.6812,-6.6812,-6.6812,-6.6812,-6.6812,-6.6812,-6.6812,-6.6812,-6.6812,-6.6812,-6.6812,-6.6812,-6.6812,-6.6812,-6.6812,-6.6812,-6.6812,-6.6508,-6.5831,-6.573,-6.5053,-6.3768,-6.3599,-6.3565,-6.3632,-6.2854,-6.2516,0.0,0.0,0.0,0.0,0.0,0.0,-3.6525,0.0,-3.4956,0.0,0.0,0.0,0.0,0.0,0.0,0.0,0.0,0.0,0.0,0.0,0.0,0.0,0.0,0.0,0.0,0.0,0.0,0.0,0.0,-4.9492,-5.2029,-5.2875,-5.3822,-5.5006,-5.5344,-5.5919,-5.6799,-5.7103,-5.7476,-5.7881,-5.7881,-5.7881,-5.7881,-5.7881,-5.7881,-5.7915,-5.822,-5.8592,-5.9066,-5.9708,-6.0486,-6.1332,-6.1637,-6.2009,-6.2381,-6.2381,-6.2381,-6.2381,-6.2381,-6.2584,-6.2854,-6.2854,-6.3362,-6.3971,-6.3971,-6.4478,-6.5053,-6.5053,-6.5595,-6.617,-6.617,-6.6474,-6.6812,-6.6812,-6.6812,-6.6812,-6.6812,-6.6812,-6.6812,-6.6812,-6.6812,-6.6812,-6.6812,-6.6812,-6.6812,-6.6812,-6.6812,-6.6812,-6.6812,-6.6812,-6.6812,-6.6812,-6.6812,-6.6812,-6.6812,-6.6812,-6.6812,-6.6812,-6.6812,-6.6609,-6.617,-6.617,-6.5797,-6.5087,-6.4647,-6.414,-6.3531,-6.3091,-6.2854,-6.2854,-6.2516,-6.2381,-4.8931,0.0,0.0,0.0,0.0,0.0,0.0,0.0,0.0,0.0,0.0,0.0,0.0,0.0,0.0,0.0,0.0,0.0,0.0,0.0,0.0,0.0,0.0,0.0,0.0,0.0,0.0,0.0,0.0,0.0,-5.0473,-5.1488,-5.2604,-5.3923,-5.4363,-5.5108,-5.619,-5.6596,-5.707,-5.7577,-5.778,-5.7881,-5.7881,-5.7881,-5.7881,-5.7881,-5.7881,-5.8186,-5.8727,-5.893,-5.9776,-6.0994,-6.1231,-6.1738,-6.2381,-6.2381,-6.2381,-6.2381,-6.2381,-6.2381,-6.2381,-6.2381,-6.2753,-6.3193,-6.3193,-6.3734,-6.4309,-6.4309,-6.4816,-6.5425,-6.5628,-6.6102,-6.6542,-6.6779,-6.6812,-6.6812,-6.6812,-6.6812,-6.6812,-6.6812,-6.6812,-6.6812,-6.6812,-6.6812,-6.6812,-6.6812,-6.6812,-6.6812,-6.6812,-6.6812,-6.6812,-6.6812,-6.6812,-6.6812,-6.6812,-6.6812,-6.6711,-6.6508,-6.6305,-6.5967,-6.5425,-6.5392,-6.5053,-6.4309,-6.3768,-6.3429,-6.3193,-6.2651,-6.2381,-6.2381,-6.2381,-6.2381,0.0,0.0,0.0,-4.491,0.0,0.0,0.0,0.0,-3.879,0.0,0.0,0.0,0.0,0.0,0.0,0.0,0.0,0.0,0.0,0.0,0.0,0.0,0.0,0.0,0.0,0.0,0.0,0.0,0.0,0.0,-4.8849,-5.0473,-5.1589,-5.2367,-5.3822,-5.46,-5.4668,-5.6089,-5.6799,-5.6833,-5.7543,-5.7881,-5.7881,-5.7881,-5.7881,-5.7881,-5.7881,-5.7915,-5.7983,-5.8727,-5.9471,-6.0216,-6.0994,-6.1738,-6.2381,-6.2381,-6.2381,-6.2381,-6.2381,-6.2381,-6.2381,-6.2381,-6.2415,-6.2415,-6.2415,-6.2956,-6.3565,-6.3565,-6.4072,-6.4783,-6.5493,-6.5696,-6.5899,-6.6643,-6.6812,-6.6812,-6.6812,-6.6812,-6.6812,-6.6812,-6.6812,-6.6812,-6.6812,-6.6812,-6.6812,-6.6812,-6.6812,-6.6812,-6.6812,-6.6812,-6.6812,-6.6812,-6.6812,-6.6812,-6.6812,-6.6812,-6.6508,-6.5764,-6.5053,-6.4647,-6.4647,-6.4647,-6.4309,-6.3565,-6.3531,-6.3159,-6.2415,-6.2415,-6.2381,-6.2381,-6.2381,-6.2381,0.0,0.0,-5.5667,-4.9278,0.0,0.0,0.0,0.0,0.0,0.0,0.0,0.0,0.0,0.0,0.0,0.0,0.0,0.0,0.0,0.0,0.0,0.0,0.0,0.0,0.0,0.0,0.0,-4.2151,-4.188,0.0,0.0,-4.939,-5.0811,-5.1555,-5.3078,-5.4093,-5.46,-5.5581,-5.6325,-5.6799,-5.7543,-5.7881,-5.7881,-5.7881,-5.7881,-5.7881,-5.7881,-5.7881,-5.7915,-5.8152,-5.8727,-5.9471,-6.0216,-6.0994,-6.1738,-6.2212,-6.2381,-6.2381,-6.2381,-6.2381,-6.2381,-6.2381,-6.2381,-6.2381,-6.2381,-6.255,-6.2753,-6.2753,-6.3294,-6.3937,-6.4174,-6.4613,-6.5019,-6.529,-6.5358,-6.5358,-6.5358,-6.573,-6.6068,-6.6068,-6.6474,-6.6812,-6.6812,-6.6812,-6.6812,-6.6812,-6.6812,-6.6812,-6.6812,-6.6373,-6.6068,-6.6068,-6.5628,-6.5358,-6.5358,-6.5358,-6.5256,-6.4986,-6.4749,-6.4377,-6.3903,-6.3869,-6.3531,-6.2787,-6.2753,-6.2651,-6.2381,-6.2381,-6.2381,-6.2381,-6.2381,-6.2381,-5.7695,-5.8021,0.0,-5.219,-5.0162,0.0,-4.2303,0.0,0.0,0.0,0.0,0.0,0.0,0.0,0.0,0.0,0.0,0.0,0.0,0.0,0.0,0.0,0.0,0.0,0.0,0.0,-3.7144,-4.0189,-3.9681,0.0,0.0,0.0,-4.9492,-5.0777,-5.23,-5.345,-5.4194,-5.5209,-5.5953,-5.6427,-5.7408,-5.7881,-5.7881,-5.7881,-5.7881,-5.7881,-5.7881,-5.7881,-5.7881,-5.7881,-5.8321,-5.9066,-5.9539,-6.0351,-6.14,-6.211,-6.2381,-6.2381,-6.2381,-6.2381,-6.2381,-6.2381,-6.2381,-6.2381,-6.2381,-6.2381,-6.2381,-6.2381,-6.2753,-6.3193,-6.3463,-6.3869,-6.4275,-6.4546,-6.4613,-6.4613,-6.4613,-6.4952,-6.529,-6.529,-6.5696,-6.6034,-6.6034,-6.6034,-6.6203,-6.6745,-6.6576,-6.6406,-6.6406,-6.5764,-6.529,-6.529,-6.4884,-6.4613,-6.4613,-6.4377,-6.4208,-6.4208,-6.3971,-6.3599,-6.3125,-6.3125,-6.2888,-6.2415,-6.2381,-6.2381,-6.2381,-6.2381,-6.2381,-6.2381,-6.2381,-6.2381]},{"header":{"parameterUnit":"m.s-1","parameterCategory":1,"la1":30.6,"la2":29.2853,"lo1":-89.7004,"lo2":-87.6739,"dy":0.0162,"dx":0.0183,"nx":112,"ny":82,"refTime":"2026-02-22T12:00:00:Z","depth":0,"parameterNumber":3,"parameterNumberName":"V-component_of_WINDS"},"data":[0.0,0.0,0.0,0.0,0.0,0.0,0.0,0.0,0.0,0.0,0.0,0.0,0.0,0.0,0.0,0.0,0.0,0.0,0.0,0.0,0.0,0.0,0.0,0.0,0.0,0.0,0.0,0.0,0.0,0.0,0.0,0.0,0.0,0.0,0.0,0.0,0.0,0.0,0.0,0.0,0.0,0.0,0.0,0.0,0.0,0.0,0.0,0.0,0.0,0.0,0.0,0.0,0.0,0.0,0.0,0.0,0.0,0.0,0.0,0.0,0.0,0.0,0.0,0.0,0.0,0.0,0.0,0.0,0.0,0.0,0.0,0.0,0.0,0.0,0.0,0.0,0.0,0.0,0.0,0.0,0.0,0.0,0.0,0.0,0.0,0.0,0.0,0.0,0.0,0.0,-2.2312,-2.459,-2.8048,-2.9937,-2.926,-2.9259,-2.6867,-2.1224,0.0,0.0,0.0,0.0,0.0,0.0,0.0,0.0,0.0,0.0,0.0,0.0,0.0,0.0,0.0,0.0,0.0,0.0,0.0,0.0,0.0,0.0,0.0,0.0,0.0,0.0,0.0,0.0,0.0,0.0,0.0,0.0,0.0,0.0,0.0,0.0,0.0,0.0,0.0,0.0,0.0,0.0,0.0,0.0,0.0,0.0,0.0,0.0,0.0,0.0,0.0,0.0,0.0,0.0,0.0,0.0,0.0,0.0,0.0,0.0,0.0,0.0,0.0,0.0,0.0,0.0,0.0,0.0,0.0,0.0,0.0,0.0,0.0,0.0,0.0,0.0,0.0,0.0,0.0,0.0,0.0,0.0,0.0,0.0,0.0,0.0,0.0,0.0,0.0,0.0,0.0,0.0,0.0,0.0,0.0,0.0,0.0,0.0,0.0,0.0,0.0,0.0,0.0,0.0,-2.3186,-2.8504,-3.0325,-3.1174,-3.099,-2.9962,-2.7374,-2.2818,0.0,0.0,0.0,0.0,0.0,0.0,0.0,0.0,0.0,0.0,0.0,0.0,0.0,0.0,0.0,0.0,0.0,0.0,0.0,0.0,0.0,0.0,0.0,0.0,0.0,0.0,0.0,0.0,0.0,0.0,0.0,0.0,0.0,0.0,0.0,0.0,0.0,0.0,0.0,0.0,0.0,0.0,0.0,0.0,0.0,0.0,0.0,0.0,0.0,0.0,0.0,0.0,0.0,0.0,0.0,0.0,0.0,0.0,0.0,0.0,0.0,0.0,0.0,0.0,0.0,0.0,0.0,0.0,0.0,0.0,0.0,0.0,0.0,0.0,0.0,0.0,0.0,0.0,0.0,0.0,0.0,0.0,0.0,0.0,0.0,0.0,0.0,0.0,0.0,0.0,0.0,0.0,0.0,0.0,0.0,0.0,0.0,0.0,0.0,0.0,0.0,0.0,0.0,-2.2915,-2.5502,-3.0243,-3.134,-3.1733,-3.1733,-3.047,-2.795,-2.3984,-2.2291,0.0,0.0,0.0,0.0,0.0,0.0,0.0,0.0,0.0,0.0,0.0,0.0,0.0,0.0,0.0,0.0,0.0,0.0,0.0,0.0,0.0,0.0,0.0,0.0,0.0,0.0,0.0,0.0,0.0,0.0,0.0,0.0,0.0,0.0,0.0,0.0,0.0,0.0,0.0,0.0,0.0,0.0,0.0,0.0,0.0,0.0,0.0,0.0,0.0,0.0,0.0,0.0,0.0,0.0,0.0,0.0,0.0,0.0,0.0,0.0,0.0,0.0,0.0,0.0,0.0,0.0,0.0,0.0,0.0,0.0,0.0,0.0,0.0,0.0,0.0,0.0,0.0,0.0,0.0,0.0,0.0,0.0,0.0,0.0,0.0,0.0,0.0,0.0,0.0,0.0,0.0,0.0,0.0,0.0,0.0,0.0,0.0,0.0,0.0,0.0,0.0,0.0,-2.602,-2.7924,-3.1174,-3.194,-3.2112,-3.1988,-3.0574,-2.8131,-2.4621,-2.2573,0.0,0.0,0.0,0.0,0.0,0.0,0.0,0.0,0.0,0.0,0.0,0.0,0.0,0.0,0.0,0.0,0.0,0.0,0.0,0.0,0.0,0.0,0.0,0.0,0.0,0.0,0.0,0.0,0.0,0.0,0.0,0.0,0.0,0.0,0.0,0.0,0.0,0.0,0.0,0.0,0.0,0.0,0.0,0.0,0.0,0.0,0.0,0.0,0.0,0.0,0.0,0.0,0.0,0.0,0.0,0.0,0.0,0.0,0.0,0.0,0.0,0.0,0.0,0.0,0.0,0.0,0.0,0.0,0.0,0.0,0.0,0.0,0.0,0.0,0.0,0.0,0.0,0.0,0.0,0.0,0.0,0.0,0.0,0.0,0.0,0.0,0.0,0.0,0.0,0.0,0.0,0.0,0.0,0.0,0.0,0.0,0.0,0.0,0.0,0.0,0.0,0.0,-2.72,-2.9808,-3.174,-3.2339,-3.2442,-3.2029,-2.9994,-2.7454,-2.458,-2.1941,0.0,0.0,0.0,0.0,0.0,0.0,0.0,0.0,0.0,0.0,0.0,0.0,0.0,0.0,0.0,0.0,0.0,0.0,0.0,0.0,0.0,0.0,0.0,0.0,0.0,0.0,0.0,0.0,0.0,0.0,0.0,0.0,0.0,0.0,0.0,0.0,0.0,0.0,0.0,0.0,0.0,0.0,0.0,0.0,0.0,0.0,0.0,0.0,0.0,0.0,0.0,0.0,0.0,0.0,0.0,0.0,0.0,0.0,0.0,0.0,0.0,0.0,0.0,0.0,0.0,0.0,0.0,0.0,0.0,0.0,0.0,0.0,0.0,0.0,0.0,0.0,0.0,0.0,0.0,0.0,0.0,0.0,0.0,0.0,0.0,0.0,0.0,0.0,0.0,0.0,0.0,0.0,0.0,0.0,0.0,0.0,0.0,0.0,0.0,0.0,0.0,0.0,-2.691,-2.9684,0.0,-3.2401,-3.2607,-3.2421,-3.0884,-2.859,-2.5521,0.0,0.0,0.0,0.0,0.0,0.0,0.0,0.0,0.0,0.0,0.0,0.0,0.0,0.0,0.0,0.0,0.0,0.0,0.0,0.0,0.0,0.0,0.0,0.0,0.0,0.0,0.0,0.0,0.0,0.0,0.0,0.0,0.0,0.0,0.0,0.0,0.0,0.0,0.0,0.0,0.0,0.0,0.0,0.0,0.0,0.0,0.0,0.0,0.0,0.0,0.0,0.0,0.0,0.0,0.0,0.0,0.0,0.0,0.0,0.0,0.0,0.0,0.0,0.0,0.0,0.0,0.0,0.0,0.0,0.0,0.0,0.0,0.0,0.0,0.0,0.0,0.0,0.0,0.0,0.0,0.0,0.0,0.0,0.0,0.0,0.0,0.0,0.0,0.0,0.0,0.0,0.0,0.0,0.0,0.0,0.0,0.0,0.0,0.0,0.0,0.0,0.0,-2.4261,-2.7303,-3.0098,0.0,-3.2747,-3.2934,-3.2934,-3.1153,-2.8835,-2.6107,0.0,0.0,0.0,0.0,0.0,0.0,0.0,0.0,0.0,0.0,0.0,0.0,0.0,0.0,0.0,0.0,0.0,0.0,0.0,0.0,0.0,0.0,0.0,0.0,0.0,0.0,0.0,0.0,0.0,0.0,0.0,0.0,0.0,0.0,0.0,0.0,0.0,0.0,0.0,0.0,0.0,0.0,0.0,0.0,0.0,0.0,0.0,0.0,0.0,0.0,0.0,0.0,0.0,0.0,0.0,0.0,0.0,0.0,0.0,0.0,0.0,0.0,0.0,0.0,0.0,0.0,0.0,0.0,0.0,0.0,0.0,0.0,0.0,0.0,0.0,0.0,0.0,0.0,0.0,0.0,0.0,0.0,0.0,0.0,0.0,0.0,0.0,0.0,0.0,0.0,0.0,0.0,0.0,0.0,0.0,0.0,0.0,0.0,0.0,0.0,0.0,0.0,-2.5585,-2.8711,-3.1402,-3.3203,-3.3389,-3.3389,-3.3368,-3.047,-2.7862,0.0,0.0,0.0,0.0,0.0,0.0,0.0,0.0,0.0,0.0,0.0,0.0,0.0,0.0,0.0,0.0,0.0,0.0,0.0,0.0,0.0,0.0,0.0,0.0,0.0,0.0,0.0,0.0,0.0,0.0,0.0,0.0,0.0,0.0,0.0,0.0,0.0,0.0,0.0,0.0,0.0,0.0,0.0,0.0,0.0,0.0,0.0,0.0,0.0,0.0,0.0,0.0,0.0,0.0,0.0,0.0,0.0,0.0,0.0,0.0,0.0,0.0,0.0,0.0,0.0,0.0,0.0,0.0,0.0,0.0,0.0,0.0,0.0,0.0,0.0,0.0,0.0,0.0,0.0,0.0,0.0,0.0,0.0,0.0,0.0,0.0,0.0,0.0,0.0,0.0,0.0,0.0,0.0,0.0,0.0,0.0,0.0,0.0,0.0,0.0,0.0,0.0,0.0,-2.5627,-2.9249,-3.2209,-3.3699,-3.3865,-3.3741,-3.341,-3.165,-2.9228,-2.6082,0.0,0.0,0.0,0.0,0.0,0.0,0.0,0.0,0.0,0.0,0.0,0.0,0.0,0.0,0.0,0.0,0.0,0.0,0.0,0.0,0.0,0.0,0.0,0.0,0.0,0.0,0.0,0.0,0.0,0.0,0.0,0.0,0.0,0.0,0.0,0.0,0.0,0.0,0.0,0.0,0.0,0.0,0.0,0.0,0.0,0.0,0.0,0.0,0.0,0.0,0.0,0.0,0.0,0.0,0.0,0.0,0.0,0.0,0.0,0.0,0.0,0.0,0.0,0.0,0.0,0.0,0.0,0.0,0.0,0.0,0.0,0.0,0.0,0.0,0.0,0.0,0.0,0.0,0.0,0.0,0.0,0.0,0.0,0.0,0.0,0.0,0.0,0.0,0.0,0.0,0.0,0.0,0.0,0.0,0.0,0.0,0.0,0.0,0.0,0.0,0.0,0.0,-2.5941,-2.9601,-3.2623,-3.4235,-3.4401,-3.4214,-3.3699,-3.2416,-3.0077,-2.6438,0.0,0.0,0.0,0.0,0.0,0.0,0.0,0.0,0.0,0.0,0.0,0.0,0.0,0.0,0.0,0.0,0.0,0.0,0.0,0.0,0.0,0.0,0.0,0.0,0.0,0.0,0.0,0.0,0.0,0.0,0.0,0.0,0.0,0.0,0.0,0.0,0.0,0.0,0.0,0.0,0.0,0.0,0.0,0.0,0.0,0.0,0.0,0.0,0.0,0.0,0.0,0.0,0.0,0.0,0.0,0.0,0.0,0.0,0.0,0.0,0.0,0.0,0.0,0.0,0.0,0.0,0.0,0.0,0.0,0.0,0.0,0.0,0.0,0.0,0.0,0.0,0.0,0.0,0.0,0.0,0.0,0.0,0.0,0.0,0.0,0.0,0.0,0.0,0.0,0.0,0.0,0.0,0.0,0.0,0.0,0.0,0.0,0.0,0.0,0.0,0.0,0.0,-2.6376,-2.9829,-3.2809,-3.4691,-3.4878,-3.4691,-3.4235,-3.2892,-3.0574,-2.704,0.0,0.0,0.0,0.0,0.0,0.0,0.0,0.0,0.0,0.0,0.0,0.0,0.0,0.0,0.0,0.0,0.0,0.0,0.0,0.0,0.0,0.0,0.0,0.0,0.0,0.0,0.0,0.0,0.0,0.0,0.0,0.0,0.0,0.0,0.0,0.0,0.0,0.0,0.0,0.0,0.0,0.0,0.0,0.0,0.0,0.0,0.0,0.0,0.0,0.0,0.0,0.0,0.0,0.0,0.0,0.0,0.0,0.0,0.0,0.0,-2.3267,0.0,0.0,0.0,0.0,0.0,0.0,0.0,0.0,0.0,0.0,0.0,0.0,0.0,0.0,0.0,0.0,0.0,0.0,0.0,0.0,0.0,0.0,0.0,0.0,0.0,0.0,0.0,0.0,0.0,0.0,0.0,0.0,0.0,0.0,0.0,0.0,0.0,0.0,0.0,0.0,0.0,-2.6812,-3.0325,-3.3285,-3.5086,-3.5273,-3.5107,-3.4712,-3.3368,-3.1319,-2.8359,-2.5295,0.0,0.0,0.0,0.0,0.0,0.0,0.0,0.0,0.0,0.0,0.0,0.0,0.0,0.0,0.0,0.0,0.0,0.0,0.0,0.0,0.0,0.0,0.0,0.0,0.0,0.0,0.0,0.0,0.0,0.0,0.0,0.0,0.0,0.0,0.0,0.0,0.0,0.0,0.0,0.0,0.0,0.0,0.0,0.0,0.0,0.0,0.0,0.0,0.0,0.0,0.0,0.0,0.0,0.0,0.0,0.0,0.0,0.0,0.0,0.0,-2.515,0.0,0.0,0.0,0.0,0.0,0.0,0.0,0.0,0.0,0.0,0.0,0.0,0.0,0.0,0.0,0.0,0.0,0.0,0.0,0.0,0.0,0.0,0.0,0.0,0.0,0.0,0.0,0.0,0.0,0.0,0.0,0.0,0.0,0.0,0.0,0.0,0.0,0.0,0.0,0.0,-2.72,-3.0594,-3.341,-3.5231,-3.5418,-3.5252,-3.4857,-3.3699,-3.1961,-2.9435,-2.6496,0.0,0.0,0.0,0.0,0.0,0.0,0.0,0.0,0.0,0.0,0.0,0.0,0.0,0.0,0.0,0.0,0.0,0.0,0.0,0.0,0.0,0.0,0.0,0.0,0.0,0.0,0.0,0.0,0.0,0.0,0.0,0.0,0.0,0.0,0.0,0.0,0.0,0.0,0.0,0.0,0.0,0.0,0.0,0.0,0.0,0.0,0.0,0.0,0.0,0.0,0.0,0.0,0.0,-3.1946,-3.2747,-3.2706,-3.3534,-3.3641,-3.3186,-3.1422,-3.0098,-2.9083,0.0,0.0,0.0,0.0,0.0,0.0,0.0,0.0,0.0,0.0,0.0,0.0,0.0,0.0,0.0,0.0,0.0,0.0,0.0,0.0,0.0,0.0,0.0,0.0,0.0,-2.7158,-2.7185,0.0,0.0,0.0,0.0,0.0,0.0,0.0,0.0,0.0,0.0,0.0,0.0,-2.7759,-3.0905,-3.3492,-3.5231,-3.5418,-3.5273,-3.49,-3.4031,-3.2623,-3.0594,-2.7966,-2.5502,0.0,0.0,0.0,0.0,0.0,0.0,0.0,0.0,0.0,0.0,0.0,0.0,0.0,0.0,0.0,0.0,0.0,0.0,0.0,0.0,0.0,0.0,0.0,0.0,0.0,0.0,0.0,0.0,0.0,0.0,0.0,0.0,-1.6699,-1.6874,0.0,0.0,0.0,0.0,0.0,0.0,0.0,0.0,0.0,0.0,0.0,0.0,0.0,0.0,-3.0719,-3.3265,-3.4548,-3.4652,-3.7153,-3.8187,-3.7815,-3.8331,-3.8538,-3.8497,-3.8626,0.0,-3.1492,-3.0905,0.0,0.0,0.0,0.0,0.0,0.0,0.0,0.0,0.0,0.0,0.0,0.0,0.0,0.0,0.0,0.0,0.0,0.0,0.0,0.0,0.0,0.0,-2.9911,-3.045,-3.0698,-3.0594,0.0,-2.6455,-2.3225,-2.1652,-2.0762,0.0,0.0,0.0,0.0,0.0,0.0,0.0,-2.8711,-3.1567,-3.3844,-3.5273,-3.5418,-3.5397,-3.5335,-3.4507,-3.3513,-3.238,-3.016,-2.8007,-2.6148,-2.3474,0.0,0.0,0.0,0.0,0.0,0.0,0.0,0.0,0.0,0.0,0.0,0.0,0.0,0.0,0.0,0.0,0.0,0.0,0.0,0.0,0.0,0.0,0.0,0.0,0.0,0.0,0.0,0.0,0.0,-1.6955,-1.9095,-1.9258,-2.0446,-2.0761,0.0,0.0,0.0,0.0,0.0,0.0,0.0,0.0,0.0,-3.1319,-3.252,-3.4051,-3.5935,-3.7632,-3.875,-3.9288,-4.0737,-4.1462,-4.1524,-4.1731,-4.1835,-4.1835,-4.1752,-4.022,-3.7591,-3.5066,-3.2685,-3.045,0.0,0.0,0.0,0.0,0.0,-2.7883,-2.9808,-3.018,0.0,0.0,0.0,0.0,0.0,0.0,0.0,0.0,0.0,0.0,0.0,0.0,0.0,-3.2664,-3.3136,-3.3198,-3.2685,-3.0615,-2.7986,0.0,-2.4364,-2.3287,-2.0127,0.0,0.0,0.0,0.0,0.0,-2.9704,-3.2023,-3.3906,-3.5273,-3.5418,-3.5418,-3.5418,-3.459,-3.3782,-3.3141,-3.1195,-2.9497,-2.8152,-2.5709,-2.3453,0.0,0.0,0.0,0.0,0.0,0.0,0.0,0.0,0.0,0.0,0.0,0.0,0.0,0.0,0.0,0.0,0.0,0.0,0.0,0.0,0.0,0.0,0.0,0.0,0.0,0.0,0.0,0.0,-1.9403,-2.162,-2.1569,-2.3345,-2.3794,0.0,0.0,0.0,0.0,0.0,0.0,-2.9435,-3.1133,-3.312,-3.5397,-3.6577,-3.815,-4.022,-4.1131,-4.1979,-4.2787,-4.3242,-4.3635,-4.3967,-4.3967,-4.3967,-4.3946,-4.3594,-4.3201,-4.2497,-3.8709,-3.5956,-3.3948,-3.223,-3.1215,-3.0781,-3.1485,-3.1588,-3.1712,-3.3989,-3.4465,-3.3948,-3.3182,0.0,-3.0677,-2.7793,0.0,0.0,0.0,0.0,-2.8462,-3.0657,0.0,-3.3165,-3.4465,-3.5024,-3.5148,-3.4693,-3.3969,-3.2313,0.0,-2.7931,-2.6868,-2.3453,0.0,0.0,0.0,0.0,-2.8359,-3.0884,-3.2685,-3.4176,-3.5293,-3.5418,-3.5418,-3.5418,-3.459,-3.3927,-3.3575,-3.1961,-3.0677,-2.987,-2.7862,-2.5896,-2.4095,0.0,0.0,0.0,0.0,0.0,0.0,0.0,0.0,0.0,0.0,0.0,0.0,0.0,0.0,0.0,0.0,0.0,0.0,0.0,0.0,0.0,0.0,0.0,0.0,0.0,0.0,0.0,0.0,0.0,-2.3513,-2.6835,0.0,0.0,0.0,0.0,-2.7627,-2.9829,-3.1899,-3.3658,-3.5086,-3.6887,-3.9185,-3.9765,-4.0696,-4.2177,-4.3014,-4.3718,-4.4215,-4.467,-4.4898,-4.4919,-4.4919,-4.4919,-4.4919,-4.4898,-4.4629,-4.3987,-4.1151,-3.9164,-3.7777,-3.6349,-3.5273,-3.4546,-3.4608,-3.4797,-3.5293,-3.6308,-3.637,-3.6101,-3.6929,-3.5128,-3.2463,-3.1822,-3.045,0.0,0.0,-3.1091,-3.2188,-3.4051,-3.4879,-3.55,-3.6432,-3.668,-3.6577,-3.6101,-3.5625,-3.4465,0.0,-3.045,-2.9373,-2.7841,0.0,-2.7206,-2.7552,-2.8876,-3.0512,-3.2375,-3.3844,-3.4879,-3.5376,-3.5418,-3.5418,-3.5418,-3.459,-3.4111,-3.409,-3.2727,-3.1754,-3.1298,-2.9891,-2.8276,-2.648,-2.3743,0.0,0.0,0.0,0.0,0.0,0.0,0.0,0.0,0.0,0.0,0.0,0.0,0.0,0.0,0.0,0.0,0.0,0.0,0.0,0.0,0.0,0.0,0.0,0.0,0.0,0.0,0.0,0.0,-2.66,-2.9189,0.0,-2.8375,-2.99,-3.1257,-3.1836,-3.3741,-3.5666,-3.7488,-3.8316,-3.9516,-4.1234,-4.2021,-4.2932,-4.4008,-4.4629,-4.5167,-4.5623,-4.6078,-4.6306,-4.6326,-4.6596,-4.6575,-4.6285,-4.5995,-4.5602,-4.5084,-4.3801,-4.2311,-4.0675,-3.9288,-3.8564,-3.8274,-3.8274,-3.8378,-3.8564,-3.8895,-3.8895,-3.8647,-3.8109,-3.6556,-3.4817,-3.4362,-3.3348,-3.2561,-3.3472,-3.3969,-3.4507,-3.5749,-3.6411,-3.6846,-3.7177,-3.7239,-3.7198,-3.7032,-3.6639,-3.5935,-3.4672,-3.3203,-3.1547,-2.9601,-2.9849,-3.0098,-2.9373,-3.0677,-3.2209,-3.343,-3.4279,-3.4921,-3.5376,-3.5418,-3.5418,-3.5418,-3.459,-3.4132,-3.4132,-3.3078,-3.2147,-3.1402,-3.0615,-2.9332,-2.7469,-2.5627,-2.3184,0.0,0.0,0.0,0.0,0.0,0.0,0.0,0.0,0.0,0.0,0.0,0.0,0.0,0.0,0.0,0.0,0.0,0.0,0.0,0.0,0.0,0.0,0.0,0.0,0.0,0.0,-2.8456,-2.9172,-3.171,-3.2962,-3.1774,-3.3265,-3.4652,-3.5397,-3.7011,-3.8626,-4.0137,-4.0779,-4.1669,-4.2911,-4.3532,-4.4298,-4.5229,-4.5685,-4.614,-4.6493,-4.7051,-4.7258,-4.7258,-4.7548,-4.7527,-4.7237,-4.6782,-4.6409,-4.6099,-4.5478,-4.4505,-4.3284,-4.1917,-4.1193,-4.0924,-4.0924,-4.0924,-4.0924,-4.0924,-4.0696,-4.0282,-3.9371,-3.8171,-3.697,-3.666,-3.6059,-3.5604,-3.637,-3.6577,-3.6763,-3.7529,-3.7964,-3.815,-3.7984,-3.7943,-3.7902,-3.7757,-3.7363,-3.6949,-3.6639,-3.5211,-3.3534,-3.1878,-3.223,-3.2354,-3.1298,-3.2437,-3.3575,-3.401,-3.461,-3.5086,-3.5397,-3.5418,-3.5355,-3.5211,-3.4362,-3.3782,-3.3637,-3.2623,-3.1712,-3.0946,-3.0305,-2.927,-2.7738,-2.5896,-2.3619,-2.0829,0.0,0.0,0.0,0.0,0.0,0.0,0.0,0.0,0.0,0.0,0.0,0.0,0.0,0.0,0.0,0.0,0.0,0.0,0.0,0.0,0.0,0.0,0.0,-2.5145,-2.8381,-3.0853,-3.1204,-3.4595,-3.637,-3.5106,-3.6535,-3.7798,-3.8253,-3.9537,-4.0675,-4.1586,-4.2456,-4.3366,-4.4277,-4.4319,-4.4795,-4.5705,-4.614,-4.6596,-4.7072,-4.7506,-4.7693,-4.7693,-4.7713,-4.7713,-4.7651,-4.7237,-4.7051,-4.6968,-4.6078,-4.5705,-4.554,-4.4174,-4.3118,-4.2384,-4.2384,-4.2364,-4.2343,-4.2343,-4.1762,-4.0924,-4.0903,-3.9992,-3.8848,-3.8827,-3.8585,-3.8316,-3.8683,-3.8807,-3.891,-3.9344,-3.9468,-3.9364,-3.891,-3.8786,-3.8662,-3.8295,-3.7839,-3.7508,-3.7488,-3.6411,-3.5335,-3.4879,-3.4484,-3.3969,-3.3513,-3.4256,0.0,-3.4235,-3.4879,-3.5418,-3.5418,-3.5418,-3.5252,-3.4878,-3.3986,-3.3203,-3.2747,-3.1464,-3.0491,-3.0015,-2.9145,-2.8235,-2.7372,-2.4676,-2.2356,-2.0498,0.0,0.0,0.0,0.0,0.0,0.0,0.0,0.0,0.0,0.0,0.0,0.0,0.0,0.0,0.0,0.0,0.0,0.0,0.0,0.0,0.0,0.0,-2.7251,-2.7258,-3.0366,-3.3155,-3.4674,-3.6987,-3.8377,-3.8187,-3.9268,-4.0137,-4.0593,-4.1296,-4.2104,-4.2994,-4.3284,-4.3698,-4.4277,-4.496,-4.5581,-4.6161,-4.6616,-4.7072,-4.7506,-4.7962,-4.8003,-4.7713,-4.8376,-4.8314,-4.7672,-4.7568,-4.732,-4.6989,-4.6409,-4.5975,-4.5623,-4.4898,-4.4256,-4.3739,-4.3739,-4.3325,-4.2745,-4.2745,-4.2352,-4.1814,-4.1483,-4.0903,-4.0261,-3.9951,-3.9537,-3.9185,-3.9241,-3.9282,-3.9302,-3.9447,-3.9468,-3.9447,-3.9323,-3.9034,-3.8745,-3.8688,-3.8316,-3.7902,-3.755,-3.7177,-3.668,-3.5873,-3.5645,-3.5397,-3.4921,-3.5086,0.0,-3.5066,-3.5273,-3.5418,-3.5418,-3.5418,-3.5376,-3.5252,-3.4403,-3.3555,-3.2731,-3.1754,-3.0822,-3.0036,-2.9746,-2.9187,-2.8255,-2.5896,-2.4095,0.0,0.0,0.0,0.0,0.0,0.0,0.0,0.0,0.0,0.0,0.0,0.0,0.0,0.0,0.0,0.0,0.0,0.0,0.0,0.0,0.0,0.0,-2.8015,-3.0089,-3.0795,-3.277,-3.4916,-3.6897,-3.8555,-3.9757,-4.0294,-4.1027,-4.1565,-4.1835,-4.2269,-4.2849,-4.3573,-4.3987,-4.4401,-4.4857,-4.5768,-4.6368,-4.6555,-4.7072,-4.7424,-4.7693,-4.7962,-4.7941,-4.7693,-4.8231,-4.8293,0.0,-4.7568,-4.7382,-4.7258,-4.6535,-4.6202,0.0,0.0,0.0,0.0,0.0,-4.3842,-4.3201,-4.3201,-4.2911,-4.2497,-4.2228,-4.169,-4.111,-4.0862,-4.0468,-4.0096,-4.0096,-4.0096,-4.0096,-4.0096,-4.0096,-4.0054,-3.9868,-3.955,-3.9261,-3.8869,-3.8647,-3.8336,-3.7881,0.0,0.0,-3.6825,-3.6535,-3.6183,-3.5521,-3.5583,-3.5583,0.0,-3.5314,-3.5418,-3.5418,-3.5418,-3.5335,-3.5169,-3.43,0.0,0.0,0.0,-3.0222,-2.8897,-2.8856,0.0,0.0,0.0,0.0,0.0,0.0,0.0,0.0,-2.2542,-2.2853,0.0,0.0,0.0,0.0,0.0,0.0,0.0,0.0,0.0,0.0,0.0,0.0,0.0,0.0,0.0,0.0,-3.062,-3.2947,-3.4701,-3.531,-3.633,-3.8234,-3.9636,-4.0792,-4.1607,-4.2136,-4.2405,-4.2405,-4.2745,-4.318,-4.3594,0.0,0.0,0.0,0.0,-4.6989,-4.703,-4.7424,-4.7631,-4.7693,-4.7693,-4.7651,-4.761,-4.7672,-4.7879,-4.8189,-4.7382,-4.7258,-4.7548,-4.6699,-4.6266,-4.6225,-4.585,-4.5436,-4.5002,-4.4484,-4.4049,0.0,0.0,0.0,0.0,-4.2932,-4.2373,-4.171,-4.1669,-4.1317,-4.0944,-4.0944,-4.0924,-4.0882,-4.0882,-4.0882,-4.0779,-4.0386,-4.0261,-4.0013,-3.9117,-3.8848,-3.8662,-3.8336,-3.8212,-3.8046,-3.7653,-3.7177,-3.6577,-3.5707,-3.5914,0.0,-3.5148,-3.5335,-3.5562,-3.55,0.0,0.0,-3.4879,-3.4031,-3.312,-3.2132,-3.0884,-2.9394,-2.7766,-2.7745,-2.7558,-2.7081,-2.7779,-2.7966,-2.762,-2.7966,-2.7986,-2.7641,-2.5006,-2.5132,0.0,0.0,0.0,0.0,0.0,0.0,0.0,0.0,0.0,0.0,0.0,0.0,0.0,0.0,0.0,-2.9551,-3.2287,-3.4668,-3.6028,-3.6868,-3.7944,-3.9343,-4.0617,-4.1534,-4.2083,-4.2518,-4.2787,-4.2787,-4.3221,-4.3511,-4.3615,-4.4484,0.0,-4.5126,-4.5995,-4.6576,-4.703,-4.7113,-4.7341,-4.7693,0.0,0.0,-4.7175,-4.7527,-4.7548,-4.7279,-4.7113,-4.7092,-4.7113,-4.6493,-4.6266,-4.6225,-4.585,-4.5623,-4.5457,-4.4608,-4.4236,-4.4112,-4.3739,-4.3553,-4.3408,-4.3035,-4.2807,-4.26,-4.2228,-4.1866,0.0,-4.1441,-4.1172,-4.0882,-4.0882,-4.0882,-4.0862,-4.0779,-4.0489,-4.0179,-4.0013,-3.9302,-3.8765,-3.8662,-3.844,-3.815,-3.8067,-3.7674,-3.7177,-3.6618,-3.6618,-3.6597,-3.6432,-3.6494,-3.639,-3.6018,-3.5976,-3.579,-3.5335,-3.4797,-3.3948,-3.2685,-3.1671,-3.0781,-3.0056,-3.0387,-3.0367,-2.9911,-2.9704,-2.9559,-2.9477,-2.9559,-2.9746,-2.9973,-2.8338,-2.7841,0.0,0.0,0.0,0.0,0.0,0.0,0.0,0.0,0.0,0.0,0.0,-2.3437,-2.5371,0.0,-2.9629,-3.1797,-3.3941,-3.5677,-3.6779,-3.7966,-3.9089,-3.9982,-4.0829,-4.1715,-4.2538,-4.2994,-4.3366,-4.3594,-4.3615,-4.3905,-4.4608,-4.4857,-4.5209,-4.5664,-4.6326,-4.6721,-4.703,-4.703,-4.7154,-4.7361,-4.7134,-4.6906,-4.6699,-4.6927,-4.703,-4.703,-4.6721,-4.6741,-4.701,-4.6452,-4.6266,-4.6246,-4.6099,-4.5871,-4.5623,-4.5167,-4.4857,-4.4588,-4.4112,-4.3967,-4.3884,-4.3408,-4.3118,-4.287,-4.2663,-4.2269,-4.199,-4.199,-4.1752,-4.1524,-4.1276,-4.1214,-4.1172,-4.0924,-4.0717,-4.0489,-4.0282,-3.9798,-3.9323,-3.8869,-3.8667,-3.844,-3.8212,-3.7984,-3.7674,-3.7218,-3.7156,-3.7074,-3.6825,-3.6804,-3.6722,-3.6494,-3.6453,-3.6266,-3.5811,-3.4941,-3.4031,-3.312,-3.2416,-3.1836,-3.1381,-3.1816,-3.1836,-3.1381,-3.1567,-3.1588,-3.136,-3.1588,-3.1692,-3.1692,-3.1215,-3.076,0.0,0.0,0.0,0.0,0.0,0.0,0.0,0.0,-2.1543,-2.3281,-2.4375,-2.584,-2.8437,-2.9687,-3.1172,-3.3769,-3.5244,-3.6336,-3.7199,-3.8516,-3.9658,-4.0248,-4.0947,-4.1766,-4.274,-4.327,-4.3801,-4.4256,-4.3884,-4.4132,-4.5354,-4.5147,-4.5333,-4.6057,-4.6616,-4.6824,-4.6824,-4.6824,-4.6824,-4.6906,-4.6452,-4.6266,-4.6266,-4.6266,-4.6554,-4.6885,-4.6432,-4.6473,-4.6783,-4.6432,-4.6266,-4.6266,-4.6266,-4.6119,-4.5809,-4.5705,-4.5436,-4.5064,-4.4588,-4.4381,-4.4236,-4.3863,-4.3428,-4.3056,-4.3056,-4.2745,-4.2393,-4.2393,-4.2331,-4.2239,-4.1793,-4.1783,-4.1586,-4.1131,-4.1007,-4.0882,-4.0448,-4.0282,-4.0013,-3.9199,-3.8972,-3.8765,-3.8398,-3.8316,-3.815,-3.7695,-3.7632,-3.7488,-3.7115,-3.7074,-3.7032,-3.6949,-3.6929,-3.6722,-3.6163,-3.5024,-3.4134,-3.3679,-3.3327,-3.2913,-3.2457,-3.2871,-3.2913,-3.2437,-3.3141,-3.3348,-3.2996,-3.3348,-3.3327,-3.2996,-3.3348,-3.3078,-1.8246,-1.7918,-1.8359,-1.9822,-2.0547,-2.1697,0.0,0.0,-2.5518,-2.7285,-2.8633,-2.9824,-3.0957,-3.2168,-3.3359,-3.4453,-3.577,-3.6768,-3.7226,-3.8132,-3.909,-4.0257,-4.1424,-4.2212,-4.2461,-4.3118,-4.3801,-4.4256,-4.3884,-4.3863,-4.4422,-4.4795,-4.5043,-4.5147,-4.5975,-4.6349,-4.6349,-4.6349,-4.6349,-4.6349,-4.6287,-4.6266,-4.6266,-4.6266,-4.6287,-4.6349,-4.6287,-4.6287,-4.6349,-4.6287,-4.6266,-4.6266,-4.6266,-4.6225,-4.6223,-4.583,-4.5643,-4.554,-4.5064,-4.465,-4.4298,-4.4236,-4.3905,-4.3532,-4.3532,-4.3221,-4.2849,-4.2849,-4.2559,-4.2322,-4.226,-4.226,-4.2136,-4.1607,-4.1483,-4.1358,-4.0903,-4.051,-4.0199,-4.0026,-3.9744,-3.9241,-3.8786,-3.8703,-3.8626,-3.8171,-3.8109,-3.8088,-3.8026,-3.8026,-3.7881,-3.7467,-3.7425,-3.7053,-3.6183,-3.5583,-3.5086,-3.4691,-3.4608,-3.432,-3.3865,-3.4339,-3.432,-3.3844,-3.3948,-3.4028,-3.3927,-3.4028,-3.3969,-3.3927,-3.4028,-3.372,-2.1342,0.0,0.0,0.0,-2.334,-2.4687,-2.6367,-2.7187,-2.793,-2.9141,-3.0234,-3.1309,-3.2422,-3.3262,-3.4082,0.0,-3.6191,-3.709,-3.7266,-3.8046,-3.8623,-3.8945,-4.0306,-4.1563,-4.2624,-4.3022,-4.3511,-4.4236,-4.3884,-4.3925,-4.467,-4.4877,-4.5126,-4.5395,-4.6016,-4.6266,-4.6266,-4.6266,-4.6266,-4.6266,-4.6266,-4.6266,-4.6266,-4.6266,-4.6266,-4.6266,-4.6266,-4.6266,-4.6266,-4.6266,-4.6266,-4.6266,-4.6266,-4.6266,-4.6246,-4.614,-4.6078,-4.5995,-4.5561,-4.5271,-4.5022,-4.4484,-4.4174,-4.3967,-4.3698,-4.347,-4.3325,-4.3325,-4.3201,-4.2973,-4.2704,-4.2642,-4.2518,-4.2083,-4.1845,-4.1524,-4.1317,-4.0924,-4.053,-4.0282,-4.0054,-3.9765,-3.9261,-3.9179,-3.9034,-3.8647,-3.8357,-3.8191,-3.8191,-3.8191,-3.8109,-3.7922,-3.7653,-3.7343,-3.6949,-3.6494,-3.6039,-3.5583,-3.5542,-3.5335,-3.4879,-3.5045,-3.5066,-3.4859,-3.4859,-3.4859,-3.4859,-3.4859,-3.4859,-3.4859,-3.5128,-3.5148,-2.2906,0.0,0.0,-2.418,-2.5723,-2.7226,-2.7773,-2.8789,-2.9883,-3.0742,-3.1426,-3.2226,-3.3379,-3.3965,-3.4492,-3.5273,-3.6465,-3.7305,-3.7305,-3.7889,-3.8248,-3.7916,-3.8977,-4.0248,-4.1694,-4.2295,-4.3029,-4.4081,-4.3607,-4.3689,-4.4597,-4.484,-4.5068,-4.5319,-4.5977,-4.6266,-4.6266,-4.6266,-4.6266,-4.6266,-4.6266,-4.6266,-4.6266,-4.6266,-4.6266,-4.6266,-4.6266,-4.6266,-4.6266,-4.6266,-4.6266,-4.6266,-4.6266,-4.6266,-4.6266,-4.6266,-4.6266,-4.6306,-4.5975,-4.5788,-4.5561,-4.4753,-4.4401,-4.4215,-4.376,-4.3615,-4.3615,-4.3615,-4.3615,-4.3532,-4.3201,-4.3118,-4.2994,-4.2559,-4.2186,-4.1876,-4.1628,-4.1296,-4.0944,-4.0489,-4.0386,-4.0241,-3.9806,-3.9654,-3.9509,-3.9034,-3.8771,-3.846,-3.8212,-3.8191,-3.8191,-3.8191,-3.7881,-3.7632,-3.7508,-3.7177,-3.6804,-3.6328,-3.6308,-3.6142,-3.5811,-3.5811,-3.5811,-3.5811,-3.5811,-3.5811,-3.5811,-3.5811,-3.5811,-3.5811,-3.6142,-3.6308,0.0,0.0,-2.459,-2.5421,-2.7266,-2.9062,-2.9902,-3.0801,-3.168,-3.2539,-3.2734,-3.3027,-3.3887,-3.4394,-3.4844,-3.5312,-3.6465,-3.7305,-3.7305,-3.7656,-3.7916,-3.7876,-3.7907,-3.8296,0.0,-4.0776,-4.2249,-4.3596,-4.2958,-4.2856,-4.3657,-4.4519,-4.4844,-4.4471,-4.5651,-4.6266,-4.6266,-4.6266,-4.6266,-4.6266,-4.6266,-4.6266,-4.6266,-4.6266,-4.6266,-4.6266,-4.6266,-4.6266,-4.6266,-4.6266,-4.6266,-4.6266,-4.6266,-4.6266,-4.6266,-4.6266,-4.6266,-4.6266,-4.6246,-4.6037,-4.5602,-4.5126,-4.467,-4.4215,-4.376,-4.3615,-4.3615,-4.3615,-4.3615,-4.3615,-4.3594,-4.3594,-4.347,-4.3014,-4.289,-4.2642,-4.1752,-4.1545,-4.14,-4.0944,-4.0862,-4.0717,-4.0282,-4.022,-4.0054,-3.953,-3.9447,-3.9185,-3.8295,-3.8191,-3.8191,-3.8191,-3.8171,-3.7984,-3.7529,-3.7488,-3.7281,-3.6804,-3.6784,-3.6784,-3.6763,-3.6763,-3.6763,-3.6763,-3.6763,-3.6763,-3.6763,-3.6763,-3.6763,-3.6763,-3.6784,-3.6784,0.0,0.0,-2.6133,-2.7851,-2.9023,-3.0078,-3.125,-3.1953,-3.2363,-3.2383,-3.2383,-3.2461,-3.2816,-3.3144,-3.3672,-3.4394,-3.584,-3.6973,-3.7266,-3.7656,-3.7676,-3.7182,-3.7569,0.0,0.0,0.0,0.0,-4.2297,-4.2115,-4.2292,-4.3208,-4.3786,-4.4351,-4.4766,-4.547,-4.6023,-4.6266,-4.6266,-4.6266,-4.6266,-4.6266,-4.6266,-4.6266,-4.6266,-4.6266,-4.6266,-4.6266,-4.6266,-4.6266,-4.6266,-4.6266,-4.6266,-4.6266,-4.6266,-4.6266,-4.6266,-4.6266,-4.6266,-4.6266,-4.6244,-4.6057,-4.5602,-4.5147,-4.467,-4.4215,-4.3863,-4.3615,-4.3615,-4.3615,-4.3615,-4.3615,-4.3615,-4.3573,-4.3408,-4.3139,-4.2828,-4.2538,-4.2,-4.1524,-4.1358,-4.1089,-4.082,-4.0675,-4.0655,-4.051,-4.0054,-3.9406,-3.891,-3.8667,-3.8378,-3.8191,-3.8191,-3.8191,-3.8129,-3.7964,-3.7943,-3.7757,-3.7301,-3.726,-3.7115,-3.6825,-3.6804,-3.6804,-3.6804,-3.6804,-3.6804,-3.6804,-3.6804,-3.6804,-3.6804,-3.7115,-3.726,-2.4003,-2.6033,-2.793,-2.9629,-3.0586,-3.1309,-3.2012,-3.25,-3.2637,-3.2051,-3.168,-3.1465,-3.1465,-3.1562,-3.207,-3.3398,-3.4941,-3.6269,-3.7168,-3.7539,-3.7441,-3.6758,-3.7123,0.0,0.0,0.0,0.0,-4.1158,-4.1258,-4.161,-4.2281,-4.3213,-4.3856,-4.4272,-4.5068,-4.5617,-4.6104,-4.6104,-4.6185,-4.6266,-4.6266,-4.6266,-4.6266,-4.6266,-4.6266,-4.6266,-4.6266,-4.6266,-4.6266,-4.6266,-4.6266,-4.6266,-4.6266,-4.6266,-4.6266,-4.6266,-4.6266,-4.6266,-4.6266,-4.6266,-4.6184,-4.583,-4.5478,-4.5126,-4.4484,-4.4091,-4.3822,-4.3656,-4.3615,-4.3615,-4.3615,-4.3615,-4.3615,-4.3615,-4.3387,-4.3118,-4.2952,-4.2456,-4.1959,-4.1628,-4.1338,-4.1069,-4.0903,-4.0882,-4.0779,-4.051,-3.9827,-3.9158,-3.8827,-3.8605,-3.8357,-3.8212,-3.8191,-3.8191,-3.8191,-3.8191,-3.8067,-3.7757,-3.7736,-3.7612,-3.7301,-3.7301,-3.7301,-3.7301,-3.7301,-3.7301,-3.7301,-3.7301,-3.7301,-3.7301,-3.7612,-3.7736,-2.5603,-2.7941,-2.9787,-3.0762,-3.1875,-3.2656,-3.2285,-3.248,-3.248,-3.1621,-3.0723,-3.0059,0.0,0.0,-3.0195,-3.2324,-3.3828,-3.5332,-3.7051,-3.7324,-3.7187,0.0,0.0,0.0,0.0,0.0,0.0,-4.0345,0.0,-4.0662,-4.1118,-4.2739,-4.3459,-4.3141,-4.434,-4.5209,-4.5637,-4.5637,-4.5861,-4.6266,-4.6266,-4.6266,-4.6266,-4.6266,-4.6266,-4.6266,-4.6266,-4.6266,-4.6266,-4.6266,-4.6266,-4.6266,-4.6266,-4.6266,-4.6266,-4.6266,-4.6266,-4.6266,-4.6266,-4.6266,-4.6285,-4.585,-4.5705,-4.5519,-4.465,-4.436,-4.4236,-4.378,-4.3656,-4.3635,-4.3615,-4.3615,-4.3615,-4.3615,-4.3615,-4.3491,-4.3056,-4.2932,-4.2663,-4.1793,-4.1607,-4.1421,-4.0965,-4.0882,-4.0882,-4.0882,-4.053,-3.993,-3.8972,-3.8827,-3.8709,-3.8274,-3.8212,-3.8212,-3.8191,-3.8191,-3.8191,-3.8191,-3.8191,-3.8191,-3.8191,-3.8191,-3.8191,-3.8191,-3.8191,-3.8191,-3.8191,-3.8191,-3.8191,-3.8191,-3.8191,-3.8191,-2.5307,-2.7432,-2.9611,-3.175,-3.2324,-3.2383,-3.2598,-3.2226,-3.1601,-3.0723,-2.9355,-2.8125,0.0,0.0,0.0,-3.0605,-3.3301,0.0,-3.7109,-3.7851,0.0,-3.7226,0.0,-3.748,-3.7168,-3.7617,0.0,0.0,-3.9837,-4.0518,-4.1574,-4.229,-4.2982,-4.3539,-4.4239,-4.478,-4.5127,-4.5209,-4.5372,-4.5861,-4.5535,-4.5535,-4.5861,-4.5454,-4.5535,-4.5861,-4.5861,-4.6023,-4.6266,-4.6266,-4.6266,-4.6266,-4.6266,-4.6266,-4.6266,-4.6266,-4.6266,-4.6266,-4.6266,-4.6266,-4.6246,-4.6223,-4.5954,-4.5643,-4.5395,-4.5084,-4.4712,-4.4256,-4.4132,-4.4049,-4.3698,-4.3615,-4.3615,-4.3615,-4.3615,-4.3573,-4.347,-4.3159,-4.2849,-4.2621,-4.2021,-4.1421,-4.0965,-4.0882,-4.0882,-4.0882,-4.0779,-4.051,-3.9951,-3.9509,-3.9117,-3.873,-3.8688,-3.8543,-3.8212,-3.8191,-3.8191,-3.8191,-3.8191,-3.8191,-3.8191,-3.8191,-3.8191,-3.8191,-3.8191,-3.8191,-3.8191,-3.8191,-3.8191,-3.8191,-3.8191,-3.8191,-2.6296,-2.8535,-3.0721,-3.2374,-3.2617,-3.2305,-3.1777,-3.1133,-3.0195,-2.8574,-2.7168,0.0,0.0,0.0,0.0,0.0,0.0,0.0,-3.6758,-3.7598,-3.791,0.0,-3.7773,0.0,-3.7598,-3.8125,-3.8769,0.0,-3.9746,-4.0252,-4.1148,-4.1934,-4.2582,-4.3141,-4.3751,-4.4288,-4.4698,-4.4882,-4.5127,-4.5372,-4.5127,-4.5127,-4.5372,-4.5127,-4.5127,-4.5372,0.0,-4.5861,-4.6023,-4.6266,-4.6185,-4.6023,-4.6266,-4.6185,-4.6023,-4.6266,-4.6266,-4.6266,-4.6266,-4.6266,-4.6266,-4.6266,-4.6182,-4.5933,-4.5747,-4.5498,-4.5209,-4.4733,-4.4463,-4.4236,-4.3987,-4.376,-4.3615,-4.3615,-4.3615,-4.3615,-4.3615,-4.3408,-4.3159,-4.2952,-4.2186,-4.1483,-4.1214,-4.1007,-4.0882,-4.0882,-4.0882,-4.0779,-4.0551,-4.0116,-3.9592,-3.9137,-3.9075,-3.9061,-3.8792,-3.8771,-3.8771,-3.8771,-3.8585,-3.8481,-3.8481,-3.8295,-3.8191,-3.8191,-3.8191,-3.8191,-3.8191,-3.8191,-3.8191,-3.8191,-3.8191,-3.8191,-2.7396,-2.9822,-3.1896,-3.2386,-3.2572,-3.2187,-3.0488,-2.9648,-2.8535,-2.6025,0.0,0.0,-2.3613,0.0,-2.582,-2.8418,0.0,-3.3633,-3.6289,-3.7031,-3.748,-3.7949,-3.8008,-3.8027,-3.8086,-3.8769,-3.9414,-3.9941,-3.998,-4.0156,-4.0586,-4.1758,-4.248,-4.2598,-4.332,-4.3876,-4.4288,-4.4616,-4.4882,-4.4882,-4.4882,-4.4882,-4.4882,-4.4882,-4.4882,-4.4964,0.0,0.0,-4.5637,-4.5942,-4.5942,-4.5719,-4.6104,-4.6023,-4.5779,-4.6185,-4.6266,-4.6266,-4.6266,-4.6266,-4.6266,-4.6266,-4.6266,-4.6184,-4.5892,-4.5768,-4.5664,-4.5209,-4.4795,-4.4463,-4.4339,-4.4008,-4.3698,-4.3615,-4.3615,-4.3615,-4.3615,-4.3615,-4.347,-4.3014,-4.229,-4.171,-4.1586,-4.1234,-4.0944,-4.0882,-4.0882,-4.0882,-4.0882,-4.0551,-4.0137,-3.9612,-3.955,-3.9599,-3.9468,-3.9468,-3.9468,-3.9468,-3.9096,-3.8869,-3.8869,-3.8564,-3.8357,-3.8357,-3.8357,-3.8357,-3.8357,-3.8357,-3.8357,-3.8357,-3.8357,-3.8357,-2.5794,-2.7713,-2.9633,-3.078,-3.137,-3.1367,-3.0,-2.8535,0.0,0.0,0.0,-2.2715,-2.2285,-2.3477,0.0,-2.7988,0.0,0.0,0.0,0.0,-3.7578,0.0,0.0,0.0,0.0,0.0,0.0,0.0,0.0,-4.0605,-4.1035,-4.1933,-4.2754,-4.3457,-4.3633,-4.3711,-4.3793,-4.3876,-4.4123,-4.4534,-4.4123,-4.4123,-4.4452,-4.4123,-4.4123,-4.4534,0.0,0.0,-4.5127,-4.5209,-4.5372,-4.5719,-4.58,-4.5942,-4.6185,-4.6266,-4.6266,-4.6266,-4.6266,-4.6266,-4.6266,-4.6266,-4.6266,-4.6246,-4.6264,-4.6244,-4.614,-4.5685,-4.5498,-4.5271,-4.4505,-4.4236,-4.4091,-4.3698,-4.3615,-4.3615,-4.3615,-4.3615,-4.347,-4.3014,-4.2787,-4.2456,-4.169,-4.1503,-4.1317,-4.0924,-4.0882,-4.0882,-4.0882,-4.082,-4.0593,-4.0158,-4.0096,-3.993,-3.9509,-3.9468,-3.9468,-3.9468,-3.9385,-3.9344,-3.9344,-3.9282,-3.9309,-3.9309,-3.9309,-3.9309,-3.9309,-3.9309,-3.9309,-3.9309,-3.9309,-3.9309,-2.5627,-2.7303,-2.9003,-3.0339,-3.0413,-2.9772,-2.8529,0.0,0.0,0.0,0.0,-2.1094,-2.0898,0.0,0.0,0.0,0.0,0.0,0.0,0.0,0.0,0.0,0.0,0.0,0.0,0.0,0.0,0.0,0.0,-4.0957,-4.1172,-4.1973,-4.2812,-4.3672,-4.3711,-4.3711,-4.3711,-4.3711,-4.3793,-4.4041,-4.3793,-4.3793,-4.4041,-4.3793,-4.3793,-4.4041,-4.4288,0.0,-4.4698,-4.4882,-4.5046,-4.5046,-4.5209,-4.5454,-4.5617,-4.5861,-4.6104,-4.6266,-4.6266,-4.6266,-4.6266,-4.6266,-4.6266,-4.6266,-4.6266,-4.6266,-4.6225,-4.6099,-4.5871,-4.5581,-4.5147,-4.467,-4.4236,-4.4029,-4.378,-4.3615,-4.3615,-4.3615,-4.3553,-4.3325,-4.3077,-4.2787,-4.2352,-4.2083,-4.1772,-4.1296,-4.1234,-4.1151,-4.0903,-4.0882,-4.08,-4.0593,-4.0551,-4.0468,-4.0261,-4.0241,-4.0241,-4.0241,-4.0013,-3.9889,-3.9819,-3.9592,-3.9468,-3.9468,-3.9468,-3.9468,-3.9468,-3.9468,-3.9468,-3.9468,-3.9468,-3.9399,-2.5344,-2.6873,-2.8456,-2.9471,-2.9141,-2.8226,-2.6765,-2.5257,0.0,0.0,0.0,-1.9805,-1.9902,0.0,0.0,0.0,0.0,0.0,0.0,0.0,0.0,0.0,0.0,0.0,0.0,0.0,0.0,0.0,0.0,0.0,-4.1308,-4.1933,-4.2676,-4.3535,-4.3574,-4.3613,-4.3711,-4.3711,-4.3711,-4.3711,-4.3711,-4.3711,-4.3711,-4.3711,-4.3711,-4.3711,-4.4123,0.0,0.0,-4.4636,-4.4616,-4.4452,-4.4718,-4.4882,-4.5046,-4.5556,-4.5861,-4.6185,-4.6266,-4.6266,-4.6266,-4.6266,-4.6266,-4.6266,-4.6266,-4.6266,-4.6266,-4.6266,-4.6099,-4.5809,-4.5705,-4.5064,-4.4401,-4.4194,-4.3884,-4.3615,-4.3615,-4.3615,-4.3615,-4.3615,-4.3325,-4.3035,-4.2932,-4.2642,-4.2249,-4.1793,-4.1628,-4.1441,-4.1069,-4.0944,-4.0882,-4.0882,-4.0882,-4.0882,-4.0882,-4.0882,-4.0882,-4.0882,-4.053,-4.0344,-4.0365,-4.0013,-3.9827,-3.9827,-3.9827,-3.9827,-3.9827,-3.9827,-3.9757,-3.9688,-3.9688,-3.9478,-2.3573,-2.5301,-2.6809,-2.6488,-2.733,-2.7576,-2.5151,0.0,0.0,0.0,-1.9629,-1.9473,-1.9844,0.0,0.0,0.0,0.0,0.0,0.0,0.0,0.0,0.0,0.0,0.0,0.0,0.0,0.0,0.0,0.0,0.0,0.0,-4.1816,-4.2246,-4.3105,-4.3144,-4.332,-4.3691,-4.3711,-4.3711,-4.3711,-4.3711,-4.3711,-4.3711,-4.3711,-4.3711,-4.3711,0.0,0.0,0.0,-4.3793,-4.4041,-4.437,-4.4452,-4.4698,-4.5046,-4.5556,-4.5698,-4.58,-4.6185,-4.6266,-4.6266,-4.6266,-4.6266,-4.6266,-4.6266,-4.6266,-4.6266,-4.6266,-4.6225,-4.6182,-4.5788,-4.5312,-4.4712,-4.3884,-4.3635,-4.3615,-4.3615,-4.3615,-4.3615,-4.3615,-4.3573,-4.3408,-4.2994,-4.289,-4.2704,-4.2343,-4.1835,-4.1545,-4.1503,-4.1131,-4.0882,-4.0882,-4.0882,-4.0882,-4.0882,-4.0882,-4.0882,-4.0882,-4.0841,-4.082,-4.082,-4.0779,-4.0758,-4.0758,-4.0758,-4.0758,-4.0758,-4.0758,-4.0616,-4.0187,-4.0187,-4.0044,-2.3047,-2.4212,-2.5214,-2.5628,-2.5456,-2.4884,-2.3548,0.0,-2.0903,-1.9107,-1.8625,-1.873,-1.9414,-2.0039,0.0,0.0,0.0,0.0,0.0,0.0,0.0,0.0,0.0,0.0,0.0,0.0,0.0,0.0,0.0,0.0,0.0,-4.1894,-4.2461,-4.3066,-4.332,-4.3535,-4.3711,-4.3711,-4.3711,-4.3711,-4.3711,-4.3711,-4.3711,-4.3711,-4.3711,-4.3711,0.0,0.0,0.0,-4.3711,-4.3793,-4.3958,-4.3958,-4.4288,-4.4698,-4.5127,-4.5454,-4.58,-4.6185,-4.6266,-4.6266,-4.6266,-4.6266,-4.6266,-4.6266,-4.6266,-4.6266,-4.6266,-4.6266,-4.6225,-4.6119,-4.554,-4.4753,-4.3822,-4.3615,-4.3615,-4.3615,-4.3615,-4.3615,-4.3615,-4.3615,-4.3553,-4.3366,-4.3325,-4.318,-4.2725,-4.2497,-4.2186,-4.1628,-4.14,-4.1193,-4.0903,-4.0882,-4.0882,-4.0882,-4.0882,-4.0882,-4.0882,-4.0882,-4.0882,-4.0882,-4.0882,-4.0882,-4.0882,-4.0882,-4.0882,-4.0882,-4.0668,-4.0453,-4.031,-4.0022,-3.9734,-2.2403,-2.3237,-2.3991,-2.4623,-2.3969,-2.2927,0.0,0.0,-1.9734,-1.83,-1.801,-1.8281,-1.9121,-1.9531,-2.0293,0.0,0.0,0.0,0.0,0.0,0.0,0.0,0.0,0.0,0.0,0.0,0.0,0.0,0.0,0.0,0.0,-4.1855,-4.2441,-4.2871,-4.3164,-4.3457,-4.3711,-4.3711,-4.3711,-4.3711,-4.3711,-4.3711,-4.3711,-4.3711,-4.3711,-4.3711,0.0,0.0,0.0,-4.3711,-4.3711,-4.3711,-4.3711,-4.3876,-4.4205,-4.4698,-4.5127,-4.5535,-4.5942,-4.6185,-4.6266,-4.6266,-4.6266,-4.6266,-4.6266,-4.6266,-4.6266,-4.6266,-4.6244,-4.6119,-4.5975,-4.5374,-4.4588,-4.3801,-4.3615,-4.3615,-4.3615,-4.3615,-4.3615,-4.3615,-4.3615,-4.3615,-4.3615,-4.3615,-4.3491,-4.318,-4.3014,-4.2683,-4.2042,-4.1855,-4.1659,-4.1131,-4.1089,-4.1027,-4.0882,-4.0882,-4.0882,-4.0882,-4.0882,-4.0882,-4.0882,-4.0882,-4.0882,-4.0882,-4.0882,-4.0811,-4.074,-4.0453,-4.0166,-3.9971,-3.9662,-3.9373,-2.1364,-2.2403,-2.312,-2.312,-2.2974,-2.2403,0.0,-2.0205,-1.9487,-1.8245,-1.801,-1.8281,-1.9121,-1.9297,-1.9863,0.0,0.0,0.0,0.0,0.0,0.0,0.0,0.0,0.0,0.0,0.0,0.0,0.0,0.0,0.0,0.0,-4.1582,-4.1992,-4.2422,-4.2441,-4.2851,-4.3691,-4.3711,-4.3711,-4.3711,-4.3711,-4.3711,-4.3711,-4.3711,-4.3711,0.0,0.0,0.0,0.0,-4.3711,-4.3711,-4.3711,-4.3711,-4.3711,-4.3793,-4.4205,-4.4616,-4.5046,-4.5535,-4.5942,-4.6266,-4.6266,-4.6266,-4.6266,-4.6266,-4.6266,-4.6266,-4.6266,-4.6037,-4.5581,-4.5126,-4.465,-4.4194,-4.3718,-4.3615,-4.3615,-4.3615,-4.3615,-4.3615,-4.3615,-4.3615,-4.3615,-4.3615,-4.3615,-4.3615,-4.3594,-4.3221,-4.2911,-4.2911,-4.2518,-4.2083,-4.1607,-4.1565,-4.1379,-4.0924,-4.0882,-4.0882,-4.0882,-4.0882,-4.0882,-4.0882,-4.0882,-4.0882,-4.0882,-4.0882,-4.074,-4.031,-4.031,-3.9878,-3.9176,-3.9176,-3.903,-1.9477,-2.0252,-2.0764,-2.0545,-2.0288,-1.9776,-1.863,-1.8527,-1.84,-1.7336,-1.7583,-1.8184,-1.8695,-1.9082,-2.0059,-2.2425,0.0,0.0,0.0,0.0,0.0,0.0,0.0,0.0,0.0,0.0,0.0,0.0,0.0,0.0,0.0,-4.1308,-4.1562,-4.1992,-4.2578,-4.3008,-4.3281,-4.3555,-4.3711,-4.3691,-4.3418,-4.3281,-4.3262,-4.2969,0.0,0.0,0.0,0.0,0.0,-4.3711,-4.3711,-4.3711,-4.3711,-4.3711,-4.3793,-4.4205,-4.4616,-4.5046,-4.5535,-4.5757,-4.5954,-4.6244,-4.614,-4.5954,-4.6264,-4.6266,-4.6266,-4.6266,-4.6037,-4.5581,-4.5105,-4.465,-4.4174,-4.3718,-4.3615,-4.3615,-4.3615,-4.3615,-4.3615,-4.3615,-4.3615,-4.3615,-4.3615,-4.3615,-4.3615,-4.3615,-4.3491,-4.3284,-4.2952,-4.2807,-4.2538,-4.2083,-4.1752,-4.1379,-4.0924,-4.0882,-4.0882,-4.0882,-4.0882,-4.0882,-4.0882,-4.0882,-4.0882,-4.0882,-4.0596,-4.0453,-4.031,-3.9827,-3.9321,-3.8793,-3.8793,-3.872,0.0,-1.8803,-1.9345,-1.914,-1.8745,-1.8203,-1.734,-1.7293,-1.7162,-1.6299,-1.6902,-1.7712,-1.8097,-1.8634,-1.9727,-2.1877,0.0,0.0,0.0,0.0,0.0,0.0,0.0,0.0,0.0,0.0,0.0,0.0,0.0,0.0,0.0,0.0,-4.1289,-4.1562,-4.2246,-4.2754,-4.3066,-4.334,-4.3555,-4.3691,-4.3437,-4.3223,-4.3066,-4.2949,0.0,0.0,0.0,0.0,0.0,-4.3711,-4.3711,-4.3711,-4.3711,-4.3711,-4.3711,-4.4041,-4.437,-4.48,-4.5127,-4.5251,-4.5347,-4.5879,-4.5876,-4.5705,-4.5809,-4.5954,-4.6057,-4.5892,-4.5519,-4.5084,-4.4795,-4.4381,-4.3967,-4.3677,-4.3615,-4.3615,-4.3615,-4.3615,-4.3615,-4.3615,-4.3615,-4.3615,-4.3615,-4.3615,-4.3615,-4.3615,-4.3615,-4.3511,-4.3221,-4.318,-4.3014,-4.2559,-4.2101,-4.1677,-4.1203,-4.0853,-4.0596,-4.0433,-4.0433,-4.0433,-4.0433,-4.0433,-4.0433,-4.0433,-4.0238,-4.0022,-3.9878,-3.9248,-3.8865,-3.8574,-3.8574,-3.8574,0.0,-1.7794,-1.8511,-1.8482,-1.8043,-1.7443,-1.6873,-1.6381,0.0,-1.5306,-1.6101,-1.7035,-1.753,-1.8176,-1.9141,-2.0605,0.0,0.0,0.0,0.0,0.0,0.0,0.0,0.0,0.0,0.0,0.0,0.0,0.0,0.0,0.0,0.0,-4.1172,-4.1172,-4.1543,-4.2148,-4.2988,-4.3047,-4.3281,-4.3652,-4.3652,-4.3457,-4.3086,-4.3457,0.0,0.0,0.0,0.0,0.0,-4.3711,-4.3711,-4.3691,-4.3672,-4.3672,-4.3691,-4.3672,-4.4001,-4.437,-4.437,-4.4379,-4.4462,-4.5271,-4.5552,-4.5561,-4.5084,-4.5271,-4.554,-4.5105,-4.465,-4.4298,-4.4298,-4.3967,-4.3615,-4.3615,-4.3615,-4.3615,-4.3615,-4.3615,-4.3615,-4.3615,-4.3615,-4.3615,-4.3615,-4.3615,-4.3615,-4.3615,-4.3615,-4.3615,-4.3615,-4.3615,-4.3449,-4.2939,-4.2577,-4.2092,-4.159,-4.0809,-4.0135,-3.9754,-3.9734,-3.9714,-3.9714,-3.9714,-3.9714,-3.9714,-3.9714,-3.9518,-3.9176,-3.8793,-3.8574,-3.8574,-3.8574,-3.8574,-1.4575,0.0,-1.5789,-1.554,-1.5555,-1.5469,0.0,-1.54,0.0,0.0,0.0,0.0,0.0,0.0,0.0,0.0,0.0,0.0,0.0,0.0,0.0,0.0,0.0,0.0,0.0,0.0,0.0,0.0,0.0,0.0,0.0,0.0,-4.1172,-4.1172,-4.1269,-4.1582,-4.209,-4.2754,-4.3125,-4.3223,-4.3223,-4.3183,-4.3066,-4.2832,0.0,0.0,0.0,0.0,-4.3711,-4.3711,-4.3711,-4.3672,-4.3359,-4.3418,-4.3672,-4.334,-4.3765,-4.437,-4.437,-4.4179,-4.3898,-4.4071,-4.441,-4.469,-4.453,-4.4795,-4.5126,-4.5022,-4.465,-4.4298,-4.4298,-4.3967,-4.3615,-4.3615,-4.3615,-4.3615,-4.3615,-4.3615,-4.3615,-4.3615,-4.3615,-4.3615,-4.3615,-4.3615,-4.3615,-4.3615,-4.3615,-4.3615,-4.3615,-4.3615,-4.3421,-4.3014,-4.2535,-4.1988,-4.1263,-4.0666,-4.031,-4.0217,-3.9895,-3.9714,-3.9714,-3.9714,-3.9714,-3.9714,-3.9445,-3.9156,-3.872,-3.8647,-3.8574,-3.8574,-3.8574,-3.8574,-1.3448,-1.4326,-1.509,-1.4955,-1.5043,-1.5046,0.0,0.0,0.0,0.0,0.0,0.0,0.0,0.0,0.0,0.0,0.0,0.0,0.0,0.0,0.0,0.0,0.0,0.0,0.0,0.0,0.0,0.0,0.0,0.0,0.0,0.0,-4.1172,-4.1172,-4.1172,-4.1367,-4.1797,-4.2266,-4.2598,-4.2773,-4.2773,-4.2676,-4.25,-4.2441,0.0,0.0,0.0,0.0,-4.3125,-4.3125,-4.3125,-4.3086,-4.2871,-4.291,-4.3086,-4.2871,-4.3092,-4.345,-4.345,-4.3458,-4.3359,-4.2953,-4.3288,-4.3728,-4.3494,-4.3612,-4.3894,-4.4282,-4.4174,-4.3987,-4.3987,-4.3648,-4.3386,-4.3539,-4.3462,-4.3386,-4.3539,-4.3615,-4.3615,-4.3615,-4.3615,-4.3539,-4.3386,-4.331,-4.3233,-4.3081,-4.306,-4.306,-4.306,-4.306,-4.3004,-4.2774,-4.2322,-4.1875,-4.1492,-4.0801,-4.0301,-3.9884,-3.9467,-3.9208,-3.9208,-3.9208,-3.9208,-3.9208,-3.9011,-3.8793,-3.8574,-3.8574,-3.8574,-3.8574,-3.8574,-3.8574,-1.3023,-1.4238,-1.5279,-1.5133,-1.5206,-1.5221,0.0,0.0,0.0,0.0,0.0,0.0,0.0,0.0,0.0,0.0,0.0,0.0,0.0,0.0,0.0,0.0,0.0,0.0,0.0,0.0,0.0,0.0,0.0,0.0,0.0,0.0,0.0,-4.1172,-4.1172,-4.1348,-4.1699,-4.1758,-4.1973,-4.2324,-4.2402,-4.2246,-4.1914,-4.2266,-4.2226,0.0,0.0,0.0,-4.2422,-4.2422,-4.2422,-4.2422,-4.2363,-4.2363,-4.2422,-4.2344,-4.2363,-4.2422,-4.2344,-4.2564,-4.2764,-4.203,-4.2321,-4.2873,-4.2491,-4.237,-4.2524,-4.3213,-4.3462,-4.3462,-4.3462,-4.3157,-4.3004,-4.331,-4.3157,-4.3004,-4.331,-4.3462,-4.3462,-4.3462,-4.3462,-4.331,-4.2927,-4.2927,-4.2774,-4.2447,-4.237,-4.237,-4.237,-4.237,-4.237,-4.2293,-4.2005,-4.1773,-4.1695,-4.0992,-4.0195,-3.9453,-3.8945,-3.8633,-3.8574,-3.8574,-3.8574,-3.8574,-3.8574,-3.8574,-3.8574,-3.8574,-3.8574,-3.8574,-3.8574,-3.8574,-1.3521,-1.4414,-1.4783,-1.4004,-1.4414,-1.4827,0.0,0.0,0.0,0.0,0.0,0.0,0.0,0.0,0.0,0.0,0.0,0.0,0.0,0.0,0.0,0.0,0.0,0.0,0.0,0.0,0.0,0.0,0.0,0.0,0.0,0.0,0.0,-4.1172,-4.1172,-4.1211,-4.1269,-4.1621,-4.1836,-4.1894,-4.2266,-4.2402,-4.2324,-4.2402,-4.2402,0.0,0.0,-4.2422,-4.2422,-4.2422,-4.2422,-4.2402,-4.2031,-4.2109,-4.2383,-4.2031,-4.2129,-4.2383,-4.2031,-4.1974,-4.1974,-4.1854,-4.189,-4.2084,-4.2313,-4.237,-4.2447,-4.2524,-4.26,-4.26,-4.26,-4.2524,-4.2524,-4.26,-4.2524,-4.2524,-4.26,-4.26,-4.26,-4.26,-4.26,-4.2524,-4.2524,-4.2524,-4.2447,-4.237,-4.237,-4.237,-4.237,-4.237,-4.2293,-4.1927,-4.185,-4.1695,-4.1327,-4.0781,-4.0469,-4.0332,-3.9551,-3.8945,-3.8594,-3.8574,-3.8574,-3.8574,-3.8574,-3.8574,-3.8574,-3.8574,-3.8574,-3.8574,-3.8574,-3.8574,-1.298,-1.3799,-1.4399,-1.4258,-1.5348,0.0,0.0,0.0,0.0,0.0,0.0,0.0,0.0,0.0,0.0,0.0,0.0,0.0,0.0,0.0,0.0,0.0,0.0,0.0,0.0,0.0,0.0,0.0,0.0,0.0,0.0,0.0,0.0,0.0,-4.082,-4.0937,-4.1172,-4.1367,-4.1465,-4.1465,-4.166,-4.1758,-4.1758,-4.1758,-4.1758,-4.1758,0.0,-4.1758,-4.1758,-4.1758,-4.1758,-4.1738,-4.1543,-4.1582,-4.1719,-4.1523,-4.1426,-4.1406,-4.1445,-4.1465,-4.1504,-4.1464,-4.1483,-4.1463,-4.1695,-4.1773,-4.1773,-4.1773,-4.2062,-4.237,-4.237,-4.2216,-4.2139,-4.237,-4.2216,-4.2159,-4.237,-4.237,-4.237,-4.237,-4.237,-4.2293,-4.2139,-4.2082,-4.2005,-4.1773,-4.1773,-4.1773,-4.1773,-4.1773,-4.1695,-4.1483,-4.1483,-4.1405,-4.125,-4.0996,-4.0566,-3.9863,-3.9434,-3.9004,-3.8594,-3.8574,-3.8574,-3.8574,-3.8574,-3.8574,-3.8574,-3.8574,-3.8574,-3.8574,-3.8574,-3.8574,-1.2731,-1.336,-1.4062,0.0,0.0,0.0,0.0,0.0,0.0,0.0,0.0,0.0,0.0,0.0,0.0,0.0,0.0,0.0,0.0,0.0,0.0,0.0,0.0,0.0,0.0,0.0,0.0,0.0,0.0,0.0,0.0,0.0,0.0,0.0,-4.0371,-4.0586,-4.1016,-4.1016,-4.1074,-4.1172,-4.1172,-4.1172,-4.1172,-4.1172,-4.1172,-4.1172,-4.1172,-4.1172,-4.1172,-4.1172,-4.1172,-4.1172,-4.1172,-4.1113,-4.1035,-4.1133,-4.0898,-4.0586,-4.1016,-4.1172,-4.1172,-4.1172,-4.1172,-4.1172,-4.1172,-4.1172,-4.1172,-4.1172,-4.1618,-4.2159,-4.2159,-4.1927,-4.1773,-4.2082,-4.185,-4.1773,-4.2082,-4.2159,-4.2159,-4.2159,-4.2159,-4.2005,-4.1695,-4.1695,-4.154,-4.125,-4.1172,-4.1172,-4.1172,-4.1172,-4.1172,-4.1172,-4.1172,-4.1172,-4.1172,-4.1172,-4.0703,-3.959,-3.9316,-3.9004,-3.8594,-3.8574,-3.8574,-3.8574,-3.8574,-3.8574,-3.8574,-3.8574,-3.8574,-3.8574,-3.8574,-3.8574,-1.3623,-1.3711,-1.3828,0.0,0.0,0.0,0.0,0.0,0.0,0.0,0.0,0.0,0.0,0.0,0.0,0.0,0.0,0.0,0.0,0.0,0.0,0.0,0.0,0.0,0.0,0.0,0.0,0.0,0.0,0.0,0.0,0.0,0.0,0.0,0.0,-4.0137,-4.0566,-4.0566,-4.0781,-4.1172,-4.1172,-4.1172,-4.1172,-4.1172,-4.1172,-4.1172,-4.1172,-4.1172,-4.1172,-4.1172,-4.1172,-4.1172,-4.1172,-4.0918,-4.0625,-4.1035,-4.0898,-4.0586,-4.1016,-4.1172,-4.1172,-4.1172,-4.1172,-4.1172,-4.1172,-4.1172,-4.1172,-4.1172,-4.125,-4.1327,-4.1327,-4.125,-4.125,-4.125,-4.125,-4.125,-4.125,-4.1327,-4.1327,-4.1327,-4.1327,-4.125,-4.125,-4.125,-4.125,-4.1172,-4.1172,-4.1172,-4.1172,-4.1172,-4.1172,-4.1172,-4.1172,-4.1172,-4.1172,-4.1172,-4.0957,-4.0469,-3.9648,-3.9004,-3.8594,-3.8574,-3.8574,-3.8574,-3.8574,-3.8574,-3.8574,-3.8574,-3.8574,-3.8574,-3.8574,-3.8574,-1.3272,-1.3726,0.0,0.0,0.0,0.0,0.0,0.0,0.0,0.0,0.0,0.0,0.0,0.0,0.0,0.0,0.0,0.0,0.0,0.0,0.0,0.0,0.0,0.0,0.0,0.0,0.0,0.0,0.0,0.0,0.0,0.0,0.0,0.0,0.0,-3.9687,-4.0137,-4.0137,-4.0351,-4.0781,-4.1035,-4.1172,-4.1172,-4.1172,-4.1172,-4.1172,-4.1172,-4.1172,-4.1172,-4.1172,-4.1172,-4.1172,-4.1172,-4.0898,-4.0586,-4.1016,-4.0898,-4.0586,-4.1016,-4.0996,-4.0762,-4.0762,-4.0586,-4.0371,-4.0371,-4.0566,-4.0762,-4.0762,-4.0957,-4.1172,-4.1172,-4.1172,-4.1172,-4.1172,-4.1172,-4.1172,-4.1172,-4.1172,-4.1172,-4.1172,-4.1172,-4.1172,-4.1172,-4.1172,-4.1172,-4.1172,-4.1172,-4.1172,-4.1172,-4.1172,-4.1172,-4.1172,-4.1172,-4.1172,-4.1172,-4.1172,-4.0996,-4.0547,-3.9961,-3.9434,-3.8984,-3.8711,-3.8574,-3.8574,-3.8574,-3.8574,-3.8574,-3.8574,-3.8574,-3.8574,-3.8574,-3.8574,-1.3641,-1.4338,0.0,0.0,0.0,0.0,0.0,0.0,0.0,0.0,0.0,0.0,0.0,0.0,0.0,0.0,0.0,0.0,0.0,0.0,0.0,0.0,0.0,0.0,0.0,0.0,0.0,0.0,0.0,0.0,0.0,0.0,0.0,0.0,0.0,0.0,-3.9668,-3.9668,-3.9902,-4.0332,-4.0625,-4.0918,-4.1172,-4.1172,-4.1172,-4.1172,-4.1172,-4.1172,-4.1172,-4.1172,-4.1172,-4.1172,-4.1172,-4.0898,-4.0586,-4.1016,-4.0898,-4.0586,-4.1016,-4.0976,-4.0703,-4.0566,-4.0332,-4.0078,-3.9941,-4.0195,-4.0527,-4.0527,-4.084,-4.1172,-4.1172,-4.1172,-4.1172,-4.1172,-4.1172,-4.1172,-4.1172,-4.1172,-4.1172,-4.1172,-4.1172,-4.1172,-4.1172,-4.1172,-4.1172,-4.1172,-4.1172,-4.1172,-4.1172,-4.1172,-4.1172,-4.1172,-4.1172,-4.1172,-4.1172,-4.1172,-4.0996,-4.0547,-4.0137,-3.9687,-3.9219,-3.8789,-3.8574,-3.8574,-3.8574,-3.8574,-3.8574,-3.8574,-3.8574,-3.8574,-3.8574,-3.8574,-1.4953,-1.5685,0.0,0.0,0.0,0.0,0.0,0.0,0.0,0.0,0.0,0.0,0.0,0.0,0.0,0.0,0.0,0.0,0.0,0.0,0.0,0.0,0.0,0.0,0.0,0.0,0.0,0.0,0.0,0.0,0.0,0.0,0.0,0.0,0.0,0.0,-3.9199,-3.9199,-3.9434,-3.9883,-3.9883,-4.0332,-4.1172,-4.1172,-4.1172,-4.1172,-4.1172,-4.1172,-4.1172,-4.1172,-4.1172,-4.1172,-4.1172,-4.0898,-4.0586,-4.1016,-4.0898,-4.0586,-4.1035,-4.1172,-4.1094,-4.0664,-4.0508,-4.043,-4.0019,-4.0176,-4.0508,-4.0508,-4.082,-4.1172,-4.1172,-4.1172,-4.1172,-4.1172,-4.1172,-4.1172,-4.1172,-4.1172,-4.1172,-4.1172,-4.1172,-4.1172,-4.1172,-4.1172,-4.1172,-4.1172,-4.1172,-4.1172,-4.1172,-4.1172,-4.1172,-4.1172,-4.1172,-4.1172,-4.1172,-4.1172,-4.0976,-4.0547,-4.0117,-3.9687,-3.9219,-3.8789,-3.8574,-3.8574,-3.8574,-3.8574,-3.8574,-3.8574,-3.8574,-3.8574,-3.8574,-3.8574,-1.3711,0.0,0.0,0.0,0.0,0.0,0.0,0.0,0.0,0.0,0.0,0.0,0.0,0.0,0.0,0.0,0.0,0.0,0.0,0.0,0.0,0.0,0.0,0.0,0.0,0.0,0.0,0.0,0.0,0.0,0.0,0.0,0.0,0.0,0.0,0.0,-3.875,-3.8769,-3.8984,-3.9414,-3.9414,-3.9707,-4.0273,-4.0273,-4.0273,-4.0273,-4.0273,-4.0273,-4.0273,-4.0273,-4.0449,-4.0723,-4.0723,-4.082,-4.0996,-4.1133,-4.1094,-4.0996,-4.1133,-4.0976,-4.0684,-4.0566,-4.0098,-3.957,-3.9453,-3.9492,-3.959,-3.959,-4.0137,-4.0723,-4.0723,-4.0937,-4.1172,-4.1172,-4.1172,-4.1172,-4.1172,-4.1172,-4.1172,-4.1172,-4.1172,-4.1172,-4.1172,-4.1172,-4.1172,-4.1172,-4.1172,-4.1172,-4.1172,-4.1172,-4.1172,-4.1172,-4.1172,-4.1172,-4.1172,-4.0898,-4.0664,-4.0527,-3.9824,-3.9355,-3.9199,-3.8789,-3.8574,-3.8574,-3.8574,-3.8574,-3.8574,-3.8574,-3.8574,-3.8574,-3.8574,-3.8574,-1.5507,0.0,0.0,0.0,0.0,0.0,0.0,0.0,0.0,0.0,0.0,0.0,0.0,0.0,0.0,0.0,0.0,0.0,0.0,0.0,0.0,0.0,0.0,0.0,0.0,0.0,0.0,0.0,0.0,0.0,0.0,0.0,0.0,0.0,0.0,0.0,-3.8574,-3.8574,-3.8691,-3.8945,-3.8945,-3.9101,-3.9394,-3.9726,-3.9902,-3.9902,-3.9902,-3.9902,-3.9902,-3.9902,-4.0039,-4.0273,-4.0273,-4.043,-4.0664,-4.0664,-4.0664,-4.0684,-4.0859,-4.0742,-4.0527,-4.0527,-4.0039,-3.9453,-3.9258,-3.9199,-3.9199,-3.9199,-3.9844,-4.0527,-4.0527,-4.084,-4.1172,-4.1172,-4.1172,-4.1172,-4.1172,-4.1172,-4.1172,-4.1172,-4.1172,-4.1172,-4.1172,-4.1172,-4.1172,-4.1172,-4.1172,-4.1172,-4.1172,-4.1172,-4.1172,-4.1172,-4.1016,-4.0918,-4.0918,-4.0527,-4.0195,-4.0019,-3.9492,-3.9121,-3.8965,-3.8711,-3.8574,-3.8574,-3.8574,-3.8574,-3.8574,-3.8574,-3.8574,-3.8574,-3.8574,-3.8574,0.0,0.0,0.0,0.0,0.0,0.0,0.0,0.0,0.0,0.0,0.0,0.0,0.0,0.0,0.0,0.0,0.0,0.0,0.0,0.0,0.0,0.0,0.0,0.0,0.0,0.0,0.0,0.0,0.0,0.0,0.0,0.0,0.0,0.0,0.0,0.0,-3.8516,-3.8516,-3.8535,0.0,-3.8574,-3.8574,-3.8613,-3.9414,-3.9766,-3.9766,-3.9766,-3.9766,-3.9766,-3.9766,-3.9805,-3.9824,-3.9824,-3.9863,-3.9902,-3.9902,-3.9902,-3.9961,-4.0332,-4.0469,-4.0469,-4.0469,-4.0176,-3.9746,-3.9336,-3.918,-3.9141,-3.9141,-3.9746,-4.041,-4.041,-4.0723,-4.1055,-4.1055,-4.1113,-4.1172,-4.1172,-4.1172,-4.1172,-4.1172,-4.1172,-4.1172,-4.1172,-4.1172,-4.1172,-4.1172,-4.1172,-4.1172,-4.1172,-4.1172,-4.1152,-4.1113,-4.0762,-4.0508,-4.0469,-4.0078,-3.9648,-3.9238,-3.916,-3.8965,-3.8594,-3.8574,-3.8574,-3.8574,-3.8574,-3.8574,-3.8574,-3.8574,-3.8574,-3.8574,-3.8574,-3.8574,0.0,0.0,0.0,0.0,0.0,0.0,0.0,0.0,0.0,0.0,0.0,0.0,0.0,0.0,0.0,0.0,0.0,0.0,0.0,0.0,0.0,0.0,0.0,0.0,0.0,0.0,0.0,0.0,0.0,0.0,0.0,0.0,0.0,0.0,0.0,-3.7734,-3.8066,-3.8066,-3.8242,0.0,-3.8574,-3.8574,-3.8574,-3.8769,-3.8867,-3.8867,-3.8867,-3.8867,-3.8867,-3.8867,-3.9062,-3.9355,-3.9355,-3.957,-3.9902,-3.9902,-3.9902,-3.9902,-4.0,-4.0039,-4.0039,-4.0039,-3.9726,-3.9336,-3.9238,-3.8965,-3.8711,-3.8711,-3.9082,-3.9492,-3.9492,-3.9824,-4.0176,-4.0176,-4.0684,-4.1172,-4.1172,-4.1172,-4.1172,-4.1172,-4.1172,-4.1172,-4.1172,-4.1172,-4.1172,-4.1172,-4.1172,-4.1172,-4.1172,-4.1172,-4.1035,-4.0703,-4.0586,-4.0391,-4.0059,-3.9609,-3.9316,-3.9199,-3.8887,-3.8672,-3.8574,-3.8574,-3.8574,-3.8574,-3.8574,-3.8574,-3.8574,-3.8574,-3.8574,-3.8574,-3.8574,-3.8574,0.0,0.0,0.0,0.0,0.0,0.0,0.0,0.0,0.0,0.0,0.0,0.0,0.0,0.0,0.0,0.0,0.0,0.0,0.0,0.0,0.0,0.0,0.0,0.0,0.0,0.0,0.0,0.0,0.0,0.0,0.0,0.0,0.0,0.0,-3.7305,-3.7402,-3.7617,-3.7617,-3.7734,-3.7969,-3.7969,-3.8066,-3.8281,-3.8476,-3.8574,-3.8574,-3.8574,-3.8574,-3.8574,-3.8574,-3.8711,-3.8906,-3.8906,-3.9043,-3.9258,-3.9258,-3.9258,-3.9297,-3.9492,-3.957,-3.9609,-3.9824,-3.959,-3.9199,-3.9199,-3.8906,-3.8574,-3.8574,-3.8887,-3.9199,-3.9199,-3.9551,-3.9902,-3.9902,-4.0391,-4.0859,-4.0859,-4.1035,-4.1172,-4.1172,-4.1172,-4.1172,-4.1172,-4.1172,-4.1172,-4.1172,-4.1172,-4.1094,-4.0879,-4.0859,-4.0703,-4.0273,-4.0019,-3.9805,-3.959,-3.916,-3.8906,-3.8906,-3.8691,-3.8574,-3.8574,-3.8574,-3.8574,-3.8574,-3.8574,-3.8574,-3.8574,-3.8574,-3.8574,-3.8574,-3.8574,-3.8574,0.0,0.0,0.0,0.0,0.0,0.0,0.0,0.0,0.0,0.0,0.0,0.0,0.0,0.0,0.0,0.0,0.0,0.0,0.0,0.0,0.0,0.0,0.0,0.0,0.0,0.0,0.0,0.0,0.0,0.0,0.0,0.0,-3.6719,-3.707,-3.707,-3.7109,-3.7187,-3.7187,-3.7226,-3.7305,-3.7305,-3.748,-3.7832,-3.8184,-3.8437,-3.8574,-3.8574,-3.8574,-3.8574,-3.8574,-3.8574,-3.8574,-3.8574,-3.8574,-3.8574,-3.8574,-3.8574,-3.8633,-3.8965,-3.9101,-3.916,-3.9551,-3.9414,-3.9101,-3.9101,-3.8848,-3.8574,-3.8574,-3.8828,-3.9101,-3.9101,-3.9375,-3.9668,-3.9668,-3.998,-4.0312,-4.0391,-4.0703,-4.0957,-4.0957,-4.0957,-4.0957,-4.0957,-4.0957,-4.0957,-4.0957,-4.0957,-4.082,-4.0469,-4.041,-4.0254,-3.9824,-3.9434,-3.918,-3.9101,-3.8769,-3.8574,-3.8574,-3.8574,-3.8574,-3.8574,-3.8574,-3.8574,-3.8574,-3.8574,-3.8574,-3.8574,-3.8574,-3.8574,-3.8574,-3.8574,-3.8574,0.0,0.0,0.0,0.0,0.0,0.0,0.0,0.0,0.0,0.0,0.0,0.0,0.0,0.0,0.0,0.0,0.0,0.0,0.0,0.0,0.0,0.0,0.0,0.0,0.0,0.0,0.0,0.0,0.0,0.0,0.0,-3.6113,-3.6133,-3.6191,-3.6191,-3.6367,-3.6758,-3.6758,-3.6934,-3.7305,-3.7305,-3.7324,-3.7383,-3.7441,-3.7871,-3.8574,-3.8574,-3.8574,-3.8574,-3.8574,-3.8574,-3.8574,-3.8574,-3.8574,-3.8574,-3.8574,-3.8574,-3.8574,-3.8633,-3.8652,-3.8672,-3.873,-3.8711,-3.8652,-3.8652,-3.8613,-3.8574,-3.8574,-3.8613,-3.8652,-3.8652,-3.8711,-3.875,-3.875,-3.9062,-3.9492,-3.9902,-4.0019,-4.0059,-4.0059,-4.0059,-4.0059,-4.0059,-4.0059,-4.0059,-4.0059,-4.0059,-4.0039,-3.998,-3.998,-3.9805,-3.9336,-3.9238,-3.9062,-3.8691,-3.8613,-3.8574,-3.8574,-3.8574,-3.8574,-3.8574,-3.8574,-3.8574,-3.8574,-3.8574,-3.8574,-3.8574,-3.8574,-3.8574,-3.8574,-3.8574,-3.8574,0.0,0.0,0.0,0.0,0.0,0.0,0.0,0.0,0.0,0.0,0.0,0.0,0.0,0.0,0.0,0.0,0.0,0.0,0.0,0.0,0.0,0.0,0.0,0.0,0.0,0.0,0.0,0.0,0.0,0.0,-3.6016,-3.6016,-3.6016,-3.6016,-3.6016,0.0,-3.6309,-3.6309,-3.6406,-3.6582,-3.6582,-3.6699,-3.6953,-3.6953,-3.7285,-3.7851,-3.7851,-3.7851,-3.7871,-3.8105,-3.8203,-3.8223,-3.8476,-3.8574,-3.8574,-3.8574,-3.8574,-3.8574,-3.8574,-3.8574,-3.8574,-3.8574,-3.8574,-3.8574,-3.8574,-3.8574,-3.8574,-3.8574,-3.8574,-3.8574,-3.8574,-3.8574,-3.8574,-3.8574,-3.8711,-3.8906,-3.9101,-3.9551,-3.9902,-3.9902,-3.9902,-3.9902,-3.9902,-3.9902,-3.9902,-3.9902,-3.9902,-3.9805,-3.9551,-3.9512,-3.9336,-3.8906,-3.8848,-3.8769,-3.8594,-3.8574,-3.8574,-3.8574,-3.8574,-3.8574,-3.8574,-3.8574,-3.8574,-3.8574,-3.8574,-3.8574,-3.8574,-3.8574,-3.8574,-3.8574,-3.8574,-3.8574,0.0,0.0,0.0,0.0,0.0,0.0,0.0,0.0,0.0,0.0,0.0,0.0,0.0,0.0,0.0,0.0,0.0,0.0,0.0,0.0,0.0,0.0,0.0,0.0,0.0,0.0,0.0,0.0,0.0,0.0,-3.5664,-3.5684,-3.5684,-3.5684,-3.5801,-3.5859,-3.5859,-3.5976,-3.6016,-3.6016,-3.6016,-3.6191,-3.6504,-3.6504,-3.668,-3.6992,-3.7207,-3.7305,-3.7324,-3.7637,-3.7773,-3.7812,-3.8242,-3.834,-3.8262,-3.8359,-3.834,-3.8262,-3.8379,-3.8418,-3.8418,-3.8535,-3.8574,-3.8574,-3.8574,-3.8574,-3.8574,-3.8574,-3.8574,-3.8574,-3.8574,-3.8574,-3.8574,-3.8574,-3.8574,-3.8574,-3.8574,-3.9101,-3.957,-3.957,-3.957,-3.957,-3.957,-3.957,-3.957,-3.957,-3.957,-3.9434,-3.9082,-3.9043,-3.8926,-3.8613,-3.8574,-3.8574,-3.8574,-3.8574,-3.8574,-3.8574,-3.8574,-3.8574,-3.8574,-3.8574,-3.8574,-3.8574,-3.8574,-3.8574,-3.8574,-3.8574,-3.8574,-3.8574,-3.8574,-3.8574,0.0,0.0,0.0,0.0,0.0,0.0,0.0,0.0,0.0,0.0,0.0,0.0,0.0,0.0,0.0,0.0,0.0,0.0,0.0,0.0,0.0,0.0,0.0,0.0,0.0,0.0,0.0,0.0,0.0,0.0,-3.4766,-3.4766,-3.4766,-3.4766,-3.5195,-3.543,-3.543,-3.582,-3.6016,-3.6016,-3.6016,-3.6035,-3.6055,-3.6055,-3.6074,-3.6133,-3.6953,-3.7305,-3.7305,-3.7324,-3.7324,-3.7363,-3.7793,-3.7715,-3.7402,-3.7812,-3.7695,-3.7422,-3.7812,-3.7969,-3.8027,-3.8437,-3.8574,-3.8574,-3.8574,-3.8574,-3.8574,-3.8574,-3.8574,-3.8574,-3.8574,-3.8574,-3.8574,-3.8574,-3.8574,-3.8574,-3.8574,-3.8613,-3.8652,-3.8652,-3.8652,-3.8652,-3.8652,-3.8652,-3.8652,-3.8652,-3.8652,-3.8633,-3.8613,-3.8613,-3.8594,-3.8574,-3.8574,-3.8574,-3.8574,-3.8574,-3.8574,-3.8574,-3.8574,-3.8574,-3.8574,-3.8574,-3.8574,-3.8574,-3.8574,-3.8574,-3.8574,-3.8574,-3.8574,-3.8574,-3.8574,-3.8574,0.0,0.0,0.0,0.0,0.0,0.0,0.0,0.0,0.0,0.0,0.0,0.0,0.0,0.0,0.0,0.0,0.0,0.0,0.0,0.0,0.0,0.0,0.0,0.0,0.0,0.0,0.0,0.0,0.0,0.0,-3.4687,-3.4707,-3.4707,-3.4707,-3.4863,-3.5098,-3.5391,-3.5547,-3.5742,-3.6016,-3.6016,-3.6016,-3.6016,-3.6016,-3.6016,-3.6035,-3.6348,-3.6484,-3.6504,-3.6777,-3.6894,-3.6934,-3.7363,-3.7422,-3.7324,-3.7461,-3.7422,-3.7324,-3.7461,-3.7695,-3.7949,-3.8105,-3.834,-3.8574,-3.8574,-3.8574,-3.8574,-3.8574,-3.8574,-3.8574,-3.8574,-3.8574,-3.8574,-3.8574,-3.8574,-3.8574,-3.8574,-3.8574,-3.8574,-3.8574,-3.8574,-3.8574,-3.8574,-3.8574,-3.8476,-3.8203,-3.8398,-3.8476,-3.8184,-3.8398,-3.8574,-3.8574,-3.8574,-3.8574,-3.8574,-3.8574,-3.8574,-3.8574,-3.8574,-3.8574,-3.8574,-3.8574,-3.8574,-3.8574,-3.8574,-3.8574,-3.8574,-3.8574,-3.8574,-3.8574,-3.8574,-3.8574,0.0,0.0,0.0,0.0,0.0,0.0,0.0,0.0,0.0,0.0,0.0,0.0,0.0,0.0,0.0,0.0,0.0,0.0,0.0,0.0,0.0,0.0,0.0,0.0,0.0,0.0,0.0,0.0,0.0,0.0,-3.4258,-3.4277,-3.4336,-3.4473,-3.4492,-3.4707,-3.5156,-3.5156,-3.5293,-3.5586,-3.5742,-3.5801,-3.582,-3.5957,-3.6016,-3.6016,-3.6016,-3.6016,-3.6035,-3.6328,-3.6445,-3.6484,-3.6914,-3.6992,-3.6894,-3.7031,-3.6992,-3.6894,-3.7031,-3.7363,-3.7734,-3.7871,-3.8223,-3.8574,-3.8574,-3.8574,-3.8574,-3.8574,-3.8574,-3.8574,-3.8574,-3.8574,-3.8574,-3.8574,-3.8574,-3.8574,-3.8574,-3.8574,-3.8574,-3.8574,-3.8574,-3.8574,-3.8574,-3.8574,-3.8476,-3.8184,-3.8398,-3.8476,-3.8184,-3.8398,-3.8574,-3.8574,-3.8574,-3.8574,-3.8574,-3.8574,-3.8574,-3.8574,-3.8574,-3.8574,-3.8574,-3.8574,-3.8574,-3.8574,-3.8574,-3.8574,-3.8574,-3.8574,-3.8574,-3.8574,-3.8574,-3.8574,0.0,0.0,0.0,0.0,0.0,0.0,0.0,0.0,0.0,0.0,0.0,0.0,0.0,0.0,0.0,0.0,0.0,0.0,0.0,0.0,0.0,0.0,0.0,0.0,0.0,0.0,0.0,0.0,0.0,-3.3418,-3.3418,-3.3418,-3.3613,-3.4043,-3.4062,-3.4258,-3.4668,-3.4687,-3.4687,-3.4707,-3.5156,-3.5391,-3.541,-3.582,-3.6016,-3.6016,-3.6016,-3.6016,-3.6016,-3.6016,-3.6016,-3.6055,-3.6484,-3.6387,-3.6074,-3.6504,-3.6387,-3.6094,-3.6523,-3.6934,-3.7344,-3.7773,-3.8203,-3.8555,-3.8574,-3.8574,-3.8574,-3.8574,-3.8574,-3.8574,-3.8574,-3.8574,-3.8574,-3.8574,-3.8574,-3.8574,-3.8574,-3.8574,-3.8574,-3.8574,-3.8574,-3.8574,-3.8574,-3.8574,-3.8574,-3.8555,-3.8555,-3.8555,-3.8555,-3.8555,-3.8555,-3.8574,-3.8574,-3.8574,-3.8574,-3.8574,-3.8574,-3.8574,-3.8574,-3.8574,-3.8574,-3.8574,-3.8574,-3.8574,-3.8574,-3.8574,-3.8574,-3.8574,-3.8574,-3.8574,-3.8574,-3.8574,-1.2486,0.0,0.0,0.0,0.0,0.0,0.0,0.0,0.0,0.0,0.0,0.0,0.0,0.0,0.0,0.0,0.0,0.0,0.0,0.0,0.0,0.0,0.0,0.0,0.0,0.0,0.0,0.0,-3.3418,-3.3418,-3.3418,-3.3418,-3.3476,-3.3594,-3.3594,-3.3809,-3.4238,-3.4238,-3.4394,-3.4707,-3.4824,-3.5078,-3.5391,-3.5508,-3.5742,-3.6016,-3.6016,-3.6016,-3.6016,-3.6016,-3.6016,-3.6035,-3.6152,-3.6133,-3.6074,-3.6504,-3.6387,-3.6094,-3.6523,-3.6738,-3.6914,-3.7324,-3.7754,-3.8164,-3.8476,-3.8574,-3.8574,-3.8574,-3.8574,-3.8574,-3.8574,-3.8574,-3.8574,-3.8574,-3.8574,-3.8574,-3.8574,-3.8574,-3.8574,-3.8574,-3.8574,-3.8574,-3.8574,-3.8574,-3.8476,-3.8144,-3.8105,-3.8105,-3.8105,-3.8105,-3.8223,-3.8535,-3.8574,-3.8574,-3.8574,-3.8574,-3.8574,-3.8574,-3.8574,-3.8574,-3.8574,-3.8574,-3.8574,-3.8574,-3.8574,-3.8574,-3.8574,-3.8574,-3.8574,-3.8574,-3.8574,-3.8574,0.0,0.0,0.0,0.0,0.0,0.0,0.0,0.0,0.0,0.0,0.0,0.0,0.0,0.0,0.0,0.0,0.0,0.0,0.0,0.0,0.0,0.0,0.0,0.0,0.0,0.0,0.0,0.0,-3.3164,-3.3242,-3.3418,-3.3418,-3.3418,-3.3418,-3.3418,-3.3535,-3.3809,-3.3809,-3.3926,-3.418,-3.4355,-3.459,-3.4844,-3.5019,-3.5351,-3.5762,-3.5762,-3.5859,-3.6016,-3.6016,-3.6016,-3.6016,-3.6016,-3.6016,-3.6055,-3.6309,-3.6348,-3.6328,-3.6582,-3.6894,-3.7226,-3.748,-3.7851,-3.8242,-3.8496,-3.8574,-3.8574,-3.8574,-3.8574,-3.8574,-3.8574,-3.8574,-3.8574,-3.8574,-3.8574,-3.8574,-3.8574,-3.8574,-3.8574,-3.8574,-3.8574,-3.8574,-3.8574,-3.8574,-3.8496,-3.8223,-3.8203,-3.8203,-3.8203,-3.8203,-3.8301,-3.8555,-3.8574,-3.8574,-3.8574,-3.8574,-3.8574,-3.8574,-3.8574,-3.8574,-3.8574,-3.8574,-3.8574,-3.8574,-3.8574,-3.8574,-3.8574,-3.8574,-3.8574,-3.8574,-3.8379,-3.8301,0.0,0.0,0.0,0.0,0.0,0.0,-1.9519,-2.0165,0.0,0.0,0.0,0.0,0.0,0.0,0.0,0.0,0.0,0.0,0.0,0.0,0.0,0.0,0.0,0.0,0.0,0.0,-3.2324,-3.2695,-3.2734,-3.291,-3.332,-3.3359,-3.3379,-3.3418,-3.3418,-3.3418,-3.3418,-3.3418,-3.3418,-3.3437,-3.3809,-3.4023,-3.4082,-3.4453,-3.4883,-3.5312,-3.5371,-3.5605,-3.5957,-3.5996,-3.6016,-3.6016,-3.6016,-3.6016,-3.6035,-3.6074,-3.6309,-3.6601,-3.666,-3.7168,-3.7793,-3.7832,-3.8144,-3.8516,-3.8555,-3.8574,-3.8574,-3.8574,-3.8574,-3.8574,-3.8574,-3.8574,-3.8574,-3.8574,-3.8574,-3.8574,-3.8574,-3.8574,-3.8574,-3.8574,-3.8574,-3.8574,-3.8574,-3.8574,-3.8574,-3.8574,-3.8535,-3.8516,-3.8574,-3.8535,-3.8516,-3.8574,-3.8574,-3.8574,-3.8574,-3.8574,-3.8574,-3.8574,-3.8574,-3.8574,-3.8574,-3.8574,-3.8574,-3.8574,-3.8574,-3.8555,-3.8496,-3.8496,-3.8496,-3.8496,-3.8066,-3.7851,-1.471,-1.5002,-1.5335,-1.4472,0.0,0.0,0.0,-1.6462,0.0,0.0,0.0,0.0,0.0,0.0,0.0,0.0,0.0,0.0,0.0,0.0,0.0,0.0,0.0,0.0,0.0,0.0,-3.2207,-3.2285,-3.2285,-3.248,-3.2891,-3.291,-3.3066,-3.3418,-3.3418,-3.3418,-3.3418,-3.3418,-3.3418,-3.3418,-3.3516,-3.373,-3.4082,-3.416,-3.4434,-3.4863,-3.5234,-3.543,-3.5547,-3.5879,-3.6016,-3.6016,-3.6016,-3.6016,-3.6055,-3.6406,-3.6367,-3.6191,-3.6543,-3.6777,-3.6973,-3.7305,-3.7695,-3.8125,-3.8476,-3.8574,-3.8574,-3.8574,-3.8574,-3.8574,-3.8574,-3.8574,-3.8574,-3.8574,-3.8574,-3.8574,-3.8574,-3.8574,-3.8574,-3.8574,-3.8574,-3.8574,-3.8574,-3.8574,-3.8574,-3.8574,-3.8281,-3.8184,-3.8535,-3.8262,-3.8184,-3.8535,-3.8574,-3.8574,-3.8574,-3.8574,-3.8574,-3.8574,-3.8574,-3.8574,-3.8574,-3.8574,-3.8574,-3.8574,-3.8574,-3.8398,-3.8047,-3.8047,-3.8047,-3.8047,-3.7617,-3.7422,-1.5396,-1.5498,-1.5789,-1.5292,0.0,0.0,0.0,0.0,0.0,0.0,0.0,0.0,0.0,0.0,0.0,0.0,0.0,0.0,0.0,0.0,0.0,0.0,0.0,0.0,0.0,0.0,-3.1367,-3.1816,-3.2051,-3.2266,-3.248,-3.248,-3.2676,-3.3105,-3.3105,-3.3203,-3.3418,-3.3418,-3.3418,-3.3418,-3.3418,-3.3535,-3.375,-3.375,-3.3984,-3.4394,-3.4629,-3.498,-3.541,-3.5625,-3.584,-3.6016,-3.6016,-3.6016,-3.6035,-3.6269,-3.6348,-3.6367,-3.6601,-3.6816,-3.7012,-3.7226,-3.7441,-3.7695,-3.8125,-3.8398,-3.8574,-3.8574,-3.8574,-3.8574,-3.8574,-3.8574,-3.8574,-3.8574,-3.8574,-3.8574,-3.8574,-3.8574,-3.8574,-3.8574,-3.8574,-3.8574,-3.8574,-3.8574,-3.8574,-3.8574,-3.8398,-3.832,-3.8555,-3.8379,-3.834,-3.8555,-3.8574,-3.8574,-3.8574,-3.8574,-3.8574,-3.8574,-3.8574,-3.8574,-3.8574,-3.8574,-3.8574,-3.8574,-3.8359,-3.8144,-3.793,-3.75,-3.7402,-3.7598,-3.7187,-3.6992,0.0,0.0,0.0,0.0,0.0,-1.5839,0.0,0.0,0.0,0.0,0.0,0.0,0.0,0.0,0.0,0.0,0.0,0.0,0.0,0.0,0.0,0.0,0.0,0.0,0.0,0.0,-3.0117,-3.1074,-3.1309,-3.1622,-3.1914,-3.1992,-3.2246,-3.2656,-3.2754,-3.2969,-3.3301,-3.3379,-3.3418,-3.3418,-3.3418,-3.3418,-3.3418,-3.3418,-3.3613,-3.3945,-3.4043,-3.4473,-3.5156,-3.5332,-3.5586,-3.5898,-3.5996,-3.6016,-3.6016,-3.6016,-3.625,-3.6543,-3.6543,-3.6816,-3.7168,-3.7168,-3.7226,-3.7363,-3.7695,-3.8105,-3.8457,-3.8457,-3.8516,-3.8574,-3.8574,-3.8574,-3.8574,-3.8574,-3.8574,-3.8574,-3.8574,-3.8574,-3.8574,-3.8574,-3.8574,-3.8574,-3.8574,-3.8574,-3.8574,-3.8574,-3.8574,-3.8574,-3.8574,-3.8574,-3.8574,-3.8574,-3.8574,-3.8574,-3.8574,-3.8574,-3.8574,-3.8574,-3.8574,-3.8574,-3.8574,-3.8574,-3.8535,-3.8457,-3.8105,-3.7851,-3.7676,-3.7012,-3.6855,-3.7168,-3.6738,-3.6543,0.0,0.0,0.0,0.0,-1.7369,0.0,0.0,0.0,0.0,0.0,0.0,0.0,0.0,0.0,0.0,0.0,0.0,0.0,0.0,0.0,0.0,0.0,0.0,0.0,0.0,0.0,0.0,-2.9707,-2.9141,-2.9414,-3.0957,-3.1387,-3.1797,-3.2226,-3.2598,-3.2812,-3.2871,-3.3242,-3.3418,-3.3418,-3.3418,-3.3418,-3.3418,-3.3418,-3.3457,-3.3516,-3.3906,-3.4141,-3.4277,-3.5078,-3.543,-3.5508,-3.5879,-3.6016,-3.6016,-3.6016,-3.6055,-3.6094,-3.6094,-3.6387,-3.6738,-3.6738,-3.6992,-3.7305,-3.7344,-3.7656,-3.7988,-3.7988,-3.8281,-3.8574,-3.8574,-3.8574,-3.8574,-3.8574,-3.8574,-3.8574,-3.8574,-3.8574,-3.8574,-3.8574,-3.8574,-3.8574,-3.8574,-3.8574,-3.8574,-3.8574,-3.8574,-3.8574,-3.8574,-3.8574,-3.8574,-3.8574,-3.8574,-3.8574,-3.8574,-3.8574,-3.8574,-3.8574,-3.8574,-3.8574,-3.8574,-3.8574,-3.8398,-3.8008,-3.7949,-3.7559,-3.6816,-3.6719,-3.6699,-3.6738,-3.6289,-3.6094,0.0,0.0,0.0,0.0,0.0,0.0,-1.5223,0.0,-1.4212,0.0,0.0,0.0,0.0,0.0,0.0,0.0,0.0,0.0,0.0,0.0,0.0,0.0,0.0,0.0,0.0,0.0,0.0,0.0,0.0,-2.8574,-3.0039,-3.0527,-3.1074,-3.1758,-3.1953,-3.2285,-3.2793,-3.2969,-3.3184,-3.3418,-3.3418,-3.3418,-3.3418,-3.3418,-3.3418,-3.3437,-3.3613,-3.3828,-3.4101,-3.4473,-3.4922,-3.541,-3.5586,-3.5801,-3.6016,-3.6016,-3.6016,-3.6016,-3.6016,-3.6133,-3.6289,-3.6289,-3.6582,-3.6934,-3.6934,-3.7226,-3.7559,-3.7559,-3.7871,-3.8203,-3.8203,-3.8379,-3.8574,-3.8574,-3.8574,-3.8574,-3.8574,-3.8574,-3.8574,-3.8574,-3.8574,-3.8574,-3.8574,-3.8574,-3.8574,-3.8574,-3.8574,-3.8574,-3.8574,-3.8574,-3.8574,-3.8574,-3.8574,-3.8574,-3.8574,-3.8574,-3.8574,-3.8574,-3.8574,-3.8457,-3.8203,-3.8203,-3.7988,-3.7578,-3.7324,-3.7031,-3.668,-3.6426,-3.6289,-3.6289,-3.6094,-3.6016,-1.9769,0.0,0.0,0.0,0.0,0.0,0.0,0.0,0.0,0.0,0.0,0.0,0.0,0.0,0.0,0.0,0.0,0.0,0.0,0.0,0.0,0.0,0.0,0.0,0.0,0.0,0.0,0.0,0.0,0.0,-2.9141,-2.9726,-3.0371,-3.1133,-3.1387,-3.1816,-3.2441,-3.2676,-3.2949,-3.3242,-3.3359,-3.3418,-3.3418,-3.3418,-3.3418,-3.3418,-3.3418,-3.3594,-3.3906,-3.4023,-3.4512,-3.5215,-3.5351,-3.5644,-3.6016,-3.6016,-3.6016,-3.6016,-3.6016,-3.6016,-3.6016,-3.6016,-3.623,-3.6484,-3.6484,-3.6797,-3.7129,-3.7129,-3.7422,-3.7773,-3.7891,-3.8164,-3.8418,-3.8555,-3.8574,-3.8574,-3.8574,-3.8574,-3.8574,-3.8574,-3.8574,-3.8574,-3.8574,-3.8574,-3.8574,-3.8574,-3.8574,-3.8574,-3.8574,-3.8574,-3.8574,-3.8574,-3.8574,-3.8574,-3.8574,-3.8574,-3.8516,-3.8398,-3.8281,-3.8086,-3.7773,-3.7754,-3.7559,-3.7129,-3.6816,-3.6621,-3.6484,-3.6172,-3.6016,-3.6016,-3.6016,-3.6016,0.0,0.0,0.0,-1.8145,0.0,0.0,0.0,0.0,-1.5672,0.0,0.0,0.0,0.0,0.0,0.0,0.0,0.0,0.0,0.0,0.0,0.0,0.0,0.0,0.0,0.0,0.0,0.0,0.0,0.0,0.0,-2.8203,-2.9141,-2.9785,-3.0234,-3.1074,-3.1523,-3.1562,-3.2383,-3.2793,-3.2812,-3.3223,-3.3418,-3.3418,-3.3418,-3.3418,-3.3418,-3.3418,-3.3437,-3.3476,-3.3906,-3.4336,-3.4766,-3.5215,-3.5644,-3.6016,-3.6016,-3.6016,-3.6016,-3.6016,-3.6016,-3.6016,-3.6016,-3.6035,-3.6035,-3.6035,-3.6348,-3.6699,-3.6699,-3.6992,-3.7402,-3.7812,-3.793,-3.8047,-3.8476,-3.8574,-3.8574,-3.8574,-3.8574,-3.8574,-3.8574,-3.8574,-3.8574,-3.8574,-3.8574,-3.8574,-3.8574,-3.8574,-3.8574,-3.8574,-3.8574,-3.8574,-3.8574,-3.8574,-3.8574,-3.8574,-3.8574,-3.8398,-3.7969,-3.7559,-3.7324,-3.7324,-3.7324,-3.7129,-3.6699,-3.668,-3.6465,-3.6035,-3.6035,-3.6016,-3.6016,-3.6016,-3.6016,0.0,0.0,-2.2491,-1.9847,0.0,0.0,0.0,0.0,0.0,0.0,0.0,0.0,0.0,0.0,0.0,0.0,0.0,0.0,0.0,0.0,0.0,0.0,0.0,0.0,0.0,0.0,0.0,-2.4336,-2.418,0.0,0.0,-2.8516,-2.9336,-2.9766,-3.0644,-3.123,-3.1523,-3.209,-3.2519,-3.2793,-3.3223,-3.3418,-3.3418,-3.3418,-3.3418,-3.3418,-3.3418,-3.3418,-3.3437,-3.3574,-3.3906,-3.4336,-3.4766,-3.5215,-3.5644,-3.5918,-3.6016,-3.6016,-3.6016,-3.6016,-3.6016,-3.6016,-3.6016,-3.6016,-3.6016,-3.6113,-3.623,-3.623,-3.6543,-3.6914,-3.7051,-3.7305,-3.7539,-3.7695,-3.7734,-3.7734,-3.7734,-3.7949,-3.8144,-3.8144,-3.8379,-3.8574,-3.8574,-3.8574,-3.8574,-3.8574,-3.8574,-3.8574,-3.8574,-3.832,-3.8144,-3.8144,-3.7891,-3.7734,-3.7734,-3.7734,-3.7676,-3.7519,-3.7383,-3.7168,-3.6894,-3.6875,-3.668,-3.625,-3.623,-3.6172,-3.6016,-3.6016,-3.6016,-3.6016,-3.6016,-3.6016,-2.331,-2.3442,0.0,-2.1086,-2.0267,0.0,-1.7091,0.0,0.0,0.0,0.0,0.0,0.0,0.0,0.0,0.0,0.0,0.0,0.0,0.0,0.0,0.0,0.0,0.0,0.0,0.0,-2.1445,-2.3203,-2.291,0.0,0.0,0.0,-2.8574,-2.9316,-3.0195,-3.0859,-3.1289,-3.1875,-3.2305,-3.2578,-3.3144,-3.3418,-3.3418,-3.3418,-3.3418,-3.3418,-3.3418,-3.3418,-3.3418,-3.3418,-3.3672,-3.4101,-3.4375,-3.4844,-3.5449,-3.5859,-3.6016,-3.6016,-3.6016,-3.6016,-3.6016,-3.6016,-3.6016,-3.6016,-3.6016,-3.6016,-3.6016,-3.6016,-3.623,-3.6484,-3.6641,-3.6875,-3.7109,-3.7266,-3.7305,-3.7305,-3.7305,-3.75,-3.7695,-3.7695,-3.793,-3.8125,-3.8125,-3.8125,-3.8223,-3.8535,-3.8437,-3.834,-3.834,-3.7969,-3.7695,-3.7695,-3.7461,-3.7305,-3.7305,-3.7168,-3.707,-3.707,-3.6934,-3.6719,-3.6445,-3.6445,-3.6309,-3.6035,-3.6016,-3.6016,-3.6016,-3.6016,-3.6016,-3.6016,-3.6016,-3.6016]}]]